[[{"header":{"parameterUnit":"m.s-1","parameterCategory":1,"la1":31.0,"la2":29.5877,"lo1":-88.7671,"lo2":-86.6584,"dy":0.0162,"dx":0.0185,"nx":115,"ny":88,"refTime":"2023-03-20T06:00:00:Z","depth":0,"parameterNumber":2,"parameterNumberName":"U-component_of_WINDS"},"data":[0.0,0.0,0.0,0.0,0.0,0.0,0.0,0.0,0.0,0.0,0.0,0.0,0.0,0.0,0.0,0.0,0.0,0.0,0.0,0.0,0.0,0.0,0.0,0.0,0.0,0.0,0.0,0.0,0.0,0.0,0.0,0.0,0.0,0.0,0.0,0.0,0.0,0.0,0.0,0.0,0.0,0.0,0.0,0.0,0.0,0.0,0.0,0.0,0.0,0.0,0.0,0.0,0.0,0.0,0.0,0.0,0.0,0.0,0.0,0.0,0.0,0.0,0.0,0.0,0.0,0.0,0.0,0.0,0.0,0.0,0.0,0.0,0.0,0.0,0.0,0.0,0.0,0.0,0.0,0.0,0.0,0.0,0.0,0.0,0.0,0.0,0.0,0.0,0.0,0.0,0.0,0.0,0.0,0.0,0.0,0.0,0.0,0.0,0.0,0.0,0.0,0.0,0.0,0.0,0.0,0.0,0.0,0.0,0.0,0.0,0.0,0.0,0.0,0.0,0.0,0.0,0.0,0.0,0.0,0.0,0.0,0.0,0.0,0.0,0.0,0.0,0.0,0.0,0.0,0.0,0.0,0.0,0.0,0.0,0.0,0.0,0.0,0.0,0.0,0.0,0.0,0.0,0.0,0.0,0.0,0.0,0.0,0.0,0.0,0.0,0.0,0.0,0.0,0.0,0.0,0.0,0.0,0.0,0.0,0.0,0.0,0.0,0.0,0.0,0.0,0.0,0.0,0.0,0.0,0.0,0.0,0.0,0.0,0.0,0.0,0.0,0.0,0.0,0.0,0.0,0.0,0.0,0.0,0.0,0.0,0.0,0.0,0.0,0.0,0.0,0.0,0.0,0.0,0.0,0.0,0.0,0.0,0.0,0.0,0.0,0.0,0.0,0.0,0.0,0.0,0.0,0.0,0.0,0.0,0.0,0.0,0.0,0.0,0.0,0.0,0.0,0.0,0.0,0.0,0.0,0.0,0.0,0.0,0.0,0.0,0.0,0.0,0.0,0.0,0.0,0.0,0.0,0.0,0.0,0.0,0.0,0.0,0.0,0.0,0.0,0.0,0.0,0.0,0.0,0.0,0.0,0.0,0.0,0.0,0.0,0.0,0.0,0.0,0.0,0.0,0.0,0.0,0.0,0.0,0.0,0.0,0.0,0.0,0.0,0.0,0.0,0.0,0.0,0.0,0.0,0.0,0.0,0.0,0.0,0.0,0.0,0.0,0.0,0.0,0.0,0.0,0.0,0.0,0.0,0.0,0.0,0.0,0.0,0.0,0.0,0.0,0.0,0.0,0.0,0.0,0.0,0.0,0.0,0.0,0.0,0.0,0.0,0.0,0.0,0.0,0.0,0.0,0.0,0.0,0.0,0.0,0.0,0.0,0.0,0.0,0.0,0.0,0.0,0.0,0.0,0.0,0.0,0.0,0.0,0.0,0.0,0.0,0.0,0.0,0.0,0.0,0.0,0.0,0.0,0.0,0.0,0.0,0.0,0.0,0.0,0.0,0.0,0.0,0.0,0.0,0.0,0.0,0.0,0.0,0.0,0.0,0.0,0.0,0.0,0.0,0.0,0.0,0.0,0.0,0.0,0.0,0.0,0.0,0.0,0.0,0.0,0.0,0.0,0.0,0.0,0.0,0.0,0.0,0.0,0.0,0.0,0.0,0.0,0.0,0.0,0.0,0.0,0.0,0.0,0.0,0.0,0.0,0.0,0.0,0.0,0.0,0.0,0.0,0.0,0.0,0.0,0.0,0.0,0.0,0.0,0.0,0.0,0.0,0.0,0.0,0.0,0.0,0.0,0.0,0.0,0.0,0.0,0.0,0.0,0.0,0.0,0.0,0.0,0.0,0.0,0.0,0.0,0.0,0.0,0.0,0.0,0.0,0.0,0.0,0.0,0.0,0.0,0.0,0.0,0.0,0.0,0.0,0.0,0.0,0.0,0.0,0.0,0.0,0.0,0.0,0.0,0.0,0.0,0.0,0.0,0.0,0.0,0.0,0.0,0.0,0.0,0.0,0.0,0.0,0.0,0.0,0.0,0.0,0.0,0.0,0.0,0.0,0.0,0.0,0.0,0.0,0.0,0.0,0.0,0.0,0.0,0.0,0.0,0.0,0.0,0.0,0.0,0.0,0.0,0.0,0.0,0.0,0.0,0.0,0.0,0.0,0.0,0.0,0.0,0.0,0.0,0.0,0.0,0.0,0.0,0.0,0.0,0.0,0.0,0.0,0.0,0.0,0.0,0.0,0.0,0.0,0.0,0.0,0.0,0.0,0.0,0.0,0.0,0.0,0.0,0.0,0.0,0.0,0.0,0.0,0.0,0.0,0.0,0.0,0.0,0.0,0.0,0.0,0.0,0.0,0.0,0.0,0.0,0.0,0.0,0.0,0.0,0.0,0.0,0.0,0.0,0.0,0.0,0.0,0.0,0.0,0.0,0.0,0.0,0.0,0.0,0.0,0.0,0.0,0.0,0.0,0.0,0.0,0.0,0.0,0.0,0.0,0.0,0.0,0.0,0.0,0.0,0.0,0.0,0.0,0.0,0.0,0.0,0.0,0.0,0.0,0.0,0.0,0.0,0.0,0.0,0.0,0.0,0.0,0.0,0.0,0.0,0.0,0.0,0.0,0.0,0.0,0.0,0.0,0.0,0.0,0.0,0.0,0.0,0.0,0.0,0.0,0.0,0.0,0.0,0.0,0.0,0.0,0.0,0.0,0.0,0.0,0.0,0.0,0.0,0.0,0.0,0.0,0.0,0.0,0.0,0.0,0.0,0.0,0.0,0.0,0.0,0.0,0.0,0.0,0.0,0.0,0.0,0.0,0.0,0.0,0.0,0.0,0.0,0.0,0.0,0.0,0.0,0.0,0.0,0.0,0.0,0.0,0.0,0.0,0.0,0.0,0.0,0.0,0.0,0.0,0.0,0.0,0.0,0.0,0.0,0.0,0.0,0.0,0.0,0.0,0.0,0.0,0.0,0.0,0.0,0.0,0.0,0.0,0.0,0.0,0.0,0.0,0.0,0.0,0.0,0.0,0.0,0.0,0.0,0.0,0.0,0.0,0.0,0.0,0.0,0.0,0.0,0.0,0.0,0.0,0.0,0.0,0.0,0.0,0.0,0.0,0.0,0.0,0.0,0.0,0.0,0.0,0.0,0.0,0.0,0.0,0.0,0.0,0.0,0.0,0.0,0.0,0.0,0.0,0.0,0.0,0.0,0.0,0.0,0.0,0.0,0.0,0.0,0.0,0.0,0.0,0.0,0.0,0.0,0.0,0.0,0.0,0.0,0.0,0.0,0.0,0.0,0.0,0.0,0.0,0.0,0.0,0.0,0.0,0.0,0.0,0.0,0.0,0.0,0.0,0.0,0.0,0.0,0.0,0.0,0.0,0.0,0.0,0.0,0.0,0.0,0.0,0.0,0.0,0.0,0.0,0.0,0.0,0.0,0.0,0.0,0.0,0.0,0.0,0.0,0.0,0.0,0.0,0.0,0.0,0.0,0.0,0.0,0.0,0.0,0.0,0.0,0.0,0.0,0.0,0.0,0.0,0.0,0.0,0.0,0.0,0.0,0.0,0.0,0.0,0.0,0.0,0.0,0.0,0.0,0.0,0.0,0.0,0.0,0.0,0.0,0.0,0.0,0.0,0.0,0.0,0.0,0.0,0.0,0.0,0.0,0.0,0.0,0.0,0.0,0.0,0.0,0.0,0.0,0.0,0.0,0.0,0.0,0.0,0.0,0.0,0.0,0.0,0.0,0.0,0.0,0.0,0.0,0.0,0.0,0.0,0.0,0.0,0.0,0.0,0.0,0.0,0.0,0.0,0.0,0.0,0.0,0.0,0.0,0.0,0.0,0.0,0.0,0.0,0.0,0.0,0.0,0.0,0.0,0.0,0.0,0.0,0.0,0.0,0.0,0.0,0.0,0.0,0.0,0.0,0.0,0.0,0.0,0.0,0.0,0.0,0.0,0.0,0.0,0.0,0.0,0.0,0.0,0.0,0.0,0.0,0.0,0.0,0.0,0.0,0.0,0.0,0.0,0.0,0.0,0.0,0.0,0.0,0.0,0.0,0.0,0.0,0.0,0.0,0.0,0.0,0.0,0.0,0.0,0.0,0.0,0.0,0.0,0.0,0.0,0.0,0.0,0.0,0.0,0.0,0.0,0.0,0.0,0.0,0.0,0.0,0.0,0.0,0.0,0.0,0.0,0.0,0.0,0.0,0.0,0.0,0.0,0.0,0.0,0.0,0.0,0.0,0.0,0.0,0.0,-5.9939,0.0,0.0,0.0,0.0,0.0,0.0,0.0,0.0,0.0,0.0,0.0,0.0,0.0,0.0,0.0,0.0,0.0,0.0,0.0,0.0,0.0,0.0,0.0,0.0,0.0,0.0,0.0,0.0,0.0,0.0,0.0,0.0,0.0,0.0,0.0,0.0,0.0,0.0,0.0,0.0,0.0,0.0,0.0,0.0,0.0,0.0,0.0,0.0,0.0,0.0,0.0,0.0,0.0,0.0,0.0,0.0,0.0,0.0,0.0,0.0,0.0,0.0,0.0,0.0,0.0,0.0,0.0,0.0,0.0,0.0,0.0,0.0,0.0,0.0,0.0,0.0,0.0,0.0,0.0,0.0,0.0,0.0,0.0,0.0,0.0,0.0,0.0,0.0,0.0,0.0,0.0,0.0,0.0,0.0,0.0,0.0,0.0,0.0,0.0,0.0,0.0,0.0,0.0,0.0,0.0,0.0,0.0,0.0,0.0,0.0,-6.0897,-6.0568,-6.0925,-6.0909,-6.0568,0.0,0.0,0.0,0.0,0.0,0.0,0.0,0.0,0.0,0.0,0.0,0.0,0.0,0.0,0.0,0.0,0.0,0.0,0.0,0.0,0.0,0.0,0.0,0.0,0.0,0.0,0.0,0.0,0.0,0.0,0.0,0.0,0.0,0.0,0.0,0.0,0.0,0.0,0.0,0.0,0.0,0.0,0.0,0.0,0.0,0.0,0.0,0.0,0.0,0.0,0.0,0.0,0.0,0.0,0.0,0.0,0.0,0.0,0.0,0.0,0.0,0.0,0.0,0.0,0.0,0.0,0.0,0.0,0.0,0.0,0.0,0.0,0.0,0.0,0.0,0.0,0.0,0.0,0.0,0.0,0.0,0.0,0.0,0.0,0.0,0.0,0.0,0.0,0.0,0.0,0.0,0.0,0.0,0.0,0.0,0.0,0.0,0.0,0.0,0.0,0.0,0.0,0.0,0.0,0.0,0.0,0.0,0.0,0.0,0.0,0.0,0.0,-6.1519,-6.1574,-6.1363,0.0,0.0,0.0,0.0,0.0,0.0,0.0,0.0,0.0,0.0,0.0,0.0,0.0,0.0,0.0,0.0,0.0,0.0,0.0,0.0,0.0,0.0,0.0,0.0,0.0,0.0,0.0,0.0,0.0,0.0,0.0,0.0,0.0,0.0,0.0,0.0,0.0,0.0,0.0,0.0,0.0,0.0,0.0,0.0,0.0,0.0,0.0,0.0,0.0,0.0,0.0,0.0,0.0,0.0,0.0,0.0,0.0,0.0,0.0,0.0,0.0,0.0,0.0,0.0,0.0,0.0,0.0,0.0,0.0,0.0,0.0,0.0,0.0,0.0,0.0,0.0,0.0,0.0,0.0,0.0,0.0,0.0,0.0,0.0,0.0,0.0,0.0,0.0,0.0,0.0,0.0,0.0,0.0,0.0,0.0,0.0,0.0,0.0,0.0,0.0,0.0,0.0,0.0,0.0,0.0,0.0,0.0,0.0,0.0,0.0,-6.2764,-6.2135,-6.2872,0.0,-6.2332,0.0,0.0,0.0,0.0,0.0,0.0,0.0,0.0,0.0,0.0,0.0,0.0,0.0,0.0,0.0,0.0,0.0,0.0,0.0,0.0,0.0,0.0,0.0,0.0,0.0,0.0,0.0,0.0,0.0,0.0,0.0,0.0,0.0,0.0,0.0,0.0,0.0,0.0,0.0,0.0,0.0,0.0,0.0,0.0,0.0,0.0,0.0,0.0,0.0,0.0,0.0,0.0,0.0,0.0,0.0,0.0,0.0,0.0,0.0,0.0,0.0,0.0,0.0,0.0,0.0,0.0,0.0,0.0,0.0,0.0,0.0,0.0,0.0,0.0,0.0,0.0,0.0,0.0,0.0,0.0,0.0,0.0,0.0,0.0,0.0,0.0,0.0,0.0,0.0,0.0,0.0,0.0,0.0,0.0,0.0,0.0,0.0,0.0,0.0,0.0,0.0,0.0,0.0,0.0,0.0,0.0,0.0,0.0,0.0,0.0,-6.3144,-6.2967,-6.3361,-6.3169,0.0,0.0,0.0,0.0,0.0,0.0,0.0,0.0,0.0,0.0,0.0,0.0,0.0,0.0,0.0,0.0,0.0,0.0,0.0,0.0,0.0,0.0,0.0,0.0,0.0,0.0,0.0,0.0,0.0,0.0,0.0,0.0,0.0,0.0,0.0,0.0,0.0,0.0,0.0,0.0,0.0,0.0,0.0,0.0,0.0,0.0,0.0,0.0,0.0,0.0,0.0,0.0,0.0,0.0,0.0,0.0,0.0,0.0,0.0,0.0,0.0,0.0,0.0,0.0,0.0,0.0,0.0,0.0,0.0,0.0,0.0,0.0,0.0,0.0,0.0,0.0,0.0,0.0,0.0,0.0,0.0,0.0,0.0,0.0,0.0,0.0,0.0,0.0,0.0,0.0,0.0,0.0,0.0,0.0,0.0,0.0,0.0,0.0,0.0,0.0,0.0,0.0,0.0,0.0,0.0,0.0,0.0,0.0,0.0,0.0,-6.3161,-6.3597,-6.3837,-6.3926,-6.3676,-6.3107,0.0,0.0,0.0,0.0,0.0,0.0,0.0,0.0,0.0,0.0,0.0,0.0,0.0,0.0,0.0,0.0,0.0,0.0,0.0,0.0,0.0,0.0,0.0,0.0,0.0,0.0,0.0,0.0,0.0,0.0,0.0,0.0,0.0,0.0,0.0,0.0,0.0,0.0,0.0,0.0,0.0,0.0,0.0,0.0,0.0,0.0,0.0,0.0,0.0,0.0,0.0,0.0,0.0,0.0,0.0,0.0,0.0,0.0,0.0,0.0,0.0,0.0,0.0,0.0,0.0,0.0,0.0,0.0,0.0,0.0,0.0,0.0,0.0,0.0,0.0,0.0,0.0,0.0,0.0,0.0,0.0,0.0,0.0,0.0,0.0,0.0,0.0,0.0,0.0,0.0,0.0,0.0,0.0,0.0,0.0,0.0,0.0,0.0,0.0,0.0,0.0,0.0,0.0,0.0,0.0,0.0,0.0,0.0,-6.3934,-6.4212,-6.4464,-6.4631,-6.4759,-6.4813,0.0,0.0,0.0,0.0,0.0,0.0,0.0,0.0,0.0,0.0,0.0,0.0,0.0,0.0,0.0,0.0,0.0,0.0,0.0,0.0,0.0,0.0,0.0,0.0,0.0,0.0,0.0,0.0,0.0,0.0,0.0,0.0,0.0,0.0,0.0,0.0,0.0,0.0,0.0,0.0,0.0,0.0,0.0,0.0,0.0,0.0,0.0,0.0,0.0,0.0,0.0,0.0,0.0,0.0,0.0,0.0,0.0,0.0,0.0,0.0,0.0,0.0,0.0,0.0,0.0,0.0,0.0,0.0,0.0,0.0,0.0,0.0,0.0,0.0,0.0,0.0,0.0,0.0,0.0,0.0,0.0,0.0,0.0,0.0,0.0,0.0,0.0,0.0,0.0,0.0,0.0,0.0,0.0,0.0,0.0,0.0,0.0,0.0,0.0,0.0,0.0,0.0,0.0,0.0,0.0,0.0,0.0,0.0,0.0,-6.3979,-6.4364,-6.4577,-6.4707,-6.4743,-6.4797,0.0,0.0,0.0,0.0,0.0,0.0,0.0,0.0,0.0,0.0,0.0,0.0,0.0,0.0,0.0,0.0,0.0,0.0,0.0,0.0,0.0,0.0,0.0,0.0,0.0,0.0,0.0,0.0,0.0,0.0,0.0,0.0,0.0,0.0,0.0,0.0,0.0,0.0,0.0,0.0,0.0,0.0,0.0,0.0,0.0,0.0,0.0,0.0,0.0,0.0,0.0,0.0,0.0,0.0,0.0,0.0,0.0,0.0,0.0,0.0,0.0,0.0,0.0,0.0,0.0,0.0,0.0,0.0,0.0,0.0,0.0,0.0,0.0,0.0,0.0,0.0,0.0,0.0,0.0,0.0,0.0,0.0,0.0,0.0,0.0,0.0,0.0,0.0,0.0,0.0,0.0,0.0,0.0,0.0,0.0,0.0,0.0,0.0,0.0,0.0,0.0,0.0,0.0,0.0,0.0,0.0,0.0,0.0,0.0,-6.4395,0.0,-6.486,-6.467,-6.4689,-6.4743,0.0,0.0,0.0,0.0,0.0,0.0,0.0,0.0,0.0,0.0,0.0,0.0,0.0,0.0,0.0,0.0,0.0,0.0,0.0,0.0,0.0,0.0,0.0,0.0,0.0,0.0,0.0,0.0,0.0,0.0,0.0,0.0,0.0,0.0,0.0,0.0,0.0,0.0,0.0,0.0,0.0,0.0,0.0,0.0,0.0,0.0,0.0,0.0,0.0,0.0,0.0,0.0,0.0,0.0,0.0,0.0,0.0,0.0,0.0,0.0,0.0,0.0,0.0,0.0,0.0,0.0,0.0,0.0,0.0,0.0,0.0,0.0,0.0,0.0,0.0,0.0,0.0,0.0,0.0,0.0,0.0,0.0,0.0,0.0,0.0,0.0,0.0,0.0,0.0,0.0,0.0,0.0,0.0,0.0,0.0,0.0,0.0,0.0,0.0,0.0,0.0,0.0,0.0,0.0,0.0,0.0,0.0,0.0,-6.4293,-6.5445,-6.5625,-6.5405,-6.4672,-6.4727,-6.4707,0.0,0.0,0.0,0.0,0.0,0.0,0.0,0.0,0.0,0.0,0.0,0.0,0.0,0.0,0.0,0.0,0.0,0.0,0.0,0.0,0.0,0.0,0.0,0.0,0.0,0.0,0.0,0.0,0.0,0.0,0.0,0.0,0.0,0.0,0.0,0.0,0.0,0.0,0.0,0.0,0.0,0.0,0.0,0.0,0.0,0.0,0.0,0.0,0.0,0.0,0.0,0.0,0.0,0.0,0.0,0.0,0.0,0.0,0.0,0.0,0.0,0.0,0.0,0.0,0.0,0.0,0.0,0.0,0.0,0.0,0.0,0.0,0.0,0.0,0.0,0.0,0.0,0.0,0.0,0.0,0.0,0.0,0.0,0.0,0.0,0.0,0.0,0.0,0.0,0.0,0.0,0.0,0.0,0.0,0.0,0.0,0.0,0.0,0.0,0.0,0.0,0.0,0.0,0.0,0.0,0.0,0.0,0.0,0.0,-6.6095,-6.6287,-6.6339,-6.6176,-6.5709,-6.5502,0.0,0.0,0.0,0.0,0.0,0.0,0.0,0.0,0.0,0.0,0.0,0.0,0.0,0.0,0.0,0.0,0.0,0.0,0.0,0.0,0.0,0.0,0.0,0.0,0.0,0.0,0.0,0.0,0.0,0.0,0.0,0.0,0.0,0.0,0.0,0.0,0.0,0.0,0.0,0.0,0.0,0.0,0.0,0.0,0.0,0.0,0.0,0.0,0.0,0.0,0.0,0.0,0.0,0.0,0.0,0.0,0.0,0.0,0.0,0.0,0.0,0.0,0.0,0.0,0.0,0.0,0.0,0.0,0.0,0.0,0.0,0.0,0.0,0.0,0.0,0.0,0.0,0.0,0.0,0.0,0.0,0.0,0.0,0.0,0.0,0.0,0.0,0.0,0.0,0.0,0.0,0.0,0.0,0.0,0.0,0.0,0.0,0.0,0.0,0.0,0.0,0.0,0.0,0.0,0.0,0.0,0.0,0.0,0.0,-6.7946,-6.7958,-6.7813,-6.7432,-6.7242,-6.6745,-6.586,0.0,0.0,0.0,0.0,0.0,0.0,0.0,0.0,0.0,0.0,0.0,0.0,0.0,0.0,0.0,0.0,0.0,0.0,0.0,0.0,0.0,0.0,0.0,0.0,0.0,0.0,0.0,0.0,0.0,0.0,0.0,0.0,0.0,0.0,0.0,0.0,0.0,0.0,0.0,0.0,0.0,0.0,0.0,0.0,0.0,0.0,0.0,0.0,0.0,0.0,0.0,0.0,0.0,0.0,0.0,0.0,0.0,0.0,0.0,0.0,0.0,0.0,0.0,0.0,0.0,0.0,0.0,0.0,0.0,0.0,0.0,0.0,0.0,0.0,0.0,0.0,0.0,0.0,0.0,0.0,0.0,0.0,0.0,0.0,0.0,0.0,0.0,0.0,0.0,0.0,0.0,0.0,0.0,0.0,0.0,0.0,0.0,0.0,0.0,0.0,0.0,0.0,0.0,0.0,0.0,0.0,0.0,0.0,-7.0649,-7.045,-6.9815,-6.863,-6.9095,-6.8295,0.0,0.0,0.0,0.0,0.0,0.0,0.0,0.0,0.0,0.0,0.0,0.0,0.0,0.0,0.0,0.0,0.0,0.0,0.0,0.0,0.0,0.0,0.0,0.0,0.0,0.0,0.0,0.0,0.0,0.0,0.0,0.0,0.0,0.0,0.0,0.0,0.0,0.0,0.0,0.0,0.0,0.0,0.0,0.0,0.0,0.0,0.0,0.0,0.0,0.0,0.0,0.0,0.0,0.0,0.0,0.0,0.0,0.0,0.0,0.0,0.0,0.0,0.0,0.0,0.0,0.0,0.0,0.0,0.0,0.0,0.0,0.0,0.0,0.0,0.0,0.0,0.0,0.0,0.0,0.0,0.0,0.0,0.0,0.0,0.0,0.0,0.0,0.0,0.0,0.0,0.0,0.0,0.0,0.0,0.0,0.0,0.0,0.0,0.0,0.0,0.0,0.0,0.0,0.0,0.0,0.0,0.0,0.0,0.0,-7.2556,-7.3284,-7.2945,-7.1507,-7.0277,-6.9392,0.0,0.0,0.0,0.0,0.0,0.0,0.0,0.0,0.0,0.0,0.0,0.0,0.0,0.0,0.0,0.0,0.0,0.0,0.0,0.0,0.0,0.0,0.0,0.0,0.0,0.0,0.0,0.0,0.0,0.0,0.0,0.0,0.0,0.0,0.0,0.0,0.0,0.0,0.0,0.0,0.0,0.0,0.0,0.0,0.0,0.0,0.0,0.0,0.0,0.0,0.0,0.0,0.0,0.0,0.0,0.0,0.0,0.0,0.0,0.0,0.0,0.0,0.0,0.0,0.0,0.0,0.0,0.0,0.0,0.0,0.0,0.0,0.0,0.0,0.0,0.0,0.0,0.0,0.0,0.0,0.0,0.0,0.0,0.0,0.0,0.0,0.0,0.0,0.0,0.0,0.0,0.0,0.0,0.0,0.0,0.0,0.0,0.0,0.0,0.0,0.0,0.0,0.0,0.0,0.0,0.0,0.0,0.0,-7.1822,-7.3373,-7.4774,-7.5066,-7.4178,-7.2593,-7.1157,0.0,0.0,0.0,0.0,0.0,0.0,0.0,0.0,0.0,0.0,0.0,0.0,0.0,0.0,0.0,0.0,0.0,0.0,0.0,0.0,0.0,0.0,0.0,0.0,0.0,0.0,0.0,0.0,0.0,0.0,0.0,0.0,0.0,0.0,0.0,0.0,0.0,0.0,0.0,0.0,0.0,0.0,0.0,0.0,0.0,0.0,0.0,0.0,0.0,0.0,0.0,0.0,0.0,0.0,0.0,0.0,0.0,0.0,0.0,0.0,0.0,0.0,0.0,0.0,0.0,0.0,0.0,0.0,0.0,0.0,0.0,0.0,0.0,0.0,0.0,0.0,0.0,0.0,0.0,0.0,0.0,0.0,0.0,0.0,0.0,0.0,0.0,0.0,0.0,0.0,0.0,0.0,0.0,0.0,0.0,0.0,0.0,0.0,0.0,0.0,0.0,0.0,0.0,0.0,0.0,0.0,0.0,0.0,-7.2642,-7.3636,-7.5382,-7.6275,-7.6236,-7.5058,-7.3034,0.0,0.0,0.0,0.0,0.0,0.0,0.0,0.0,0.0,0.0,0.0,0.0,0.0,0.0,0.0,0.0,0.0,0.0,0.0,0.0,0.0,0.0,0.0,0.0,0.0,0.0,0.0,0.0,0.0,0.0,0.0,0.0,0.0,0.0,0.0,0.0,0.0,0.0,0.0,0.0,0.0,0.0,0.0,0.0,0.0,0.0,0.0,0.0,0.0,0.0,0.0,0.0,0.0,0.0,0.0,0.0,0.0,0.0,0.0,0.0,0.0,0.0,0.0,0.0,0.0,0.0,0.0,0.0,0.0,0.0,0.0,0.0,0.0,0.0,0.0,0.0,0.0,0.0,0.0,0.0,0.0,0.0,0.0,0.0,0.0,0.0,0.0,0.0,0.0,0.0,0.0,0.0,0.0,0.0,0.0,0.0,0.0,0.0,0.0,0.0,0.0,0.0,0.0,0.0,0.0,0.0,0.0,0.0,-7.31,-7.4929,-7.5865,-7.6275,-7.6275,-7.4591,-7.321,0.0,0.0,0.0,0.0,0.0,0.0,0.0,0.0,0.0,0.0,0.0,0.0,0.0,0.0,0.0,0.0,0.0,0.0,0.0,0.0,0.0,0.0,0.0,0.0,0.0,0.0,0.0,0.0,0.0,0.0,0.0,0.0,0.0,0.0,0.0,0.0,0.0,0.0,0.0,0.0,0.0,0.0,0.0,0.0,0.0,0.0,0.0,0.0,-6.9438,0.0,0.0,0.0,0.0,0.0,0.0,0.0,0.0,0.0,0.0,0.0,0.0,0.0,0.0,0.0,0.0,0.0,0.0,0.0,0.0,0.0,0.0,0.0,0.0,0.0,0.0,0.0,0.0,0.0,0.0,0.0,0.0,0.0,0.0,0.0,0.0,0.0,0.0,0.0,0.0,0.0,0.0,0.0,0.0,0.0,0.0,0.0,0.0,0.0,0.0,0.0,0.0,0.0,0.0,0.0,0.0,0.0,0.0,0.0,-7.3561,-7.5342,-7.5977,-7.6275,-7.6273,-7.5006,-7.3896,0.0,0.0,0.0,0.0,0.0,0.0,0.0,0.0,0.0,0.0,0.0,0.0,0.0,0.0,0.0,0.0,0.0,0.0,0.0,0.0,0.0,0.0,0.0,0.0,0.0,0.0,0.0,0.0,0.0,0.0,0.0,0.0,0.0,0.0,0.0,0.0,0.0,0.0,0.0,0.0,0.0,0.0,0.0,0.0,0.0,0.0,0.0,0.0,0.0,0.0,0.0,0.0,0.0,0.0,0.0,0.0,0.0,0.0,0.0,0.0,0.0,0.0,0.0,0.0,0.0,0.0,0.0,0.0,0.0,0.0,0.0,0.0,0.0,0.0,0.0,0.0,0.0,0.0,0.0,0.0,0.0,0.0,0.0,0.0,0.0,0.0,0.0,0.0,0.0,0.0,0.0,0.0,0.0,0.0,0.0,0.0,0.0,0.0,0.0,0.0,0.0,0.0,0.0,0.0,0.0,0.0,0.0,-7.2619,-7.3942,-7.5491,-7.6049,-7.6275,-7.6275,-7.5749,-7.4591,-7.2872,0.0,0.0,0.0,0.0,0.0,0.0,0.0,0.0,0.0,0.0,0.0,0.0,0.0,0.0,0.0,0.0,0.0,0.0,0.0,0.0,0.0,0.0,0.0,0.0,0.0,0.0,0.0,0.0,0.0,0.0,0.0,0.0,0.0,0.0,0.0,0.0,0.0,0.0,-6.6595,-6.6648,0.0,0.0,0.0,0.0,0.0,0.0,0.0,0.0,-7.0535,0.0,0.0,0.0,0.0,0.0,0.0,0.0,0.0,0.0,0.0,0.0,0.0,0.0,0.0,0.0,0.0,0.0,0.0,0.0,0.0,0.0,0.0,0.0,0.0,0.0,0.0,0.0,0.0,0.0,0.0,0.0,0.0,0.0,0.0,0.0,0.0,0.0,0.0,0.0,0.0,0.0,0.0,0.0,0.0,0.0,0.0,0.0,0.0,0.0,0.0,0.0,0.0,0.0,0.0,0.0,0.0,-7.2043,-7.2814,-7.4165,-7.6088,-7.6273,-7.6275,-7.6309,-7.581,-7.4714,-7.2909,0.0,0.0,0.0,0.0,0.0,0.0,0.0,0.0,0.0,0.0,0.0,0.0,0.0,0.0,0.0,0.0,0.0,0.0,0.0,0.0,0.0,0.0,0.0,0.0,0.0,0.0,0.0,0.0,0.0,0.0,0.0,0.0,0.0,0.0,0.0,0.0,0.0,0.0,0.0,-6.8584,-6.8887,0.0,0.0,0.0,0.0,0.0,0.0,0.0,0.0,-6.9474,0.0,0.0,0.0,0.0,0.0,0.0,0.0,0.0,0.0,0.0,0.0,0.0,0.0,0.0,0.0,0.0,0.0,0.0,0.0,0.0,0.0,0.0,0.0,0.0,0.0,0.0,0.0,0.0,0.0,0.0,0.0,0.0,0.0,0.0,0.0,0.0,0.0,0.0,0.0,0.0,0.0,0.0,0.0,0.0,0.0,0.0,0.0,0.0,0.0,0.0,0.0,0.0,0.0,0.0,0.0,-7.2782,-7.3817,-7.4978,-7.6236,-7.6275,-7.6409,-7.6636,-7.5972,-7.4829,0.0,0.0,0.0,0.0,0.0,0.0,0.0,0.0,0.0,0.0,0.0,0.0,0.0,0.0,0.0,0.0,0.0,0.0,0.0,0.0,0.0,0.0,0.0,0.0,0.0,0.0,0.0,0.0,0.0,0.0,0.0,0.0,0.0,0.0,0.0,0.0,0.0,0.0,0.0,0.0,-6.9113,-6.9909,-7.2029,0.0,0.0,0.0,0.0,0.0,0.0,-7.1572,-7.1365,0.0,0.0,0.0,0.0,0.0,0.0,0.0,0.0,0.0,0.0,0.0,0.0,0.0,0.0,0.0,0.0,0.0,0.0,0.0,0.0,0.0,0.0,0.0,0.0,0.0,0.0,0.0,0.0,0.0,0.0,0.0,0.0,0.0,0.0,0.0,0.0,0.0,0.0,0.0,0.0,0.0,0.0,0.0,0.0,0.0,0.0,0.0,0.0,0.0,0.0,0.0,0.0,0.0,0.0,0.0,-7.3373,-7.4738,-7.5713,-7.6273,-7.6275,-7.6475,-7.6824,-7.598,-7.4853,0.0,0.0,0.0,0.0,0.0,0.0,0.0,0.0,0.0,0.0,0.0,0.0,0.0,0.0,0.0,0.0,0.0,0.0,0.0,0.0,0.0,0.0,0.0,0.0,0.0,0.0,0.0,0.0,0.0,0.0,0.0,0.0,0.0,0.0,0.0,0.0,0.0,0.0,0.0,0.0,0.0,-7.0851,-7.3229,-7.1857,0.0,0.0,0.0,0.0,-7.273,-7.3347,0.0,0.0,0.0,0.0,0.0,0.0,0.0,0.0,0.0,0.0,0.0,0.0,0.0,0.0,0.0,0.0,0.0,0.0,0.0,0.0,0.0,0.0,0.0,0.0,0.0,0.0,0.0,0.0,0.0,0.0,0.0,0.0,0.0,0.0,0.0,0.0,0.0,0.0,0.0,0.0,0.0,0.0,0.0,0.0,0.0,0.0,0.0,0.0,0.0,0.0,0.0,0.0,0.0,0.0,0.0,0.0,-7.3373,-7.4738,-7.568,-7.6273,-7.6275,-7.6309,-7.6339,-7.5592,-7.4474,0.0,0.0,0.0,0.0,0.0,0.0,0.0,0.0,0.0,0.0,0.0,0.0,0.0,0.0,0.0,0.0,0.0,0.0,0.0,0.0,0.0,0.0,0.0,0.0,0.0,0.0,0.0,0.0,0.0,0.0,0.0,0.0,0.0,0.0,0.0,0.0,0.0,0.0,0.0,0.0,0.0,-7.1625,-7.4051,-7.3607,-7.3065,0.0,0.0,-7.4239,-7.4239,-7.4868,0.0,0.0,0.0,0.0,0.0,0.0,0.0,0.0,0.0,0.0,0.0,0.0,0.0,0.0,0.0,0.0,0.0,0.0,0.0,0.0,0.0,0.0,0.0,0.0,0.0,0.0,0.0,0.0,0.0,0.0,0.0,0.0,0.0,0.0,0.0,0.0,0.0,0.0,0.0,0.0,0.0,0.0,0.0,0.0,0.0,0.0,0.0,0.0,0.0,0.0,0.0,0.0,0.0,0.0,0.0,-7.2459,-7.3946,-7.5265,-7.6016,-7.6275,-7.6275,-7.6442,-7.67,-7.5574,-7.4699,0.0,0.0,0.0,0.0,0.0,0.0,0.0,0.0,0.0,0.0,0.0,0.0,0.0,0.0,0.0,0.0,0.0,0.0,0.0,0.0,0.0,0.0,0.0,0.0,0.0,0.0,0.0,0.0,0.0,0.0,0.0,0.0,0.0,0.0,0.0,0.0,0.0,0.0,0.0,0.0,0.0,0.0,-7.4972,-7.4541,0.0,0.0,0.0,-7.5085,-7.466,0.0,0.0,0.0,0.0,0.0,0.0,0.0,0.0,0.0,0.0,0.0,0.0,0.0,0.0,0.0,0.0,0.0,0.0,0.0,0.0,0.0,0.0,0.0,0.0,0.0,0.0,0.0,0.0,0.0,0.0,0.0,0.0,0.0,0.0,0.0,0.0,0.0,0.0,0.0,0.0,0.0,0.0,0.0,0.0,0.0,0.0,0.0,0.0,0.0,0.0,0.0,0.0,0.0,0.0,0.0,0.0,0.0,-7.4395,-7.5644,-7.6275,-7.6275,-7.6275,-7.6475,-7.6829,-7.5727,0.0,0.0,0.0,0.0,0.0,0.0,0.0,0.0,0.0,0.0,0.0,0.0,0.0,0.0,0.0,0.0,0.0,0.0,0.0,0.0,0.0,0.0,0.0,0.0,0.0,0.0,0.0,-6.8224,0.0,0.0,0.0,0.0,0.0,0.0,0.0,0.0,0.0,0.0,0.0,0.0,0.0,0.0,-7.4196,-7.5856,-7.5516,-7.5403,0.0,0.0,-7.5953,-7.5642,-7.7122,-7.7612,0.0,0.0,0.0,0.0,0.0,0.0,0.0,0.0,0.0,0.0,0.0,0.0,0.0,0.0,0.0,0.0,0.0,0.0,0.0,0.0,0.0,0.0,0.0,0.0,0.0,0.0,0.0,0.0,0.0,0.0,0.0,0.0,0.0,0.0,0.0,0.0,0.0,0.0,0.0,0.0,0.0,0.0,0.0,0.0,0.0,0.0,0.0,0.0,0.0,0.0,0.0,0.0,0.0,0.0,0.0,-7.4363,-7.5644,-7.6311,-7.6275,-7.6275,-7.6309,-7.6342,-7.5963,-7.5308,0.0,0.0,0.0,0.0,0.0,0.0,0.0,0.0,0.0,0.0,0.0,0.0,0.0,0.0,0.0,0.0,0.0,0.0,0.0,0.0,0.0,0.0,0.0,0.0,0.0,0.0,0.0,0.0,0.0,0.0,0.0,0.0,0.0,0.0,0.0,0.0,0.0,0.0,0.0,0.0,0.0,-7.5026,-7.6685,-7.6874,-7.7115,0.0,0.0,-7.7153,-7.7754,-7.85,-7.8309,-7.6268,0.0,0.0,0.0,0.0,0.0,0.0,0.0,0.0,0.0,0.0,0.0,0.0,0.0,0.0,0.0,0.0,0.0,0.0,0.0,0.0,0.0,0.0,0.0,0.0,0.0,0.0,0.0,0.0,0.0,0.0,0.0,0.0,0.0,0.0,0.0,0.0,0.0,0.0,0.0,0.0,0.0,0.0,0.0,0.0,0.0,0.0,0.0,0.0,0.0,0.0,0.0,0.0,0.0,-7.327,-7.44,-7.6115,-7.7036,-7.7036,-7.7507,-7.7894,-7.8191,-7.7333,-7.6884,0.0,0.0,0.0,0.0,0.0,0.0,0.0,0.0,0.0,0.0,0.0,0.0,0.0,0.0,0.0,0.0,0.0,0.0,0.0,0.0,0.0,0.0,0.0,0.0,0.0,0.0,0.0,0.0,-7.3246,-7.3678,-7.2779,0.0,0.0,0.0,0.0,0.0,0.0,0.0,0.0,0.0,0.0,-7.5871,-7.7461,-7.7664,0.0,0.0,-7.7867,-7.7612,-7.7447,-7.8031,-7.7904,-7.6204,-7.5367,0.0,0.0,0.0,0.0,0.0,0.0,0.0,0.0,0.0,0.0,0.0,0.0,0.0,0.0,0.0,0.0,0.0,0.0,0.0,0.0,0.0,0.0,0.0,0.0,0.0,0.0,0.0,0.0,0.0,0.0,0.0,0.0,0.0,0.0,0.0,0.0,0.0,0.0,0.0,0.0,0.0,0.0,0.0,0.0,0.0,0.0,0.0,0.0,0.0,0.0,0.0,0.0,-7.3645,-7.457,-7.6164,-7.6903,-7.6764,-7.7305,-7.7905,-7.8468,-7.7662,-7.7511,0.0,0.0,0.0,0.0,0.0,0.0,0.0,0.0,0.0,0.0,0.0,0.0,0.0,0.0,0.0,0.0,0.0,0.0,0.0,0.0,0.0,0.0,0.0,0.0,0.0,0.0,0.0,0.0,-7.4093,-7.3942,-7.2364,0.0,0.0,0.0,0.0,0.0,0.0,0.0,0.0,0.0,0.0,-7.6504,-7.7626,-7.7777,-7.7777,-7.7777,-7.7574,-7.7319,-7.707,-7.7455,-7.7478,-7.6506,0.0,0.0,0.0,0.0,0.0,0.0,0.0,0.0,0.0,0.0,0.0,0.0,0.0,0.0,0.0,0.0,0.0,0.0,0.0,0.0,0.0,0.0,0.0,0.0,0.0,0.0,0.0,0.0,0.0,0.0,-6.9249,0.0,0.0,0.0,0.0,0.0,0.0,0.0,0.0,0.0,0.0,0.0,0.0,0.0,0.0,0.0,0.0,0.0,0.0,0.0,0.0,0.0,0.0,-7.3806,-7.4938,-7.5538,-7.5585,-7.5225,-7.5189,-7.5692,-7.6508,-7.6465,-7.6735,-7.7239,0.0,0.0,0.0,0.0,0.0,0.0,0.0,0.0,0.0,0.0,0.0,0.0,0.0,0.0,0.0,0.0,0.0,0.0,0.0,0.0,0.0,0.0,0.0,0.0,0.0,0.0,-7.3604,-7.4241,-7.4065,0.0,0.0,0.0,0.0,0.0,0.0,0.0,0.0,0.0,0.0,-7.5381,-7.6812,-7.6965,-7.7025,-7.7025,-7.7063,-7.6435,-7.622,-7.7014,-7.7127,-7.7171,0.0,0.0,0.0,0.0,0.0,0.0,0.0,0.0,0.0,0.0,0.0,0.0,0.0,0.0,0.0,0.0,0.0,0.0,0.0,0.0,0.0,0.0,0.0,0.0,0.0,0.0,0.0,-7.0362,-7.085,0.0,0.0,0.0,0.0,0.0,0.0,0.0,0.0,0.0,0.0,0.0,-7.1862,-7.1711,0.0,0.0,0.0,0.0,0.0,0.0,0.0,0.0,0.0,0.0,0.0,0.0,-7.4091,-7.4977,-7.5691,-7.6049,-7.5903,-7.6402,-7.7128,-7.8031,-7.7814,-7.7695,-7.7792,0.0,0.0,0.0,0.0,0.0,0.0,0.0,0.0,0.0,0.0,0.0,0.0,0.0,0.0,0.0,0.0,0.0,0.0,0.0,0.0,0.0,0.0,0.0,0.0,0.0,-7.4502,0.0,0.0,0.0,0.0,0.0,0.0,0.0,0.0,0.0,0.0,0.0,-7.4649,-7.5658,-7.6035,-7.6202,-7.6195,-7.6262,-7.6602,0.0,0.0,0.0,0.0,0.0,0.0,0.0,0.0,0.0,0.0,0.0,0.0,0.0,0.0,-7.2941,-7.1527,-7.1985,-7.2826,-7.3628,0.0,0.0,0.0,0.0,0.0,0.0,0.0,0.0,0.0,0.0,0.0,0.0,0.0,0.0,-7.18,0.0,-7.215,0.0,0.0,0.0,0.0,0.0,0.0,0.0,0.0,-7.2549,-7.2762,-7.3011,-7.2834,-7.262,0.0,-7.2044,-7.1582,0.0,0.0,0.0,0.0,0.0,0.0,0.0,0.0,-7.4224,-7.5105,-7.5513,-7.5642,-7.5529,-7.6329,-7.7164,-7.8059,-7.84,-7.8535,-7.8462,-7.8233,-7.7537,0.0,0.0,0.0,0.0,0.0,0.0,0.0,0.0,0.0,0.0,0.0,0.0,0.0,0.0,0.0,0.0,0.0,0.0,0.0,0.0,0.0,0.0,0.0,-7.5442,0.0,0.0,0.0,0.0,0.0,0.0,0.0,0.0,0.0,-7.4783,-7.5156,-7.5777,-7.6526,-7.6639,-7.6262,-7.5173,0.0,0.0,0.0,0.0,0.0,0.0,0.0,-7.7055,-7.74,-7.7661,-7.7808,-7.7722,-7.7131,-7.6627,-7.6541,0.0,0.0,-7.383,-7.3844,-7.4545,-7.5348,-7.5539,-7.5615,-7.5844,-7.6203,-7.6276,0.0,0.0,0.0,0.0,0.0,0.0,0.0,0.0,-7.222,-7.2013,0.0,-7.23,0.0,0.0,0.0,0.0,0.0,-7.2617,0.0,0.0,-7.3552,-7.3748,-7.335,-7.2643,-7.2643,-7.3317,-7.2264,-7.2156,-7.2938,-7.2394,0.0,0.0,0.0,0.0,0.0,0.0,-7.4346,-7.5299,-7.4894,-7.4364,-7.4088,-7.4861,-7.5756,-7.6651,-7.821,-7.9066,-7.9079,-7.8487,-7.8521,-7.9236,-7.7998,0.0,0.0,0.0,0.0,0.0,0.0,0.0,0.0,0.0,0.0,0.0,0.0,0.0,0.0,0.0,0.0,0.0,0.0,0.0,0.0,-7.5502,0.0,0.0,0.0,0.0,0.0,0.0,0.0,0.0,0.0,0.0,-7.514,-7.6171,-7.6806,-7.616,0.0,0.0,0.0,0.0,-7.8383,-7.5553,-7.6411,-7.7514,-7.7673,-7.8196,-7.8847,-7.9494,0.0,0.0,-8.0722,-8.0136,-7.9645,-7.987,-8.0617,-8.0403,-7.7226,-7.6864,-7.722,-7.8022,-7.8213,-7.787,-7.722,-7.7831,-7.787,-7.2184,0.0,0.0,0.0,0.0,-7.1976,-7.2326,-7.2846,-7.2846,-7.2816,-7.2715,-7.3002,0.0,0.0,0.0,0.0,0.0,0.0,-7.2796,-7.3217,-7.334,-7.3537,-7.3815,-7.3569,-7.3604,-7.3818,-7.3473,-7.3444,-7.3696,-7.3522,-7.3333,-7.3193,0.0,0.0,0.0,0.0,-7.4544,-7.4936,-7.4444,-7.4128,-7.401,-7.4786,-7.5857,-7.7266,-7.8155,-7.8738,-7.9091,-7.8915,-7.8951,-7.9273,-7.8931,0.0,0.0,0.0,0.0,0.0,0.0,0.0,0.0,0.0,0.0,0.0,0.0,0.0,0.0,0.0,0.0,0.0,0.0,0.0,-7.7225,-7.7477,-7.7212,0.0,0.0,0.0,0.0,0.0,0.0,0.0,0.0,0.0,-7.8995,-7.8383,-7.8164,0.0,0.0,-7.7041,-7.5594,-7.684,-7.8003,-7.8157,-7.8214,0.0,0.0,-7.9887,-7.9592,-8.0379,-8.1047,-8.1468,-8.1506,-8.1339,-8.1283,-8.133,-8.1897,-8.1984,-8.1205,-8.106,-8.127,-8.1499,-8.1576,-8.1499,-8.127,-8.1423,-8.1385,-7.3223,-7.2882,-7.2395,-7.2361,-7.2533,-7.2533,-7.2879,-7.3466,-7.3428,-7.3329,-7.3123,-7.3479,-7.3209,-7.2512,-7.2727,0.0,0.0,0.0,-7.3142,-7.3655,-7.3505,-7.367,-7.3975,-7.401,-7.401,-7.401,-7.401,-7.401,-7.401,-7.3815,-7.3854,-7.4078,0.0,0.0,-7.4639,-7.433,-7.4332,-7.4711,-7.4248,-7.401,-7.401,-7.5119,-7.6359,-7.762,-7.8319,-7.8827,-7.9091,-7.9417,-7.9804,-8.0192,-8.0265,-8.0136,0.0,0.0,0.0,0.0,0.0,0.0,0.0,0.0,0.0,0.0,0.0,-7.4939,-7.4379,0.0,0.0,0.0,-7.7061,-7.7855,-7.9177,-7.8663,0.0,0.0,0.0,0.0,0.0,0.0,0.0,-7.8268,-7.9683,-8.0684,-8.0684,-8.0188,-7.9894,-8.0083,-7.9237,-7.811,-7.6684,0.0,-7.9569,-7.9538,-7.9743,-8.0356,-8.1688,-8.1387,-8.1236,-8.2018,-8.246,-8.2699,-8.2699,-8.2711,-8.2811,-8.2958,-8.3263,-8.3552,-8.3697,-8.3844,-8.3715,-8.3142,-8.299,-8.299,-8.299,-8.299,-8.299,-7.4185,-7.4084,-7.2987,-7.2816,-7.3156,-7.3156,-7.3463,-7.3975,-7.401,-7.3706,-7.3226,-7.3772,-7.3511,-7.2653,-7.2798,0.0,-7.3456,-7.3421,-7.3655,-7.401,-7.401,-7.401,-7.401,-7.401,-7.401,-7.401,-7.401,-7.401,-7.3975,-7.362,-7.381,-7.452,-7.3962,-7.383,-7.4226,-7.3902,-7.3999,-7.4517,-7.4206,-7.4049,-7.4276,-7.5898,-7.7175,-7.8014,-7.8835,-7.9304,-7.9341,-8.0055,-8.0881,-8.1632,-8.1796,-8.1884,-8.1833,0.0,0.0,0.0,0.0,0.0,0.0,0.0,0.0,0.0,0.0,0.0,0.0,0.0,0.0,0.0,-7.9665,0.0,-8.0835,-7.9532,0.0,0.0,0.0,-7.8859,-7.9538,-7.9703,-7.9755,-7.9703,0.0,0.0,-8.0872,-8.1589,-8.1815,-8.1051,-8.0752,-7.9872,-7.7757,-8.0599,-8.2197,-8.0184,-8.1113,-8.2131,-8.2295,-8.2673,-8.3138,-8.3787,-8.411,-8.3998,-8.3998,-8.3998,-8.4165,-8.4292,-8.4609,-8.4863,-8.516,-8.5276,-8.5015,-8.3524,-8.3257,-8.3257,-8.3295,-8.3333,-8.3372,-7.573,-7.573,-7.5464,-7.4725,-7.3807,-7.3807,-7.3874,-7.401,-7.401,-7.3944,-7.3807,-7.3944,-7.3878,-7.3681,-7.372,-7.3787,-7.3885,-7.3846,-7.3913,-7.401,-7.401,-7.401,-7.401,-7.401,-7.401,-7.401,-7.401,-7.401,-7.401,-7.3878,-7.3956,-7.4132,-7.3994,-7.412,-7.4498,-7.4501,-7.4419,-7.4132,-7.4049,-7.4688,-7.6122,-7.7577,-7.8851,-7.99,-8.0608,-8.0994,-8.0994,-8.1219,-8.1707,-8.2496,-8.2559,-8.261,-8.2711,-8.1089,0.0,0.0,0.0,0.0,0.0,0.0,0.0,0.0,0.0,-7.7398,-7.6445,0.0,-7.9471,0.0,-8.1188,-8.2234,-8.2423,-8.1606,0.0,0.0,-8.0368,-8.024,-8.042,-8.1455,-8.1982,-8.1476,-8.2044,-8.246,-8.246,-8.2649,-8.2887,-8.32,-8.2347,-8.1438,-8.0957,-8.1982,-8.2849,-8.2322,-8.2912,-8.3576,-8.3576,-8.3738,-8.3874,-8.4073,-8.411,-8.411,-8.411,-8.411,-8.4229,-8.4599,-8.4741,-8.4946,-8.5349,-8.5471,-8.5377,-8.5015,-8.49,-8.49,-8.49,-8.49,-8.49,-7.6292,-7.6292,-7.6292,-7.58,-7.5028,-7.5028,-7.5028,-7.5028,-7.5028,-7.5028,-7.5028,-7.5028,-7.5028,-7.5028,-7.5028,-7.5028,-7.5028,-7.5028,-7.5028,-7.5028,-7.5028,-7.5028,-7.5028,-7.5028,-7.5028,-7.5028,-7.5028,-7.5028,-7.5028,-7.5028,-7.5028,-7.5028,-7.5028,-7.5147,-7.5348,-7.5077,-7.5137,-7.552,-7.5204,-7.5758,-7.7164,-7.8296,-7.9255,-7.9994,-8.0724,-8.1006,-8.0679,-8.1018,-8.137,-8.1859,-8.226,-8.2473,-8.251,-8.1085,-7.9894,0.0,0.0,0.0,0.0,0.0,0.0,0.0,0.0,0.0,0.0,0.0,-8.0725,-8.0725,-8.212,-8.2887,-8.2585,-8.2171,-8.1832,-8.1743,-8.1743,-8.1832,-8.2197,-8.2987,-8.3338,-8.2962,-8.3251,-8.35,-8.35,-8.35,-8.3625,-8.4061,-8.3413,-8.295,-8.2962,-8.3288,-8.35,-8.35,-8.3824,-8.411,-8.411,-8.411,-8.411,-8.411,-8.411,-8.411,-8.411,-8.4177,-8.4368,-8.4717,-8.4878,-8.5094,-8.5431,-8.5511,-8.5511,-8.5511,-8.5511,-8.5511,-8.5511,-8.5511,-8.5511,-7.6608,-7.6608,-7.6608,-7.6573,-7.6573,-7.6608,-7.6468,-7.6292,-7.6292,-7.6292,-7.6292,-7.6292,-7.6292,-7.6292,-7.6292,-7.6292,-7.6292,-7.6292,-7.6292,-7.6292,-7.6292,-7.6292,-7.6292,-7.6292,-7.6292,-7.6292,-7.6292,-7.6362,-7.6432,-7.6432,-7.6503,-7.6573,-7.6573,-7.6678,-7.6854,-7.5976,-7.6157,-7.7322,-7.6835,-7.704,-7.799,-7.8797,-7.938,-7.9707,-8.0329,-8.04,-7.9877,-8.0519,-8.0872,-8.0872,-8.1589,-8.2042,-8.2117,-8.0763,-8.0001,0.0,-7.8614,0.0,0.0,0.0,0.0,0.0,0.0,0.0,0.0,-8.15,-8.2042,-8.2155,-8.2636,-8.2799,-8.2295,-8.2282,-8.2497,-8.305,-8.3138,-8.3413,-8.4024,-8.411,-8.411,-8.411,-8.411,-8.411,-8.4073,-8.411,-8.411,-8.411,-8.4035,-8.3986,-8.4073,-8.4061,-8.4035,-8.411,-8.411,-8.411,-8.411,-8.411,-8.411,-8.411,-8.4125,-8.4125,-8.4151,-8.4318,-8.4551,-8.481,-8.5051,-8.5245,-8.5471,-8.5511,-8.5511,-8.5511,-8.5511,-8.5511,-8.5511,-8.5511,-8.5511,-7.8153,-7.8153,-7.8153,-7.8153,-7.8153,-7.8153,-7.7451,-7.6292,-7.6292,-7.6292,-7.6292,-7.6292,-7.6292,-7.6292,-7.6292,-7.6292,-7.6292,-7.6292,-7.6292,-7.6292,-7.6292,-7.6292,-7.6292,-7.6292,-7.6292,-7.6292,-7.6292,-7.6608,-7.7205,-7.7205,-7.7521,-7.8118,-7.8153,-7.8785,-7.9908,0.0,0.0,0.0,-7.7571,-7.8479,-7.964,-8.0369,-8.1044,-8.1699,-8.1746,0.0,-8.1538,-8.1688,-8.174,-8.1764,-8.1915,0.0,0.0,0.0,0.0,0.0,0.0,0.0,0.0,0.0,0.0,0.0,-8.1538,-8.1335,-8.0759,-8.1476,-8.2244,-8.2762,-8.2925,-8.3175,-8.3663,-8.37,-8.3738,-8.3862,-8.39,-8.3949,-8.4073,-8.411,-8.411,-8.411,-8.411,-8.411,-8.411,-8.411,-8.411,-8.411,-8.411,-8.411,-8.411,-8.411,-8.411,-8.411,-8.411,-8.411,-8.411,-8.411,-8.411,-8.4136,-8.4242,-8.4343,-8.4356,-8.4551,-8.481,-8.5051,-8.5176,-8.5245,-8.5471,-8.5511,-8.5511,-8.5511,-8.5511,-8.5511,-8.5511,-8.5511,-8.5511,-7.8574,0.0,-7.8574,-7.8574,0.0,-7.8574,-7.8153,-7.7415,-7.7415,-7.7415,-7.7415,-7.7415,-7.7415,-7.7415,-7.7415,-7.7415,-7.7415,-7.7451,-7.7415,-7.7415,-7.7415,-7.7415,-7.7451,-7.7837,-7.8012,-7.8047,-7.8399,-7.8785,-7.9136,-7.9136,-7.9346,-7.9733,-7.9733,-8.0119,-8.0856,-7.9768,-7.8823,-7.8027,-7.85,-7.9492,-8.0987,-8.1411,-8.1941,-8.2601,0.0,0.0,0.0,0.0,0.0,0.0,0.0,0.0,0.0,0.0,0.0,-8.1894,-8.1527,-8.149,-8.1794,-8.1832,-8.2184,-8.2962,-8.3038,-8.2686,-8.1907,-8.2573,-8.3163,-8.35,-8.3538,-8.37,-8.4035,-8.411,-8.411,-8.411,-8.411,-8.411,-8.411,-8.411,-8.411,-8.411,-8.411,-8.411,-8.411,-8.411,-8.411,-8.411,-8.411,-8.411,-8.411,-8.411,-8.411,-8.411,-8.411,-8.411,-8.411,-8.411,-8.4151,-8.4217,-8.4331,-8.4454,-8.4575,-8.481,-8.5051,-8.516,-8.5266,-8.5391,-8.5471,-8.5511,-8.5511,-8.5511,-8.5511,-8.532,-8.5053,-8.5206,-8.5511,-7.8574,-7.8574,-7.8574,-7.8574,-7.8574,-7.8574,-7.8574,-7.8574,0.0,0.0,0.0,-7.8574,-7.8574,-7.8574,-7.8574,-7.8574,-7.8574,-7.8574,-7.8574,-7.8609,-7.875,-7.882,-7.8855,-7.9592,-7.9978,-8.0014,-8.061,-8.0997,-8.1137,-8.1102,-8.1207,-8.1313,-8.1313,-8.1242,-8.1102,-8.0683,-8.0205,-7.9688,-7.9431,-8.0254,-8.2035,-8.2017,-8.2327,-8.2987,-8.2887,-8.2547,-8.2004,-8.2028,-8.2028,-8.2028,-8.2028,-8.2042,-8.2168,-8.2168,-8.2244,-8.237,-8.237,-8.2585,-8.3138,-8.3213,-8.3463,-8.4073,-8.411,-8.3862,-8.3213,-8.3749,-8.411,-8.411,-8.411,-8.411,-8.411,-8.411,-8.411,-8.411,-8.411,-8.411,-8.411,-8.411,-8.411,-8.411,-8.411,-8.411,-8.411,-8.411,-8.411,-8.411,-8.411,-8.411,-8.411,-8.411,-8.411,-8.411,-8.411,-8.4136,-8.4151,-8.4177,-8.4217,-8.443,-8.4527,-8.4623,-8.4833,-8.5094,-8.5262,-8.5245,-8.5391,-8.5491,-8.5511,-8.5511,-8.5511,-8.5511,-8.5511,-8.532,-8.4785,-8.5053,-8.5358,-7.8574,-7.8574,-7.8574,-7.8574,-7.8574,-7.8574,-7.8574,-7.8574,-7.8574,-7.8574,-7.8574,-7.8574,-7.8574,-7.8574,-7.8574,-7.8574,-7.8574,-7.8574,-7.8574,-7.8609,-7.9276,-7.9627,-7.9662,-8.04,-8.0786,-8.0786,-8.0856,-8.1277,-8.1874,-8.1909,-8.2225,-8.2787,-8.2892,-8.2541,-8.2032,-8.2637,-8.2464,-8.1337,-8.0424,-8.0804,-8.2455,-8.2066,-8.2212,-8.2924,-8.2459,-8.2117,-8.2028,-8.2028,-8.2028,-8.2028,-8.2028,-8.2257,-8.2837,-8.2849,-8.3163,-8.3738,-8.3787,-8.3862,-8.3949,-8.3949,-8.3986,-8.4073,-8.411,-8.4035,-8.3949,-8.4035,-8.411,-8.411,-8.411,-8.411,-8.411,-8.411,-8.411,-8.411,-8.411,-8.411,-8.411,-8.411,-8.411,-8.411,-8.411,-8.411,-8.411,-8.411,-8.411,-8.411,-8.411,-8.411,-8.411,-8.411,-8.411,-8.411,-8.411,-8.4177,-8.4268,-8.4356,-8.443,-8.4717,-8.4916,-8.5028,-8.5094,-8.5287,-8.5431,-8.5451,-8.5471,-8.5511,-8.5511,-8.5511,-8.5511,-8.5511,-8.5511,-8.5435,-8.5167,-8.5282,-8.5015,-7.8574,-7.8574,-7.8574,-7.8574,-7.8574,-7.8574,-7.8574,-7.8574,-7.8574,-7.8574,-7.8574,-7.8574,-7.8574,-7.8574,-7.8574,-7.8574,-7.8609,-7.903,-7.9241,-7.9311,-8.0049,-8.04,-8.047,-8.1172,-8.1558,-8.1558,-8.198,-8.2331,-8.2682,-8.2682,-8.2892,-8.3173,-8.3208,-8.3033,-8.277,-8.3264,-8.334,-8.2967,-8.2215,-8.2175,-8.295,-8.2726,-8.2949,-8.3587,-8.3288,-8.3125,-8.3125,-8.3125,-8.3125,-8.3125,-8.3125,-8.3288,-8.3576,-8.3587,-8.3749,-8.4073,-8.411,-8.411,-8.411,-8.411,-8.411,-8.411,-8.411,-8.411,-8.411,-8.411,-8.411,-8.411,-8.411,-8.411,-8.411,-8.411,-8.411,-8.411,-8.411,-8.411,-8.411,-8.411,-8.411,-8.411,-8.411,-8.411,-8.411,-8.411,-8.411,-8.411,-8.411,-8.411,-8.411,-8.411,-8.411,-8.411,-8.411,-8.4125,-8.4217,-8.4217,-8.4343,-8.4551,-8.481,-8.5028,-8.5138,-8.537,-8.5491,-8.5511,-8.5511,-8.5511,-8.5511,-8.5511,-8.5511,-8.5511,-8.5511,-8.5397,-8.4976,-8.4518,-8.4174,-7.8574,-7.8574,-7.8574,-7.8574,-7.8574,-7.8574,-7.8574,-7.8574,-7.8574,-7.8574,-7.8574,-7.8574,-7.8574,-7.8574,-7.8574,-7.8679,-7.8925,-7.9522,-7.9873,-8.0119,-8.0821,-8.1172,-8.1277,-8.198,-8.2331,-8.2401,-8.2928,-8.3208,-8.3208,-8.3208,-8.3208,-8.3208,-8.3208,-8.3306,-8.3576,-8.3915,-8.4268,-8.4573,-8.4165,-8.3837,-8.3608,-8.3413,-8.3564,-8.4084,-8.411,-8.411,-8.411,-8.411,-8.411,-8.411,-8.411,-8.411,-8.411,-8.411,-8.411,-8.411,-8.411,-8.411,-8.411,-8.411,-8.411,-8.411,-8.411,-8.411,-8.411,-8.411,-8.411,-8.411,-8.411,-8.411,-8.411,-8.411,-8.411,-8.411,-8.411,-8.411,-8.411,-8.411,-8.411,-8.411,-8.411,-8.411,-8.411,-8.411,-8.411,-8.411,-8.411,-8.411,-8.411,-8.411,-8.411,-8.411,-8.411,-8.4177,-8.4229,-8.4305,-8.4418,-8.4561,-8.4856,-8.5056,-8.5266,-8.5411,-8.5491,-8.5511,-8.5511,-8.5511,-8.5511,-8.5511,-8.5511,-8.5511,-8.5511,-8.532,-8.4824,-8.4289,-8.3792,-7.8574,-7.8574,-7.8574,-7.8574,-7.8574,-7.8574,-7.8574,-7.8574,-7.8574,-7.8574,-7.8574,-7.8574,-7.8609,-7.8574,-7.8609,-7.8995,-7.9627,-7.9768,-8.0189,-8.0856,-8.1629,-8.198,-8.205,-8.2717,-8.3103,-8.3068,-8.3173,-8.3208,-8.3208,-8.3208,-8.3208,-8.3208,-8.3208,-8.3705,-8.4523,-8.5399,-8.5947,-8.6084,-8.6138,-8.5648,-8.4485,-8.3711,-8.3536,-8.411,-8.411,-8.411,-8.411,-8.411,-8.411,-8.411,-8.411,-8.411,-8.411,-8.411,-8.411,-8.411,-8.411,-8.411,-8.411,-8.411,-8.411,-8.411,-8.411,-8.411,-8.411,-8.411,-8.411,-8.411,-8.411,-8.411,-8.411,-8.411,-8.411,-8.411,-8.411,-8.411,-8.411,-8.411,-8.411,-8.411,-8.411,-8.411,-8.411,-8.411,-8.411,-8.411,-8.411,-8.411,-8.411,-8.4136,-8.4125,-8.4136,-8.4136,-8.4305,-8.4589,-8.4755,-8.481,-8.5207,-8.5352,-8.5391,-8.5411,-8.5451,-8.5511,-8.5511,-8.5511,-8.5511,-8.5511,-8.5511,-8.5511,-8.5511,-8.5511,-8.5473,-8.5397,-8.5206,-8.4824,-7.8574,-7.8574,-7.8574,-7.8574,-7.8574,-7.8574,-7.8574,-7.8574,-7.8574,-7.8574,-7.8644,-7.9066,-7.9276,-7.9276,-7.9311,-7.9733,-8.047,-8.0926,-8.1313,-8.1664,-8.2401,-8.2752,-8.2787,-8.3033,-8.3208,-8.3208,-8.3208,-8.3208,-8.3208,-8.3208,-8.3341,-8.3603,-8.3646,-8.4094,-8.5045,-8.6028,-8.6691,-8.7053,-8.7208,-8.7032,-8.6341,-8.4703,-8.3886,-8.4084,-8.411,-8.411,-8.411,-8.411,-8.411,-8.411,-8.411,-8.411,-8.411,-8.411,-8.411,-8.411,-8.411,-8.411,-8.411,-8.411,-8.411,-8.411,-8.411,-8.411,-8.411,-8.411,-8.411,-8.411,-8.411,-8.411,-8.411,-8.411,-8.411,-8.411,-8.411,-8.411,-8.411,-8.411,-8.411,-8.411,-8.411,-8.411,-8.411,-8.411,-8.411,-8.411,-8.411,-8.411,-8.411,-8.4203,-8.4268,-8.4318,-8.4418,-8.4516,-8.4623,-8.4717,-8.4878,-8.5056,-8.5245,-8.5308,-8.5349,-8.5451,-8.5511,-8.5511,-8.5511,-8.5511,-8.5511,-8.5511,-8.5511,-8.5511,-8.5511,-8.5511,-8.5511,-8.5511,-8.515,-7.8574,-7.8574,-7.8574,-7.8574,-7.8574,-7.8574,-7.8574,-7.8574,-7.8574,-7.8715,-7.896,-7.9522,-8.0049,-8.0365,-8.0189,-8.0505,-8.1242,-8.1839,-8.219,-8.2436,-8.2963,-8.3208,-8.3208,-8.3208,-8.3208,-8.3208,-8.3208,-8.3208,-8.3208,-8.3341,-8.3524,-8.3869,-8.3996,-8.4595,-8.5695,-8.646,-8.7217,-8.7917,-8.7913,-8.7828,-8.7527,-8.58,-8.4673,-8.4448,-8.4223,-8.411,-8.411,-8.411,-8.411,-8.411,-8.411,-8.411,-8.411,-8.411,-8.411,-8.411,-8.411,-8.411,-8.411,-8.411,-8.411,-8.411,-8.411,-8.411,-8.411,-8.411,-8.411,-8.411,-8.411,-8.411,-8.411,-8.411,-8.411,-8.411,-8.411,-8.411,-8.411,-8.411,-8.411,-8.411,-8.411,-8.411,-8.411,-8.411,-8.411,-8.411,-8.411,-8.4125,-8.4203,-8.4318,-8.443,-8.4503,-8.4741,-8.481,-8.467,-8.4787,-8.4916,-8.5013,-8.5224,-8.5308,-8.5304,-8.5431,-8.5511,-8.5511,-8.5511,-8.5511,-8.5511,-8.5511,-8.5511,-8.5511,-8.5511,-8.5511,-8.5511,-8.5511,-8.5647,-7.8574,-7.8574,-7.8574,-7.8574,-7.8574,-7.8574,-7.8574,-7.8574,-7.8574,-7.8995,-7.9627,-7.9803,-8.061,-8.1804,-8.1207,-8.1313,-8.198,-8.212,-8.2506,-8.3068,-8.3173,-8.3208,-8.3208,-8.3208,-8.3208,-8.3208,-8.3208,-8.3208,-8.3253,-8.3646,-8.3904,-8.3911,-8.4296,-8.5195,-8.6496,-8.6777,-8.7512,-8.8653,-8.8185,-8.7865,-8.7752,-8.6889,-8.5988,-8.5349,-8.4561,-8.4223,-8.4148,-8.411,-8.411,-8.411,-8.411,-8.411,-8.411,-8.411,-8.411,-8.411,-8.411,-8.411,-8.411,-8.411,-8.411,-8.411,-8.411,-8.411,-8.411,-8.411,-8.411,-8.411,-8.411,-8.411,-8.411,-8.411,-8.411,-8.411,-8.411,-8.411,-8.411,-8.411,-8.411,-8.411,-8.411,-8.411,-8.411,-8.411,-8.4136,-8.4136,-8.4136,-8.4177,-8.4356,-8.443,-8.4551,-8.4764,-8.5006,-8.5198,-8.5176,-8.5138,-8.5245,-8.5329,-8.537,-8.5471,-8.5491,-8.5511,-8.5511,-8.5511,-8.5511,-8.5511,-8.5511,-8.5511,-8.5511,-8.5511,-8.5511,-8.5511,-8.5511,-8.5511,-8.5685,-7.8574,-7.8574,-7.8574,-7.8574,-7.8574,-7.8574,-7.8574,-7.8574,-7.8574,-7.903,-7.9803,-8.0294,-8.1102,-8.2085,-8.2296,-8.2541,-8.2787,-8.2822,-8.2963,-8.3208,-8.3208,-8.3208,-8.3208,-8.3208,-8.3208,-8.3208,-8.3208,-8.3385,-8.3646,-8.3819,-8.42,-8.4661,-8.4864,-8.5728,-8.6951,-8.7188,-8.7773,-8.8842,-8.8691,-8.8579,-8.8466,-8.7752,-8.7189,-8.6889,-8.61,-8.5387,-8.4861,-8.4861,-8.4636,-8.4148,-8.411,-8.411,-8.411,-8.411,-8.411,-8.411,-8.411,-8.411,-8.411,-8.411,-8.411,-8.411,-8.411,-8.411,-8.411,-8.411,-8.411,-8.411,-8.411,-8.411,-8.411,-8.411,-8.411,-8.411,-8.411,-8.4148,-8.411,-8.411,-8.411,-8.411,-8.411,-8.411,-8.4148,-8.411,-8.4151,-8.4268,-8.4293,-8.4418,-8.4623,-8.4787,-8.4939,-8.5051,-8.5245,-8.5391,-8.5391,-8.5391,-8.5431,-8.5451,-8.5491,-8.5491,-8.5511,-8.5511,-8.5511,-8.5511,-8.5511,-8.5511,-8.5511,-8.5511,-8.5511,-8.5511,-8.5511,-8.5511,-8.5511,-8.5511,-8.5759,-7.8574,-7.8574,-7.8574,-7.8574,-7.8574,-7.8574,-7.8574,-7.8609,-7.8855,-7.9417,-8.0189,-8.0961,-8.1734,-8.2436,-8.2998,-8.3208,-8.3208,-8.3208,-8.3208,-8.3208,-8.3208,-8.3208,-8.3208,-8.3208,-8.3208,-8.3208,-8.3208,-8.3429,-8.3861,-8.3869,-8.4332,-8.5139,-8.5218,-8.5916,-8.7154,-8.7386,-8.7935,-8.8785,-8.8992,-8.8992,-8.8917,-8.8466,-8.8203,-8.809,-8.7602,-8.6776,-8.5762,-8.5687,-8.5312,-8.4636,-8.4486,-8.4373,-8.4148,-8.411,-8.411,-8.411,-8.411,-8.411,-8.411,-8.411,-8.411,-8.411,-8.411,-8.411,-8.411,-8.4335,-8.4448,-8.4523,-8.4749,-8.4861,-8.4861,-8.4899,-8.4786,-8.4561,-8.4486,-8.4598,-8.4824,-8.4899,-8.4936,-8.4936,-8.4711,-8.4561,-8.4475,-8.4327,-8.428,-8.4405,-8.4479,-8.4647,-8.4878,-8.5073,-8.5262,-8.5266,-8.5391,-8.5471,-8.5471,-8.5471,-8.5471,-8.5491,-8.5511,-8.5511,-8.5511,-8.5511,-8.5511,-8.5511,-8.5511,-8.5511,-8.5511,-8.5511,-8.5511,-8.5511,-8.5511,-8.5511,-8.5511,-8.5511,-8.5795,-7.8574,-7.8574,-7.8574,-7.8574,-7.8574,-7.8574,-7.8574,-7.8715,-7.9382,-8.0084,-8.0821,-8.1664,-8.2366,-8.3068,-8.3173,-8.3208,-8.3208,-8.3208,-8.3208,-8.3208,-8.3208,-8.3208,-8.3208,-8.3208,-8.3208,-8.3208,-8.3208,-8.3437,-8.3911,-8.4039,-8.4456,-8.51,-8.5258,-8.6026,-8.7386,-8.7419,-8.7935,-8.8757,-8.8992,-8.8992,-8.8992,-8.8917,-8.8879,-8.8917,-8.8841,-8.809,-8.6664,-8.6551,-8.6138,-8.5424,-8.5237,-8.4899,-8.4335,-8.4298,-8.4185,-8.4223,-8.4185,-8.4185,-8.4185,-8.426,-8.4373,-8.4373,-8.426,-8.4373,-8.4523,-8.4936,-8.5312,-8.5424,-8.5875,-8.6326,-8.6288,-8.6251,-8.6025,-8.5462,-8.5312,-8.5575,-8.6138,-8.6401,-8.6438,-8.6251,-8.5725,-8.5349,-8.5215,-8.4995,-8.4795,-8.4819,-8.4973,-8.5182,-8.5366,-8.5431,-8.5401,-8.5431,-8.5491,-8.5511,-8.5511,-8.5511,-8.5511,-8.5511,-8.5511,-8.5511,-8.5511,-8.5511,-8.5511,-8.5511,-8.5511,-8.5511,-8.5511,-8.5511,-8.5511,-8.5511,-8.5511,-8.5511,-8.5511,-8.557,-8.5813,-7.8574,-7.8574,-7.8574,-7.8574,-7.8574,-7.8574,-7.8574,-7.8679,-7.9452,-8.0224,-8.0961,-8.1734,-8.2506,-8.3068,-8.3208,-8.3208,-8.3208,-8.3208,-8.3208,-8.3208,-8.3208,-8.3208,-8.3208,-8.3208,-8.3208,-8.3253,-8.3559,-8.3911,-8.4332,-8.462,-8.51,-8.5606,-8.5682,-8.6247,-8.7321,-8.7419,-8.7935,-8.8842,-8.8992,-8.8992,-8.8992,-8.8992,-8.8992,-8.8992,-8.8992,-8.8691,-8.8241,-8.7677,-8.7001,-8.6138,-8.5612,-8.5199,-8.5049,-8.5462,-8.55,-8.5086,-8.5462,-8.5462,-8.5086,-8.5424,-8.5687,-8.5725,-8.5725,-8.5762,-8.5762,-8.595,-8.6138,-8.6138,-8.6363,-8.6476,-8.6476,-8.6476,-8.6438,-8.6175,-8.6138,-8.6213,-8.6588,-8.6588,-8.6476,-8.6476,-8.6288,-8.6138,-8.6154,-8.5988,-8.6065,-8.6236,-8.651,-8.6622,-8.6358,-8.6247,-8.5983,-8.5644,-8.5626,-8.5664,-8.5702,-8.5741,-8.5664,-8.5588,-8.5511,-8.5511,-8.5511,-8.5511,-8.5511,-8.5511,-8.5511,-8.5511,-8.5511,-8.5511,-8.5511,-8.5511,-8.5511,-8.5511,-8.5511,-8.5628,-8.5867,-7.8574,-7.8574,-7.8574,-7.8574,-7.8574,-7.8574,-7.8785,-7.9136,-7.9873,-8.061,-8.1418,-8.2155,-8.2752,-8.3138,-8.3208,-8.3208,-8.3208,-8.3208,-8.3208,-8.3208,-8.3208,-8.3208,-8.3208,-8.3208,-8.3341,-8.3516,-8.3776,-8.4207,-8.4742,-8.4904,-8.5222,-8.5759,-8.5721,-8.6211,-8.7254,-8.7419,-8.7935,-8.8814,-8.8992,-8.8992,-8.8992,-8.8992,-8.8992,-8.8992,-8.8992,-8.8841,-8.8579,-8.8053,-8.7415,-8.6476,-8.5462,-8.4899,-8.4899,-8.5274,-8.5387,-8.5162,-8.5537,-8.58,-8.5462,-8.5988,-8.6476,-8.6476,-8.6476,-8.6476,-8.6551,-8.6701,-8.6964,-8.6964,-8.7302,-8.7415,-8.7452,-8.7452,-8.7415,-8.7415,-8.7152,-8.7152,-8.7302,-8.7415,-8.7452,-8.7452,-8.7227,-8.7039,-8.7018,-8.6828,-8.7034,-8.7279,-8.7536,-8.7704,-8.734,-8.7287,-8.6849,-8.6581,-8.6734,-8.6581,-8.6123,-8.597,-8.5855,-8.5702,-8.5511,-8.5511,-8.5511,-8.5511,-8.5511,-8.5511,-8.5511,-8.5511,-8.5511,-8.5511,-8.5511,-8.5511,-8.5511,-8.5511,-8.5531,-8.5647,-8.5846,-7.8574,-7.8574,-7.8574,-7.8574,-7.8574,-7.8574,-7.8995,-7.9803,-8.054,-8.1277,-8.205,-8.2752,-8.3138,-8.3208,-8.3208,-8.3208,-8.3208,-8.3208,-8.3208,-8.3208,-8.3208,-8.3208,-8.3208,-8.3297,-8.3516,-8.3819,-8.3989,-8.4415,-8.5064,-8.4904,-8.5024,-8.5797,-8.5646,-8.599,-8.7188,-8.7419,-8.7997,-8.8842,-8.8992,-8.8992,-8.8992,-8.8992,-8.8992,-8.8992,-8.8879,-8.8541,-8.8015,-8.7602,-8.7152,-8.6326,-8.5124,-8.4561,-8.426,-8.4185,-8.4561,-8.4448,-8.4974,-8.5349,-8.55,-8.6063,-8.6476,-8.6476,-8.6476,-8.6476,-8.6551,-8.7039,-8.749,-8.764,-8.8203,-8.8691,-8.8766,-8.8766,-8.8804,-8.8841,-8.8203,-8.8166,-8.8804,-8.8879,-8.8691,-8.8691,-8.8316,-8.7865,-8.7828,-8.7468,-8.7449,-8.762,-8.7916,-8.8162,-8.8103,-8.8148,-8.811,-8.7918,-8.7613,-8.7384,-8.6925,-8.6849,-8.6772,-8.6619,-8.6275,-8.6008,-8.5702,-8.5588,-8.5511,-8.5511,-8.5664,-8.5626,-8.5511,-8.5511,-8.5511,-8.5511,-8.5511,-8.5511,-8.559,-8.5685,-8.5898,-7.8574,-7.8574,-7.8574,-7.8574,-7.8574,-7.8574,-7.9066,-7.9838,-8.061,-8.1418,-8.2155,-8.2857,-8.3208,-8.3208,-8.3208,-8.3208,-8.3208,-8.3208,-8.3208,-8.3208,-8.3208,-8.3208,-8.3297,-8.3559,-8.3819,-8.4032,-8.4533,-8.498,-8.5218,-8.5375,-8.5608,-8.5873,-8.61,-8.657,-8.7321,-8.7778,-8.8339,-8.8908,-8.8992,-8.8992,-8.8992,-8.8992,-8.8992,-8.8954,-8.8428,-8.8053,-8.7677,-8.6588,-8.5913,-8.5687,-8.5875,-8.5575,-8.5011,-8.5349,-8.5349,-8.5049,-8.5612,-8.5875,-8.5575,-8.6063,-8.6476,-8.6476,-8.6476,-8.6476,-8.6476,-8.6701,-8.7152,-8.7602,-8.8053,-8.8353,-8.8804,-8.8992,-8.8992,-8.8992,-8.8729,-8.8691,-8.8917,-8.8992,-8.8992,-8.8954,-8.8766,-8.8681,-8.8624,-8.8662,-8.8721,-8.8994,-8.9193,-8.9305,-8.9058,-8.8988,-8.895,-8.8339,-8.7995,-8.7918,-8.7842,-8.7766,-8.7727,-8.7689,-8.7307,-8.681,-8.6275,-8.5702,-8.5626,-8.5511,-8.597,-8.6084,-8.5741,-8.555,-8.555,-8.5817,-8.5664,-8.5702,-8.5647,-8.5704,-8.5967,-7.8574,-7.8574,-7.8574,-7.8574,-7.8644,-7.8925,-7.9522,-8.0294,-8.1067,-8.1839,-8.2541,-8.2998,-8.3208,-8.3208,-8.3208,-8.3208,-8.3208,-8.3208,-8.3208,-8.3208,-8.3208,-8.3297,-8.3516,-8.3783,-8.4039,-8.4456,-8.498,-8.5258,-8.5528,-8.5759,-8.5909,-8.5986,-8.6356,-8.6885,-8.7423,-8.7935,-8.8458,-8.8908,-8.8992,-8.8992,-8.8992,-8.8992,-8.8766,-8.8541,-8.7978,-8.7602,-8.6739,-8.55,-8.4936,-8.5237,-8.5424,-8.5274,-8.4899,-8.5199,-8.5274,-8.4824,-8.5537,-8.5762,-8.5575,-8.6063,-8.6476,-8.6476,-8.6476,-8.6476,-8.6476,-8.6513,-8.6814,-8.7152,-8.7264,-8.7677,-8.8353,-8.8766,-8.8954,-8.8992,-8.8992,-8.8992,-8.8992,-8.8992,-8.8992,-8.9019,-8.9102,-8.9184,-8.9184,-8.9423,-8.9642,-8.9873,-8.9923,-8.9936,-8.988,-8.9846,-8.9714,-8.9141,-8.8874,-8.895,-8.8759,-8.8606,-8.8377,-8.8339,-8.8262,-8.7766,-8.7269,-8.6505,-8.6467,-8.6543,-8.6581,-8.6543,-8.639,-8.6314,-8.6467,-8.6543,-8.6199,-8.5972,-8.5934,-8.6177,-8.639,-7.8574,-7.8574,-7.8574,-7.8574,-7.8715,-7.9452,-8.0154,-8.0961,-8.1664,-8.2436,-8.3033,-8.3173,-8.3208,-8.3208,-8.3208,-8.3208,-8.3208,-8.3208,-8.3208,-8.3208,-8.3297,-8.3559,-8.3911,-8.3996,-8.4415,-8.502,-8.5218,-8.5528,-8.5759,-8.5909,-8.5948,-8.6136,-8.65,-8.6988,-8.7586,-8.8059,-8.8517,-8.8908,-8.8992,-8.8992,-8.8917,-8.8804,-8.8466,-8.7978,-8.7415,-8.6588,-8.55,-8.4598,-8.4448,-8.5162,-8.4486,-8.426,-8.4148,-8.4148,-8.4148,-8.426,-8.4786,-8.5162,-8.5237,-8.5687,-8.6138,-8.6025,-8.61,-8.6251,-8.6063,-8.5988,-8.61,-8.6363,-8.6401,-8.6889,-8.7828,-8.8541,-8.8917,-8.8992,-8.8992,-8.8992,-8.8992,-8.8992,-8.8992,-8.9047,-8.9265,-8.9359,-8.9464,-8.9642,-8.9863,-9.0043,-9.0205,-9.0203,-9.0241,-9.0266,-9.0287,-9.0249,-9.0096,-9.0096,-8.9791,-8.9447,-8.9141,-8.8912,-8.895,-8.8721,-8.8568,-8.8071,-8.7957,-8.7842,-8.7422,-8.7422,-8.7613,-8.7575,-8.7536,-8.7307,-8.6963,-8.6681,-8.6484,-8.6923,-8.7241,-7.8574,-7.8574,-7.8574,-7.8574,-7.8715,-7.9452,-8.0224,-8.0961,-8.1769,-8.2541,-8.3068,-8.3208,-8.3208,-8.3208,-8.3208,-8.3208,-8.3208,-8.3208,-8.3208,-8.3253,-8.3603,-8.3954,-8.4296,-8.4379,-8.4702,-8.5218,-8.5606,-8.5797,-8.5909,-8.5947,-8.6099,-8.6464,-8.6885,-8.7521,-8.7997,-8.8458,-8.8842,-8.8992,-8.8992,-8.8954,-8.8766,-8.8391,-8.7978,-8.7565,-8.6513,-8.5424,-8.4598,-8.4185,-8.4185,-8.426,-8.4223,-8.411,-8.411,-8.411,-8.411,-8.4148,-8.4223,-8.4411,-8.4411,-8.4636,-8.4636,-8.4786,-8.4824,-8.4636,-8.4636,-8.4711,-8.5011,-8.5387,-8.5612,-8.6213,-8.7527,-8.8503,-8.8879,-8.8954,-8.8992,-8.8992,-8.8992,-8.8992,-8.9075,-8.9265,-8.9371,-8.9501,-8.9667,-8.9766,-8.9958,-9.0159,-9.0273,-9.0378,-9.0465,-9.061,-9.0631,-9.0631,-9.0555,-9.044,-9.0287,-9.002,-8.9829,-8.9561,-8.9561,-8.9561,-8.9447,-8.9141,-8.8835,-8.8453,-8.8033,-8.8224,-8.8606,-8.8377,-8.8224,-8.7995,-8.7786,-8.7657,-8.7609,-8.7924,-8.8007,-7.8574,-7.8574,-7.8574,-7.8574,-7.8785,-7.9803,-8.054,-8.1102,-8.2155,-8.2822,-8.3138,-8.3208,-8.3208,-8.3208,-8.3208,-8.3208,-8.3208,-8.3208,-8.3341,-8.3559,-8.3861,-8.4207,-8.4742,-8.4864,-8.5064,-8.5492,-8.5759,-8.5909,-8.5909,-8.5985,-8.6136,-8.6605,-8.712,-8.7614,-8.8219,-8.8728,-8.8964,-8.8992,-8.8992,-8.8841,-8.8391,-8.8053,-8.7227,-8.6626,-8.5424,-8.4486,-8.4148,-8.411,-8.411,-8.411,-8.411,-8.411,-8.411,-8.411,-8.411,-8.411,-8.411,-8.411,-8.411,-8.411,-8.4148,-8.411,-8.411,-8.411,-8.411,-8.411,-8.426,-8.4598,-8.4861,-8.5387,-8.7001,-8.794,-8.8466,-8.8954,-8.8992,-8.8992,-8.8992,-8.8992,-8.9102,-8.9333,-8.9489,-8.9716,-8.9863,-9.0006,-9.0182,-9.0422,-9.0443,-9.0487,-9.0508,-9.0631,-9.0631,-9.0631,-9.0631,-9.0593,-9.0593,-9.0517,-9.044,-9.0287,-9.0249,-9.0249,-9.0173,-8.9829,-8.9447,-8.9179,-8.9027,-8.9332,-8.96,-8.9256,-8.895,-8.8759,-8.8649,-8.8654,-8.8623,-8.8605,-8.8657,-7.8574,-7.8574,-7.8574,-7.8574,-7.882,-8.0224,-8.0891,-8.1137,-8.2541,-8.3138,-8.3208,-8.3208,-8.3208,-8.3208,-8.3208,-8.3208,-8.3208,-8.3341,-8.3559,-8.3819,-8.4158,-8.4538,-8.506,-8.5297,-8.5453,-8.5871,-8.5909,-8.5909,-8.5947,-8.5987,-8.6356,-8.6781,-8.7291,-8.7873,-8.8369,-8.8728,-8.8992,-8.8992,-8.8766,-8.8503,-8.7828,-8.749,-8.6513,-8.5349,-8.4673,-8.4223,-8.411,-8.411,-8.411,-8.411,-8.411,-8.411,-8.411,-8.411,-8.411,-8.411,-8.411,-8.411,-8.411,-8.411,-8.411,-8.411,-8.411,-8.411,-8.411,-8.411,-8.4148,-8.4298,-8.4561,-8.5274,-8.6401,-8.764,-8.8353,-8.8804,-8.8992,-8.9019,-8.9047,-8.9075,-8.92,-8.9438,-8.9716,-8.9958,-9.0205,-9.0362,-9.0508,-9.0631,-9.0631,-9.0631,-9.0631,-9.0631,-9.0631,-9.0631,-9.0631,-9.0631,-9.0631,-9.0631,-9.0631,-9.0631,-9.0631,-9.0631,-9.0631,-9.0326,-9.002,-9.0249,-9.0287,-9.0364,-9.0326,-9.0096,-8.9829,-8.96,-8.9529,-8.9592,-8.943,-8.9231,-8.9422,-7.8574,-7.8574,-7.8574,-7.8574,-7.882,-8.0259,-8.0926,-8.1172,-8.2577,-8.3173,-8.3208,-8.3208,-8.3208,-8.3208,-8.3208,-8.3208,-8.3253,-8.3516,-8.3783,-8.4081,-8.4497,-8.51,-8.5258,-8.5567,-8.5797,-8.5871,-8.5909,-8.5909,-8.6024,-8.6283,-8.6641,-8.7221,-8.7778,-8.8309,-8.8699,-8.8964,-8.8879,-8.8729,-8.8316,-8.7865,-8.7415,-8.6438,-8.5462,-8.4486,-8.4185,-8.411,-8.411,-8.411,-8.411,-8.411,-8.411,-8.411,-8.411,-8.411,-8.411,-8.411,-8.411,-8.411,-8.411,-8.411,-8.411,-8.411,-8.411,-8.411,-8.411,-8.411,-8.411,-8.4411,-8.5162,-8.6138,-8.6476,-8.7715,-8.8654,-8.8954,-8.9047,-8.9102,-8.9265,-8.9359,-8.9438,-8.9692,-8.9996,-9.0205,-9.04,-9.053,-9.0551,-9.0631,-9.0631,-9.0631,-9.0631,-9.0631,-9.0631,-9.0631,-9.0631,-9.0631,-9.0631,-9.0631,-9.0631,-9.0631,-9.0631,-9.0631,-9.0631,-9.0631,-9.0631,-9.0631,-9.0631,-9.0555,-9.0555,-9.0631,-9.0478,-9.0135,-9.0276,-9.0435,-9.0346,-9.025,-9.0442,-7.8574,-7.8574,-7.8574,-7.882,-7.9382,-8.04,-8.1172,-8.1664,-8.2717,-8.3208,-8.3208,-8.3208,-8.3208,-8.3208,-8.3208,-8.3208,-8.3341,-8.3689,-8.3996,-8.4332,-8.4864,-8.5336,-8.5492,-8.5797,-8.5871,-8.5909,-8.5909,-8.5909,-8.5985,-8.6356,-8.6919,-8.7386,-8.7935,-8.8458,-8.8758,-8.8541,-8.8428,-8.8241,-8.7602,-8.6926,-8.6513,-8.5274,-8.4486,-8.4223,-8.411,-8.411,-8.411,-8.411,-8.411,-8.411,-8.411,-8.411,-8.411,-8.411,-8.411,-8.411,-8.411,-8.411,-8.411,-8.411,-8.411,-8.411,-8.411,-8.411,-8.411,-8.411,-8.411,-8.4373,-8.5011,-8.6063,-8.6476,-8.7715,-8.8466,-8.8944,-8.9129,-8.9265,-8.9449,-8.9642,-8.9814,-8.9996,-9.0113,-9.0295,-9.0508,-9.0572,-9.0631,-9.0631,-9.0631,-9.0631,-9.0631,-9.0631,-9.0631,-9.0631,-9.0631,-9.0631,-9.0631,-9.0631,-9.0631,-9.0631,-9.0631,-9.0631,-9.0631,-9.0631,-9.0631,-9.0631,-9.0631,-9.0631,-9.0631,-9.0631,-9.0631,-9.0614,-9.0683,-9.078,-9.1137,-9.1344,-9.136,-7.8574,-7.8574,-7.8574,-7.9066,-7.9838,-8.061,-8.1348,-8.212,-8.2857,-8.3208,-8.3208,-8.3208,-8.3208,-8.3208,-8.3208,-8.3253,-8.3385,-8.3826,-8.429,-8.4702,-8.5179,-8.5567,-8.5797,-8.5909,-8.5909,-8.5909,-8.5909,-8.5948,-8.6173,-8.6607,-8.7053,-8.7614,-8.812,-8.8517,-8.8786,-8.8278,-8.794,-8.749,-8.6739,-8.5875,-8.5086,-8.4486,-8.411,-8.411,-8.411,-8.411,-8.411,-8.411,-8.411,-8.411,-8.411,-8.411,-8.411,-8.411,-8.411,-8.411,-8.411,-8.411,-8.411,-8.411,-8.411,-8.411,-8.411,-8.411,-8.411,-8.411,-8.411,-8.426,-8.5124,-8.5875,-8.6551,-8.7544,-8.8361,-8.8931,-8.9307,-8.9515,-8.9667,-8.9863,-9.0137,-9.0228,-9.0273,-9.0362,-9.0551,-9.0631,-9.0631,-9.0631,-9.0631,-9.0631,-9.0631,-9.0631,-9.0631,-9.0631,-9.0631,-9.0631,-9.0631,-9.0631,-9.0631,-9.0631,-9.0631,-9.0631,-9.0631,-9.0631,-9.0631,-9.0631,-9.0631,-9.0631,-9.0631,-9.0614,-9.0656,-9.0758,-9.0896,-9.1077,-9.1369,-9.1547,-9.1618,-7.8574,-7.8574,-7.8574,-7.903,-7.9873,-8.061,-8.1348,-8.219,-8.2928,-8.3208,-8.3208,-8.3208,-8.3208,-8.3208,-8.3253,-8.3472,-8.3783,-8.4249,-8.4661,-8.5024,-8.5528,-8.5759,-8.5909,-8.5909,-8.5909,-8.5947,-8.5947,-8.6173,-8.6536,-8.6985,-8.7517,-8.8028,-8.8517,-8.8898,-8.8701,-8.7978,-8.7828,-8.749,-8.6213,-8.5086,-8.4411,-8.4148,-8.411,-8.411,-8.411,-8.411,-8.411,-8.411,-8.411,-8.411,-8.411,-8.411,-8.411,-8.411,-8.411,-8.411,-8.411,-8.411,-8.411,-8.411,-8.411,-8.411,-8.411,-8.411,-8.411,-8.411,-8.411,-8.4148,-8.5387,-8.6251,-8.6755,-8.8119,-8.8979,-8.9374,-8.9541,-8.9814,-9.0006,-9.0113,-9.0317,-9.0443,-9.0443,-9.0487,-9.0631,-9.0631,-9.0631,-9.0631,-9.0631,-9.0631,-9.0631,-9.0631,-9.0631,-9.0631,-9.0631,-9.0631,-9.0631,-9.0631,-9.0631,-9.0631,-9.0631,-9.0631,-9.0631,-9.0631,-9.0631,-9.0631,-9.0631,-9.0593,-9.0593,-9.0635,-9.0737,-9.0877,-9.1044,-9.1313,-9.1561,-9.1722,-9.1849,-7.8574,-7.8574,-7.8574,-7.9311,-8.04,-8.0786,-8.1593,-8.2612,-8.3068,-8.3208,-8.3208,-8.3208,-8.3208,-8.3253,-8.3472,-8.3733,-8.3996,-8.4579,-8.4984,-8.5258,-8.5644,-8.5909,-8.5909,-8.5909,-8.5909,-8.5986,-8.6174,-8.6607,-8.7022,-8.7287,-8.7683,-8.8249,-8.8662,-8.8663,-8.8353,-8.749,-8.6851,-8.6175,-8.5274,-8.4486,-8.4185,-8.411,-8.411,-8.411,-8.411,-8.411,-8.411,-8.411,-8.411,-8.411,-8.411,-8.411,-8.411,-8.411,-8.411,-8.411,-8.411,-8.411,-8.411,-8.411,-8.411,-8.411,-8.411,-8.411,-8.411,-8.411,-8.411,-8.411,-8.5575,-8.6401,-8.6868,-8.8285,-8.9032,-8.9489,-8.9803,-9.002,-9.0228,-9.0362,-9.0487,-9.0551,-9.0631,-9.0631,-9.0631,-9.0631,-9.0631,-9.0631,-9.0631,-9.0631,-9.0631,-9.0631,-9.0631,-9.0631,-9.0631,-9.0631,-9.0631,-9.0631,-9.0631,-9.0631,-9.0631,-9.0631,-9.0631,-9.0631,-9.0631,-9.0631,-9.0631,-9.0593,-9.0593,-9.0717,-9.0838,-9.1026,-9.1198,-9.1469,-9.1708,-9.1885,-9.1994,-7.8574,-7.8574,-7.8574,-7.9487,-8.0891,-8.0926,-8.1804,-8.3103,-8.3208,-8.3208,-8.3208,-8.3208,-8.3208,-8.3297,-8.3611,-8.3911,-8.4123,-8.4859,-8.5218,-8.5489,-8.5682,-8.5871,-8.5909,-8.5909,-8.5986,-8.6062,-8.6356,-8.6953,-8.7386,-8.7678,-8.7935,-8.8361,-8.8485,-8.8363,-8.7715,-8.6776,-8.5913,-8.5086,-8.4523,-8.4185,-8.411,-8.411,-8.411,-8.411,-8.411,-8.411,-8.411,-8.411,-8.411,-8.411,-8.411,-8.411,-8.411,-8.411,-8.411,-8.411,-8.411,-8.411,-8.411,-8.411,-8.411,-8.411,-8.411,-8.411,-8.411,-8.411,-8.4298,-8.4448,-8.565,-8.6476,-8.7131,-8.8447,-8.9185,-8.9616,-8.9925,-9.0137,-9.0295,-9.0465,-9.053,-9.0572,-9.0631,-9.0631,-9.0631,-9.0631,-9.0631,-9.0631,-9.0631,-9.0631,-9.0631,-9.0631,-9.0631,-9.0631,-9.0631,-9.0631,-9.0631,-9.0631,-9.0631,-9.0631,-9.0631,-9.0631,-9.0631,-9.0631,-9.0631,-9.0631,-9.0631,-9.0631,-9.0593,-9.0759,-9.0934,-9.1112,-9.1329,-9.1571,-9.1773,-9.1994,-9.2099,-7.8574,-7.8574,-7.8574,-7.9487,-8.0926,-8.0926,-8.1804,-8.3173,-8.3208,-8.3208,-8.3208,-8.3208,-8.3208,-8.3341,-8.374,-8.4165,-8.4462,-8.4984,-8.5414,-8.5721,-8.5909,-8.5909,-8.5909,-8.5948,-8.6099,-8.6464,-8.6711,-8.7254,-8.7904,-8.812,-8.8458,-8.8833,-8.8298,-8.795,-8.7264,-8.6138,-8.5124,-8.4486,-8.4148,-8.411,-8.411,-8.411,-8.411,-8.411,-8.411,-8.411,-8.411,-8.411,-8.411,-8.411,-8.411,-8.411,-8.411,-8.411,-8.411,-8.411,-8.411,-8.411,-8.411,-8.411,-8.411,-8.411,-8.411,-8.411,-8.411,-8.411,-8.4411,-8.5049,-8.595,-8.6776,-8.7609,-8.8635,-8.9439,-8.9741,-9.0043,-9.0273,-9.0443,-9.0508,-9.061,-9.0631,-9.0631,-9.0631,-9.0631,-9.0631,-9.0631,-9.0631,-9.0631,-9.0631,-9.0631,-9.0631,-9.0631,-9.0631,-9.0631,-9.0631,-9.0631,-9.0631,-9.0631,-9.0631,-9.0631,-9.0631,-9.0631,-9.0631,-9.0631,-9.0631,-9.0631,-9.0631,-9.0635,-9.0779,-9.0971,-9.1176,-9.143,-9.1708,-9.1885,-9.2028,-9.2099,-7.8574,-7.8574,-7.8574,-7.9487,-8.0926,-8.0926,-8.1804,-8.3068,-8.3208,-8.3208,-8.3208,-8.3208,-8.3208,-8.3393,-8.3918,-8.4338,-8.4625,-8.5336,-8.5682,-8.5871,-8.5909,-8.5909,-8.5909,-8.5986,-8.6136,-8.6605,-8.6953,-8.7456,-8.812,-8.8458,-8.8354,-8.825,-8.7903,-8.7452,-8.6701,-8.5537,-8.4561,-8.426,-8.411,-8.411,-8.411,-8.411,-8.411,-8.411,-8.411,-8.411,-8.411,-8.411,-8.411,-8.411,-8.411,-8.411,-8.411,-8.411,-8.411,-8.411,-8.411,-8.411,-8.411,-8.411,-8.411,-8.411,-8.411,-8.411,-8.411,-8.411,-8.4523,-8.5237,-8.61,-8.6964,-8.7742,-8.8869,-8.9716,-8.9901,-9.0113,-9.04,-9.053,-9.061,-9.0631,-9.0631,-9.0631,-9.0631,-9.0631,-9.0631,-9.0631,-9.0631,-9.0631,-9.0631,-9.0631,-9.0631,-9.0631,-9.0631,-9.0631,-9.0631,-9.0631,-9.0631,-9.0631,-9.0631,-9.0631,-9.0631,-9.0631,-9.0631,-9.0631,-9.0631,-9.0635,-9.0717,-9.0778,-9.0819,-9.1026,-9.1275,-9.1561,-9.1897,-9.2017,-9.2099,-9.211,-7.8574,-7.8574,-7.8574,-7.9487,-8.0821,-8.0926,-8.1804,-8.3033,-8.3208,-8.3208,-8.3208,-8.3208,-8.3297,-8.3568,-8.4129,-8.4625,-8.4904,-8.5453,-8.5759,-8.5909,-8.5909,-8.5909,-8.5948,-8.6099,-8.6428,-8.685,-8.739,-8.7935,-8.8487,-8.8814,-8.8485,-8.7988,-8.749,-8.6889,-8.6025,-8.4899,-8.411,-8.411,-8.411,-8.411,-8.411,-8.411,-8.411,-8.411,-8.411,-8.411,-8.411,-8.411,-8.411,-8.411,-8.411,-8.411,-8.411,-8.411,-8.411,-8.411,-8.411,-8.411,-8.411,-8.411,-8.411,-8.411,-8.411,-8.411,-8.4148,-8.4298,-8.4936,-8.5687,-8.6438,-8.7227,-8.8043,-8.9069,-8.9667,-8.979,-9.0137,-9.04,-9.053,-9.0631,-9.0631,-9.0631,-9.0631,-9.0631,-9.0631,-9.0631,-9.0631,-9.0631,-9.0631,-9.0631,-9.0631,-9.0631,-9.0631,-9.0631,-9.0631,-9.0631,-9.0631,-9.0631,-9.0631,-9.0631,-9.0631,-9.0631,-9.0631,-9.0631,-9.0593,-9.0593,-9.0676,-9.0799,-9.0972,-9.108,-9.1248,-9.14,-9.1722,-9.2028,-9.2039,-9.211,-9.211,-7.8574,-7.8574,-7.8574,-7.9487,-8.0786,-8.0926,-8.1769,-8.2998,-8.3173,-8.3253,-8.3297,-8.3253,-8.3481,-8.3911,-8.4379,-8.4783,-8.5103,-8.5644,-8.5909,-8.5909,-8.5909,-8.5909,-8.6062,-8.632,-8.6746,-8.739,-8.7841,-8.8339,-8.8908,-8.8964,-8.8541,-8.7565,-8.6776,-8.6025,-8.5312,-8.4523,-8.411,-8.411,-8.411,-8.411,-8.411,-8.411,-8.411,-8.411,-8.411,-8.411,-8.411,-8.411,-8.411,-8.411,-8.411,-8.411,-8.411,-8.411,-8.411,-8.411,-8.411,-8.411,-8.411,-8.411,-8.411,-8.411,-8.411,-8.411,-8.426,-8.4749,-8.5462,-8.61,-8.7077,-8.7978,-8.8689,-8.9254,-8.9566,-8.9863,-9.0182,-9.0383,-9.053,-9.0631,-9.0631,-9.0631,-9.0631,-9.0631,-9.0631,-9.0631,-9.0631,-9.0631,-9.0631,-9.0631,-9.0631,-9.0631,-9.0631,-9.0631,-9.0631,-9.0631,-9.0631,-9.0631,-9.0631,-9.0631,-9.0631,-9.0631,-9.0631,-9.0631,-9.0593,-9.0614,-9.0739,-9.0934,-9.1168,-9.1377,-9.1543,-9.1708,-9.1873,-9.2099,-9.211,-9.211,-9.211,-7.8574,-7.8574,-7.8574,-7.9206,-8.0189,-8.0716,-8.1523,-8.2436,-8.2963,-8.3385,-8.3646,-8.3689,-8.3911,-8.4296,-8.4742,-8.5024,-8.5258,-8.5682,-8.5909,-8.5909,-8.5909,-8.6136,-8.632,-8.657,-8.7124,-8.7778,-8.8219,-8.8487,-8.8964,-8.8917,-8.809,-8.7039,-8.58,-8.4824,-8.4523,-8.4148,-8.411,-8.411,-8.411,-8.411,-8.411,-8.411,-8.411,-8.411,-8.411,-8.411,-8.411,-8.411,-8.411,-8.411,-8.411,-8.411,-8.411,-8.411,-8.411,-8.411,-8.411,-8.411,-8.411,-8.411,-8.411,-8.411,-8.411,-8.411,-8.4185,-8.4861,-8.565,-8.6476,-8.7442,-8.8285,-8.9065,-8.9477,-8.979,-9.0052,-9.0317,-9.0487,-9.0572,-9.0593,-9.0631,-9.0631,-9.0631,-9.0631,-9.0631,-9.0631,-9.0631,-9.0631,-9.0631,-9.0631,-9.0631,-9.0631,-9.0631,-9.0631,-9.0631,-9.0631,-9.0631,-9.0631,-9.0631,-9.0631,-9.0631,-9.0631,-9.0631,-9.0631,-9.0635,-9.0656,-9.0858,-9.1044,-9.1329,-9.1614,-9.1837,-9.2017,-9.2088,-9.211,-9.211,-9.211,-9.211,-7.8574,-7.8574,-7.8574,-7.889,-7.9487,-8.047,-8.1488,-8.2436,-8.2998,-8.3472,-8.3819,-8.3904,-8.4207,-8.4702,-8.5024,-8.5336,-8.5453,-8.5721,-8.5909,-8.5909,-8.5909,-8.6173,-8.65,-8.685,-8.7423,-8.8028,-8.8428,-8.8728,-8.8954,-8.8691,-8.764,-8.6138,-8.4786,-8.4373,-8.4148,-8.411,-8.411,-8.411,-8.411,-8.411,-8.411,-8.411,-8.411,-8.411,-8.411,-8.411,-8.411,-8.411,-8.411,-8.411,-8.411,-8.411,-8.411,-8.411,-8.411,-8.411,-8.411,-8.411,-8.411,-8.411,-8.411,-8.411,-8.411,-8.426,-8.4561,-8.5349,-8.6138,-8.6964,-8.7759,-8.8522,-8.9272,-8.9692,-8.9982,-9.025,-9.0383,-9.0551,-9.0593,-9.0631,-9.0631,-9.0631,-9.0631,-9.0631,-9.0631,-9.0631,-9.0631,-9.0631,-9.0631,-9.0631,-9.0631,-9.0631,-9.0631,-9.0631,-9.0631,-9.0631,-9.0631,-9.0631,-9.0631,-9.0631,-9.0631,-9.0631,-9.0631,-9.0631,-9.0656,-9.0778,-9.0989,-9.1264,-9.1571,-9.1849,-9.1994,-9.2039,-9.2099,-9.211,-9.211,-9.211,-9.211,-7.8574,-7.8574,-7.8574,-7.8574,-7.8855,-8.0259,-8.1769,-8.3138,-8.3253,-8.3481,-8.3911,-8.3996,-8.4497,-8.5139,-8.5258,-8.5489,-8.5835,-8.5911,-8.5986,-8.6061,-8.6173,-8.6428,-8.6815,-8.7291,-8.781,-8.8242,-8.8604,-8.8842,-8.8879,-8.809,-8.6889,-8.5612,-8.4598,-8.4185,-8.411,-8.411,-8.411,-8.411,-8.411,-8.411,-8.411,-8.411,-8.411,-8.411,-8.411,-8.411,-8.411,-8.411,-8.411,-8.411,-8.411,-8.411,-8.411,-8.411,-8.411,-8.411,-8.411,-8.411,-8.411,-8.411,-8.426,-8.4335,-8.426,-8.4636,-8.5199,-8.595,-8.6841,-8.7663,-8.842,-8.8956,-8.9489,-8.9839,-9.0144,-9.0317,-9.0487,-9.0551,-9.0572,-9.0631,-9.0631,-9.0631,-9.0631,-9.0631,-9.0631,-9.0631,-9.0631,-9.0631,-9.0631,-9.0631,-9.0631,-9.0631,-9.0631,-9.0631,-9.0631,-9.0631,-9.0631,-9.0631,-9.0631,-9.0631,-9.0631,-9.0631,-9.0631,-9.0656,-9.0778,-9.0896,-9.1142,-9.1445,-9.176,-9.1933,-9.2039,-9.211,-9.211,-9.211,-9.211,-9.211,-9.211,-7.8574,-7.8574,-7.8574,-7.8574,-7.882,-8.0259,-8.1804,-8.3147,-8.3559,-8.3954,-8.4338,-8.4702,-8.51,-8.5682,-8.5682,-8.5759,-8.5986,-8.6174,-8.6356,-8.6464,-8.6677,-8.7224,-8.7618,-8.7873,-8.8309,-8.8604,-8.8908,-8.8917,-8.8616,-8.7677,-8.6438,-8.5349,-8.4486,-8.4185,-8.411,-8.411,-8.411,-8.411,-8.411,-8.411,-8.411,-8.411,-8.411,-8.411,-8.411,-8.411,-8.411,-8.411,-8.411,-8.411,-8.411,-8.411,-8.411,-8.411,-8.411,-8.411,-8.411,-8.411,-8.411,-8.411,-8.4335,-8.4786,-8.4974,-8.5011,-8.5612,-8.654,-8.7561,-8.827,-8.8907,-8.9376,-8.9741,-9.0052,-9.0317,-9.0465,-9.0551,-9.0572,-9.0631,-9.0631,-9.0631,-9.0631,-9.0631,-9.0631,-9.0631,-9.0631,-9.0631,-9.0631,-9.0631,-9.0631,-9.0631,-9.0631,-9.0631,-9.0631,-9.0631,-9.0631,-9.0631,-9.0631,-9.0631,-9.0631,-9.0631,-9.0614,-9.0676,-9.0778,-9.0896,-9.1077,-9.1369,-9.1682,-9.1994,-9.2099,-9.211,-9.211,-9.211,-9.211,-9.211,-9.211,-9.211,-7.8574,-7.8574,-7.8574,-7.875,-7.9206,-8.0049,-8.1434,-8.2917,-8.3677,-8.4207,-8.4747,-8.5024,-8.5453,-8.5833,-8.5871,-8.5909,-8.5911,-8.6356,-8.6535,-8.6676,-8.7188,-8.7581,-8.7997,-8.8279,-8.8487,-8.8814,-8.8917,-8.8804,-8.8203,-8.6926,-8.5612,-8.4824,-8.4223,-8.4185,-8.411,-8.411,-8.411,-8.411,-8.411,-8.411,-8.411,-8.411,-8.411,-8.411,-8.411,-8.411,-8.411,-8.411,-8.411,-8.411,-8.411,-8.411,-8.411,-8.411,-8.411,-8.411,-8.411,-8.411,-8.4148,-8.4486,-8.4824,-8.5349,-8.5913,-8.6406,-8.6632,-8.7335,-8.8044,-8.8704,-8.9225,-8.9729,-9.0043,-9.0295,-9.0443,-9.0572,-9.0572,-9.0631,-9.0631,-9.0631,-9.0631,-9.0631,-9.0631,-9.0631,-9.0631,-9.0631,-9.0631,-9.0631,-9.0631,-9.0631,-9.0631,-9.0631,-9.0631,-9.0631,-9.0631,-9.0631,-9.0631,-9.0631,-9.0631,-9.0631,-9.0631,-9.0635,-9.0737,-9.0896,-9.1062,-9.1329,-9.1627,-9.1873,-9.2099,-9.2099,-9.211,-9.211,-9.211,-9.211,-9.211,-9.211,-9.211,-7.8574,-7.8574,-7.8574,-7.896,-7.9627,-7.9852,-8.0915,-8.2601,-8.3506,-8.4344,-8.5064,-8.5258,-8.5528,-8.5871,-8.5909,-8.5948,-8.6173,-8.6571,-8.6919,-8.6781,-8.7521,-8.8028,-8.8279,-8.8339,-8.8671,-8.887,-8.8729,-8.8203,-8.7302,-8.6213,-8.5124,-8.4148,-8.411,-8.411,-8.411,-8.411,-8.411,-8.411,-8.411,-8.411,-8.411,-8.411,-8.411,-8.411,-8.411,-8.411,-8.411,-8.411,-8.411,-8.411,-8.411,-8.411,-8.411,-8.411,-8.411,-8.4223,-8.426,-8.4373,-8.4598,-8.5011,-8.5462,-8.61,-8.6916,-8.7577,-8.7931,-8.8082,-8.8651,-8.9188,-8.9752,-8.9996,-9.025,-9.0422,-9.053,-9.0572,-9.0593,-9.0631,-9.0631,-9.0631,-9.0631,-9.0631,-9.0631,-9.0631,-9.0631,-9.0631,-9.0631,-9.0631,-9.0631,-9.0631,-9.0631,-9.0631,-9.0631,-9.0631,-9.0631,-9.0631,-9.0631,-9.0631,-9.0631,-9.0631,-9.0631,-9.0737,-9.0858,-9.1044,-9.1231,-9.1543,-9.1849,-9.1971,-9.211,-9.211,-9.211,-9.211,-9.211,-9.211,-9.211,-9.211,-9.211,-7.8574,-7.8574,-7.8574,-7.8715,-7.9002,-7.9864,-8.0658,-8.1564,-8.3276,-8.437,-8.5186,-8.5531,-8.5795,-8.5871,-8.5948,-8.6062,-8.6464,-8.6953,-8.7423,-8.7778,-8.8249,-8.8428,-8.8728,-8.8728,-8.8879,-8.8711,-8.8316,-8.7377,-8.6288,-8.5462,-8.4899,-8.4185,-8.411,-8.411,-8.411,-8.411,-8.411,-8.411,-8.411,-8.411,-8.411,-8.411,-8.411,-8.411,-8.411,-8.411,-8.411,-8.411,-8.411,-8.411,-8.411,-8.411,-8.411,-8.411,-8.411,-8.4185,-8.4673,-8.4861,-8.5237,-8.5762,-8.6363,-8.7007,-8.7802,-8.8387,-8.8805,-8.8968,-8.9237,-8.9739,-9.0052,-9.025,-9.0422,-9.053,-9.0631,-9.0631,-9.0631,-9.0631,-9.0631,-9.0631,-9.0631,-9.0631,-9.0631,-9.0631,-9.0631,-9.0631,-9.0631,-9.0631,-9.0631,-9.0631,-9.0631,-9.0631,-9.0631,-9.0631,-9.0631,-9.0631,-9.0631,-9.0631,-9.0631,-9.0614,-9.0635,-9.0779,-9.0971,-9.1281,-9.1571,-9.1824,-9.2039,-9.2099,-9.211,-9.211,-9.211,-9.211,-9.211,-9.211,-9.211,-9.211,-9.211,-7.8574,-7.8574,-7.8574,-7.8574,-7.8728,-7.9528,-8.0252,-8.1152,-8.244,-8.3752,-8.4951,-8.5578,-8.5909,-8.5986,-8.6099,-8.6283,-8.6746,-8.7419,-8.781,-8.8279,-8.8699,-8.8879,-8.8992,-8.8992,-8.8964,-8.8766,-8.7677,-8.6588,-8.5387,-8.4824,-8.4411,-8.4148,-8.411,-8.411,-8.411,-8.411,-8.411,-8.411,-8.411,-8.411,-8.411,-8.411,-8.411,-8.411,-8.411,-8.411,-8.411,-8.411,-8.411,-8.411,-8.411,-8.411,-8.411,-8.411,-8.4335,-8.4636,-8.5086,-8.5462,-8.595,-8.6588,-8.7264,-8.7824,-8.8511,-8.9058,-8.9352,-8.9528,-8.9676,-9.0137,-9.0137,-9.0273,-9.0465,-9.061,-9.0631,-9.0631,-9.0631,-9.0631,-9.0631,-9.0631,-9.0631,-9.0631,-9.0631,-9.0631,-9.0631,-9.0631,-9.0631,-9.0631,-9.0631,-9.0631,-9.0631,-9.0631,-9.0631,-9.0631,-9.0631,-9.0631,-9.0631,-9.0631,-9.0631,-9.0614,-9.0676,-9.1008,-9.1281,-9.1627,-9.1921,-9.2028,-9.2099,-9.211,-9.211,-9.211,-9.211,-9.211,-9.211,-9.211,-9.211,-9.211,-9.211,-7.8574,-7.8574,-7.8574,-7.8616,-7.8741,-7.915,-7.991,-8.0948,-8.1583,-8.2789,-8.439,-8.5262,-8.5658,-8.6062,-8.6392,-8.6535,-8.6951,-8.7715,-8.809,-8.8458,-8.8785,-8.8964,-8.8992,-8.8992,-8.8729,-8.8166,-8.7189,-8.61,-8.5049,-8.4561,-8.426,-8.411,-8.411,-8.411,-8.411,-8.411,-8.411,-8.411,-8.411,-8.411,-8.411,-8.411,-8.411,-8.411,-8.411,-8.411,-8.411,-8.411,-8.411,-8.411,-8.411,-8.411,-8.426,-8.4335,-8.4711,-8.5086,-8.5762,-8.6175,-8.6701,-8.749,-8.7855,-8.8302,-8.9016,-8.9503,-8.9814,-9.0006,-9.0205,-9.025,-9.025,-9.0317,-9.0508,-9.0631,-9.0631,-9.0631,-9.0631,-9.0631,-9.0631,-9.0631,-9.0631,-9.0631,-9.0631,-9.0631,-9.0631,-9.0631,-9.0631,-9.0631,-9.0631,-9.0631,-9.0631,-9.0631,-9.0631,-9.0631,-9.0631,-9.0631,-9.0631,-9.0631,-9.0631,-9.0676,-9.0759,-9.1198,-9.1571,-9.1824,-9.1994,-9.2077,-9.211,-9.211,-9.211,-9.211,-9.211,-9.211,-9.211,-9.211,-9.211,-9.211,-9.211,-7.8574,-7.8574,-7.8574,-7.8782,-7.9115,-7.9479,-8.0015,-8.0721,-8.1742,-8.2649,-8.344,-8.4203,-8.4972,-8.5911,-8.6392,-8.6781,-8.7354,-8.7997,-8.8487,-8.8879,-8.8936,-8.8964,-8.8917,-8.8804,-8.809,-8.7339,-8.6551,-8.5725,-8.4786,-8.4298,-8.411,-8.411,-8.411,-8.411,-8.411,-8.411,-8.411,-8.411,-8.411,-8.411,-8.411,-8.411,-8.411,-8.411,-8.411,-8.411,-8.411,-8.411,-8.411,-8.411,-8.411,-8.411,-8.4298,-8.4636,-8.5086,-8.565,-8.6326,-8.7077,-8.7677,-8.8258,-8.8613,-8.8877,-8.9515,-8.9814,-9.0052,-9.0295,-9.0443,-9.0487,-9.0487,-9.0487,-9.0631,-9.0631,-9.0631,-9.0631,-9.0631,-9.0631,-9.0631,-9.0631,-9.0631,-9.0631,-9.0631,-9.0631,-9.0631,-9.0631,-9.0631,-9.0631,-9.0631,-9.0631,-9.0631,-9.0631,-9.0631,-9.0631,-9.0631,-9.0631,-9.0631,-9.0631,-9.0614,-9.0697,-9.0877,-9.1329,-9.1668,-9.1897,-9.2039,-9.2099,-9.211,-9.211,-9.211,-9.211,-9.211,-9.211,-9.211,-9.211,-9.211,-9.211,-9.211]},{"header":{"parameterUnit":"m.s-1","parameterCategory":1,"la1":31.0,"la2":29.5877,"lo1":-88.7671,"lo2":-86.6584,"dy":0.0162,"dx":0.0185,"nx":115,"ny":88,"refTime":"2023-03-20T06:00:00:Z","depth":0,"parameterNumber":3,"parameterNumberName":"V-component_of_WINDS"},"data":[0.0,0.0,0.0,0.0,0.0,0.0,0.0,0.0,0.0,0.0,0.0,0.0,0.0,0.0,0.0,0.0,0.0,0.0,0.0,0.0,0.0,0.0,0.0,0.0,0.0,0.0,0.0,0.0,0.0,0.0,0.0,0.0,0.0,0.0,0.0,0.0,0.0,0.0,0.0,0.0,0.0,0.0,0.0,0.0,0.0,0.0,0.0,0.0,0.0,0.0,0.0,0.0,0.0,0.0,0.0,0.0,0.0,0.0,0.0,0.0,0.0,0.0,0.0,0.0,0.0,0.0,0.0,0.0,0.0,0.0,0.0,0.0,0.0,0.0,0.0,0.0,0.0,0.0,0.0,0.0,0.0,0.0,0.0,0.0,0.0,0.0,0.0,0.0,0.0,0.0,0.0,0.0,0.0,0.0,0.0,0.0,0.0,0.0,0.0,0.0,0.0,0.0,0.0,0.0,0.0,0.0,0.0,0.0,0.0,0.0,0.0,0.0,0.0,0.0,0.0,0.0,0.0,0.0,0.0,0.0,0.0,0.0,0.0,0.0,0.0,0.0,0.0,0.0,0.0,0.0,0.0,0.0,0.0,0.0,0.0,0.0,0.0,0.0,0.0,0.0,0.0,0.0,0.0,0.0,0.0,0.0,0.0,0.0,0.0,0.0,0.0,0.0,0.0,0.0,0.0,0.0,0.0,0.0,0.0,0.0,0.0,0.0,0.0,0.0,0.0,0.0,0.0,0.0,0.0,0.0,0.0,0.0,0.0,0.0,0.0,0.0,0.0,0.0,0.0,0.0,0.0,0.0,0.0,0.0,0.0,0.0,0.0,0.0,0.0,0.0,0.0,0.0,0.0,0.0,0.0,0.0,0.0,0.0,0.0,0.0,0.0,0.0,0.0,0.0,0.0,0.0,0.0,0.0,0.0,0.0,0.0,0.0,0.0,0.0,0.0,0.0,0.0,0.0,0.0,0.0,0.0,0.0,0.0,0.0,0.0,0.0,0.0,0.0,0.0,0.0,0.0,0.0,0.0,0.0,0.0,0.0,0.0,0.0,0.0,0.0,0.0,0.0,0.0,0.0,0.0,0.0,0.0,0.0,0.0,0.0,0.0,0.0,0.0,0.0,0.0,0.0,0.0,0.0,0.0,0.0,0.0,0.0,0.0,0.0,0.0,0.0,0.0,0.0,0.0,0.0,0.0,0.0,0.0,0.0,0.0,0.0,0.0,0.0,0.0,0.0,0.0,0.0,0.0,0.0,0.0,0.0,0.0,0.0,0.0,0.0,0.0,0.0,0.0,0.0,0.0,0.0,0.0,0.0,0.0,0.0,0.0,0.0,0.0,0.0,0.0,0.0,0.0,0.0,0.0,0.0,0.0,0.0,0.0,0.0,0.0,0.0,0.0,0.0,0.0,0.0,0.0,0.0,0.0,0.0,0.0,0.0,0.0,0.0,0.0,0.0,0.0,0.0,0.0,0.0,0.0,0.0,0.0,0.0,0.0,0.0,0.0,0.0,0.0,0.0,0.0,0.0,0.0,0.0,0.0,0.0,0.0,0.0,0.0,0.0,0.0,0.0,0.0,0.0,0.0,0.0,0.0,0.0,0.0,0.0,0.0,0.0,0.0,0.0,0.0,0.0,0.0,0.0,0.0,0.0,0.0,0.0,0.0,0.0,0.0,0.0,0.0,0.0,0.0,0.0,0.0,0.0,0.0,0.0,0.0,0.0,0.0,0.0,0.0,0.0,0.0,0.0,0.0,0.0,0.0,0.0,0.0,0.0,0.0,0.0,0.0,0.0,0.0,0.0,0.0,0.0,0.0,0.0,0.0,0.0,0.0,0.0,0.0,0.0,0.0,0.0,0.0,0.0,0.0,0.0,0.0,0.0,0.0,0.0,0.0,0.0,0.0,0.0,0.0,0.0,0.0,0.0,0.0,0.0,0.0,0.0,0.0,0.0,0.0,0.0,0.0,0.0,0.0,0.0,0.0,0.0,0.0,0.0,0.0,0.0,0.0,0.0,0.0,0.0,0.0,0.0,0.0,0.0,0.0,0.0,0.0,0.0,0.0,0.0,0.0,0.0,0.0,0.0,0.0,0.0,0.0,0.0,0.0,0.0,0.0,0.0,0.0,0.0,0.0,0.0,0.0,0.0,0.0,0.0,0.0,0.0,0.0,0.0,0.0,0.0,0.0,0.0,0.0,0.0,0.0,0.0,0.0,0.0,0.0,0.0,0.0,0.0,0.0,0.0,0.0,0.0,0.0,0.0,0.0,0.0,0.0,0.0,0.0,0.0,0.0,0.0,0.0,0.0,0.0,0.0,0.0,0.0,0.0,0.0,0.0,0.0,0.0,0.0,0.0,0.0,0.0,0.0,0.0,0.0,0.0,0.0,0.0,0.0,0.0,0.0,0.0,0.0,0.0,0.0,0.0,0.0,0.0,0.0,0.0,0.0,0.0,0.0,0.0,0.0,0.0,0.0,0.0,0.0,0.0,0.0,0.0,0.0,0.0,0.0,0.0,0.0,0.0,0.0,0.0,0.0,0.0,0.0,0.0,0.0,0.0,0.0,0.0,0.0,0.0,0.0,0.0,0.0,0.0,0.0,0.0,0.0,0.0,0.0,0.0,0.0,0.0,0.0,0.0,0.0,0.0,0.0,0.0,0.0,0.0,0.0,0.0,0.0,0.0,0.0,0.0,0.0,0.0,0.0,0.0,0.0,0.0,0.0,0.0,0.0,0.0,0.0,0.0,0.0,0.0,0.0,0.0,0.0,0.0,0.0,0.0,0.0,0.0,0.0,0.0,0.0,0.0,0.0,0.0,0.0,0.0,0.0,0.0,0.0,0.0,0.0,0.0,0.0,0.0,0.0,0.0,0.0,0.0,0.0,0.0,0.0,0.0,0.0,0.0,0.0,0.0,0.0,0.0,0.0,0.0,0.0,0.0,0.0,0.0,0.0,0.0,0.0,0.0,0.0,0.0,0.0,0.0,0.0,0.0,0.0,0.0,0.0,0.0,0.0,0.0,0.0,0.0,0.0,0.0,0.0,0.0,0.0,0.0,0.0,0.0,0.0,0.0,0.0,0.0,0.0,0.0,0.0,0.0,0.0,0.0,0.0,0.0,0.0,0.0,0.0,0.0,0.0,0.0,0.0,0.0,0.0,0.0,0.0,0.0,0.0,0.0,0.0,0.0,0.0,0.0,0.0,0.0,0.0,0.0,0.0,0.0,0.0,0.0,0.0,0.0,0.0,0.0,0.0,0.0,0.0,0.0,0.0,0.0,0.0,0.0,0.0,0.0,0.0,0.0,0.0,0.0,0.0,0.0,0.0,0.0,0.0,0.0,0.0,0.0,0.0,0.0,0.0,0.0,0.0,0.0,0.0,0.0,0.0,0.0,0.0,0.0,0.0,0.0,0.0,0.0,0.0,0.0,0.0,0.0,0.0,0.0,0.0,0.0,0.0,0.0,0.0,0.0,0.0,0.0,0.0,0.0,0.0,0.0,0.0,0.0,0.0,0.0,0.0,0.0,0.0,0.0,0.0,0.0,0.0,0.0,0.0,0.0,0.0,0.0,0.0,0.0,0.0,0.0,0.0,0.0,0.0,0.0,0.0,0.0,0.0,0.0,0.0,0.0,0.0,0.0,0.0,0.0,0.0,0.0,0.0,0.0,0.0,0.0,0.0,0.0,0.0,0.0,0.0,0.0,0.0,0.0,0.0,0.0,0.0,0.0,0.0,0.0,0.0,0.0,0.0,0.0,0.0,0.0,0.0,0.0,0.0,0.0,0.0,0.0,0.0,0.0,0.0,0.0,0.0,0.0,0.0,0.0,0.0,0.0,0.0,0.0,0.0,0.0,0.0,0.0,0.0,0.0,0.0,0.0,0.0,0.0,0.0,0.0,0.0,0.0,0.0,0.0,0.0,0.0,0.0,0.0,0.0,0.0,0.0,0.0,0.0,0.0,0.0,0.0,0.0,0.0,0.0,0.0,0.0,0.0,0.0,0.0,0.0,0.0,0.0,0.0,0.0,0.0,0.0,0.0,0.0,0.0,0.0,0.0,0.0,0.0,0.0,0.0,0.0,0.0,0.0,0.0,0.0,0.0,0.0,0.0,0.0,0.0,0.0,0.0,0.0,0.0,0.0,0.0,0.0,0.0,0.0,0.0,0.0,0.0,0.0,0.0,0.0,0.0,0.0,0.0,0.0,0.0,0.0,0.0,0.0,0.0,0.0,0.0,0.0,0.0,0.0,0.0,0.0,0.0,0.0,0.0,0.0,-1.4875,0.0,0.0,0.0,0.0,0.0,0.0,0.0,0.0,0.0,0.0,0.0,0.0,0.0,0.0,0.0,0.0,0.0,0.0,0.0,0.0,0.0,0.0,0.0,0.0,0.0,0.0,0.0,0.0,0.0,0.0,0.0,0.0,0.0,0.0,0.0,0.0,0.0,0.0,0.0,0.0,0.0,0.0,0.0,0.0,0.0,0.0,0.0,0.0,0.0,0.0,0.0,0.0,0.0,0.0,0.0,0.0,0.0,0.0,0.0,0.0,0.0,0.0,0.0,0.0,0.0,0.0,0.0,0.0,0.0,0.0,0.0,0.0,0.0,0.0,0.0,0.0,0.0,0.0,0.0,0.0,0.0,0.0,0.0,0.0,0.0,0.0,0.0,0.0,0.0,0.0,0.0,0.0,0.0,0.0,0.0,0.0,0.0,0.0,0.0,0.0,0.0,0.0,0.0,0.0,0.0,0.0,0.0,0.0,0.0,0.0,-1.5395,-1.5101,-1.512,-1.5186,-1.5101,0.0,0.0,0.0,0.0,0.0,0.0,0.0,0.0,0.0,0.0,0.0,0.0,0.0,0.0,0.0,0.0,0.0,0.0,0.0,0.0,0.0,0.0,0.0,0.0,0.0,0.0,0.0,0.0,0.0,0.0,0.0,0.0,0.0,0.0,0.0,0.0,0.0,0.0,0.0,0.0,0.0,0.0,0.0,0.0,0.0,0.0,0.0,0.0,0.0,0.0,0.0,0.0,0.0,0.0,0.0,0.0,0.0,0.0,0.0,0.0,0.0,0.0,0.0,0.0,0.0,0.0,0.0,0.0,0.0,0.0,0.0,0.0,0.0,0.0,0.0,0.0,0.0,0.0,0.0,0.0,0.0,0.0,0.0,0.0,0.0,0.0,0.0,0.0,0.0,0.0,0.0,0.0,0.0,0.0,0.0,0.0,0.0,0.0,0.0,0.0,0.0,0.0,0.0,0.0,0.0,0.0,0.0,0.0,0.0,0.0,0.0,0.0,-1.5481,-1.5424,-1.53,0.0,0.0,0.0,0.0,0.0,0.0,0.0,0.0,0.0,0.0,0.0,0.0,0.0,0.0,0.0,0.0,0.0,0.0,0.0,0.0,0.0,0.0,0.0,0.0,0.0,0.0,0.0,0.0,0.0,0.0,0.0,0.0,0.0,0.0,0.0,0.0,0.0,0.0,0.0,0.0,0.0,0.0,0.0,0.0,0.0,0.0,0.0,0.0,0.0,0.0,0.0,0.0,0.0,0.0,0.0,0.0,0.0,0.0,0.0,0.0,0.0,0.0,0.0,0.0,0.0,0.0,0.0,0.0,0.0,0.0,0.0,0.0,0.0,0.0,0.0,0.0,0.0,0.0,0.0,0.0,0.0,0.0,0.0,0.0,0.0,0.0,0.0,0.0,0.0,0.0,0.0,0.0,0.0,0.0,0.0,0.0,0.0,0.0,0.0,0.0,0.0,0.0,0.0,0.0,0.0,0.0,0.0,0.0,0.0,0.0,-1.6598,-1.6069,-1.6187,0.0,-1.5613,0.0,0.0,0.0,0.0,0.0,0.0,0.0,0.0,0.0,0.0,0.0,0.0,0.0,0.0,0.0,0.0,0.0,0.0,0.0,0.0,0.0,0.0,0.0,0.0,0.0,0.0,0.0,0.0,0.0,0.0,0.0,0.0,0.0,0.0,0.0,0.0,0.0,0.0,0.0,0.0,0.0,0.0,0.0,0.0,0.0,0.0,0.0,0.0,0.0,0.0,0.0,0.0,0.0,0.0,0.0,0.0,0.0,0.0,0.0,0.0,0.0,0.0,0.0,0.0,0.0,0.0,0.0,0.0,0.0,0.0,0.0,0.0,0.0,0.0,0.0,0.0,0.0,0.0,0.0,0.0,0.0,0.0,0.0,0.0,0.0,0.0,0.0,0.0,0.0,0.0,0.0,0.0,0.0,0.0,0.0,0.0,0.0,0.0,0.0,0.0,0.0,0.0,0.0,0.0,0.0,0.0,0.0,0.0,0.0,0.0,-1.6993,-1.6284,-1.6165,-1.5969,0.0,0.0,0.0,0.0,0.0,0.0,0.0,0.0,0.0,0.0,0.0,0.0,0.0,0.0,0.0,0.0,0.0,0.0,0.0,0.0,0.0,0.0,0.0,0.0,0.0,0.0,0.0,0.0,0.0,0.0,0.0,0.0,0.0,0.0,0.0,0.0,0.0,0.0,0.0,0.0,0.0,0.0,0.0,0.0,0.0,0.0,0.0,0.0,0.0,0.0,0.0,0.0,0.0,0.0,0.0,0.0,0.0,0.0,0.0,0.0,0.0,0.0,0.0,0.0,0.0,0.0,0.0,0.0,0.0,0.0,0.0,0.0,0.0,0.0,0.0,0.0,0.0,0.0,0.0,0.0,0.0,0.0,0.0,0.0,0.0,0.0,0.0,0.0,0.0,0.0,0.0,0.0,0.0,0.0,0.0,0.0,0.0,0.0,0.0,0.0,0.0,0.0,0.0,0.0,0.0,0.0,0.0,0.0,0.0,0.0,-1.7813,-1.7264,-1.6509,-1.6161,-1.5876,-1.5734,0.0,0.0,0.0,0.0,0.0,0.0,0.0,0.0,0.0,0.0,0.0,0.0,0.0,0.0,0.0,0.0,0.0,0.0,0.0,0.0,0.0,0.0,0.0,0.0,0.0,0.0,0.0,0.0,0.0,0.0,0.0,0.0,0.0,0.0,0.0,0.0,0.0,0.0,0.0,0.0,0.0,0.0,0.0,0.0,0.0,0.0,0.0,0.0,0.0,0.0,0.0,0.0,0.0,0.0,0.0,0.0,0.0,0.0,0.0,0.0,0.0,0.0,0.0,0.0,0.0,0.0,0.0,0.0,0.0,0.0,0.0,0.0,0.0,0.0,0.0,0.0,0.0,0.0,0.0,0.0,0.0,0.0,0.0,0.0,0.0,0.0,0.0,0.0,0.0,0.0,0.0,0.0,0.0,0.0,0.0,0.0,0.0,0.0,0.0,0.0,0.0,0.0,0.0,0.0,0.0,0.0,0.0,0.0,-1.8938,-1.8261,-1.7499,-1.6715,-1.6372,-1.616,0.0,0.0,0.0,0.0,0.0,0.0,0.0,0.0,0.0,0.0,0.0,0.0,0.0,0.0,0.0,0.0,0.0,0.0,0.0,0.0,0.0,0.0,0.0,0.0,0.0,0.0,0.0,0.0,0.0,0.0,0.0,0.0,0.0,0.0,0.0,0.0,0.0,0.0,0.0,0.0,0.0,0.0,0.0,0.0,0.0,0.0,0.0,0.0,0.0,0.0,0.0,0.0,0.0,0.0,0.0,0.0,0.0,0.0,0.0,0.0,0.0,0.0,0.0,0.0,0.0,0.0,0.0,0.0,0.0,0.0,0.0,0.0,0.0,0.0,0.0,0.0,0.0,0.0,0.0,0.0,0.0,0.0,0.0,0.0,0.0,0.0,0.0,0.0,0.0,0.0,0.0,0.0,0.0,0.0,0.0,0.0,0.0,0.0,0.0,0.0,0.0,0.0,0.0,0.0,0.0,0.0,0.0,0.0,0.0,-1.9332,-1.8153,-1.7228,-1.6734,-1.6593,-1.6381,0.0,0.0,0.0,0.0,0.0,0.0,0.0,0.0,0.0,0.0,0.0,0.0,0.0,0.0,0.0,0.0,0.0,0.0,0.0,0.0,0.0,0.0,0.0,0.0,0.0,0.0,0.0,0.0,0.0,0.0,0.0,0.0,0.0,0.0,0.0,0.0,0.0,0.0,0.0,0.0,0.0,0.0,0.0,0.0,0.0,0.0,0.0,0.0,0.0,0.0,0.0,0.0,0.0,0.0,0.0,0.0,0.0,0.0,0.0,0.0,0.0,0.0,0.0,0.0,0.0,0.0,0.0,0.0,0.0,0.0,0.0,0.0,0.0,0.0,0.0,0.0,0.0,0.0,0.0,0.0,0.0,0.0,0.0,0.0,0.0,0.0,0.0,0.0,0.0,0.0,0.0,0.0,0.0,0.0,0.0,0.0,0.0,0.0,0.0,0.0,0.0,0.0,0.0,0.0,0.0,0.0,0.0,0.0,0.0,-1.9304,0.0,-1.7379,-1.6875,-1.6805,-1.6593,0.0,0.0,0.0,0.0,0.0,0.0,0.0,0.0,0.0,0.0,0.0,0.0,0.0,0.0,0.0,0.0,0.0,0.0,0.0,0.0,0.0,0.0,0.0,0.0,0.0,0.0,0.0,0.0,0.0,0.0,0.0,0.0,0.0,0.0,0.0,0.0,0.0,0.0,0.0,0.0,0.0,0.0,0.0,0.0,0.0,0.0,0.0,0.0,0.0,0.0,0.0,0.0,0.0,0.0,0.0,0.0,0.0,0.0,0.0,0.0,0.0,0.0,0.0,0.0,0.0,0.0,0.0,0.0,0.0,0.0,0.0,0.0,0.0,0.0,0.0,0.0,0.0,0.0,0.0,0.0,0.0,0.0,0.0,0.0,0.0,0.0,0.0,0.0,0.0,0.0,0.0,0.0,0.0,0.0,0.0,0.0,0.0,0.0,0.0,0.0,0.0,0.0,0.0,0.0,0.0,0.0,0.0,0.0,-2.004,-1.8921,-1.8431,-1.7908,-1.7329,-1.6966,-1.6734,0.0,0.0,0.0,0.0,0.0,0.0,0.0,0.0,0.0,0.0,0.0,0.0,0.0,0.0,0.0,0.0,0.0,0.0,0.0,0.0,0.0,0.0,0.0,0.0,0.0,0.0,0.0,0.0,0.0,0.0,0.0,0.0,0.0,0.0,0.0,0.0,0.0,0.0,0.0,0.0,0.0,0.0,0.0,0.0,0.0,0.0,0.0,0.0,0.0,0.0,0.0,0.0,0.0,0.0,0.0,0.0,0.0,0.0,0.0,0.0,0.0,0.0,0.0,0.0,0.0,0.0,0.0,0.0,0.0,0.0,0.0,0.0,0.0,0.0,0.0,0.0,0.0,0.0,0.0,0.0,0.0,0.0,0.0,0.0,0.0,0.0,0.0,0.0,0.0,0.0,0.0,0.0,0.0,0.0,0.0,0.0,0.0,0.0,0.0,0.0,0.0,0.0,0.0,0.0,0.0,0.0,0.0,0.0,0.0,-1.9892,-1.9242,-1.8632,-1.8197,-1.7683,-1.7245,0.0,0.0,0.0,0.0,0.0,0.0,0.0,0.0,0.0,0.0,0.0,0.0,0.0,0.0,0.0,0.0,0.0,0.0,0.0,0.0,0.0,0.0,0.0,0.0,0.0,0.0,0.0,0.0,0.0,0.0,0.0,0.0,0.0,0.0,0.0,0.0,0.0,0.0,0.0,0.0,0.0,0.0,0.0,0.0,0.0,0.0,0.0,0.0,0.0,0.0,0.0,0.0,0.0,0.0,0.0,0.0,0.0,0.0,0.0,0.0,0.0,0.0,0.0,0.0,0.0,0.0,0.0,0.0,0.0,0.0,0.0,0.0,0.0,0.0,0.0,0.0,0.0,0.0,0.0,0.0,0.0,0.0,0.0,0.0,0.0,0.0,0.0,0.0,0.0,0.0,0.0,0.0,0.0,0.0,0.0,0.0,0.0,0.0,0.0,0.0,0.0,0.0,0.0,0.0,0.0,0.0,0.0,0.0,0.0,-2.1831,-2.0615,-2.0007,-2.0054,-1.8885,-1.8041,-1.757,0.0,0.0,0.0,0.0,0.0,0.0,0.0,0.0,0.0,0.0,0.0,0.0,0.0,0.0,0.0,0.0,0.0,0.0,0.0,0.0,0.0,0.0,0.0,0.0,0.0,0.0,0.0,0.0,0.0,0.0,0.0,0.0,0.0,0.0,0.0,0.0,0.0,0.0,0.0,0.0,0.0,0.0,0.0,0.0,0.0,0.0,0.0,0.0,0.0,0.0,0.0,0.0,0.0,0.0,0.0,0.0,0.0,0.0,0.0,0.0,0.0,0.0,0.0,0.0,0.0,0.0,0.0,0.0,0.0,0.0,0.0,0.0,0.0,0.0,0.0,0.0,0.0,0.0,0.0,0.0,0.0,0.0,0.0,0.0,0.0,0.0,0.0,0.0,0.0,0.0,0.0,0.0,0.0,0.0,0.0,0.0,0.0,0.0,0.0,0.0,0.0,0.0,0.0,0.0,0.0,0.0,0.0,0.0,-2.4585,-2.2721,-2.2013,-2.2631,-2.0631,-1.9181,0.0,0.0,0.0,0.0,0.0,0.0,0.0,0.0,0.0,0.0,0.0,0.0,0.0,0.0,0.0,0.0,0.0,0.0,0.0,0.0,0.0,0.0,0.0,0.0,0.0,0.0,0.0,0.0,0.0,0.0,0.0,0.0,0.0,0.0,0.0,0.0,0.0,0.0,0.0,0.0,0.0,0.0,0.0,0.0,0.0,0.0,0.0,0.0,0.0,0.0,0.0,0.0,0.0,0.0,0.0,0.0,0.0,0.0,0.0,0.0,0.0,0.0,0.0,0.0,0.0,0.0,0.0,0.0,0.0,0.0,0.0,0.0,0.0,0.0,0.0,0.0,0.0,0.0,0.0,0.0,0.0,0.0,0.0,0.0,0.0,0.0,0.0,0.0,0.0,0.0,0.0,0.0,0.0,0.0,0.0,0.0,0.0,0.0,0.0,0.0,0.0,0.0,0.0,0.0,0.0,0.0,0.0,0.0,0.0,-2.6677,-2.6041,-2.5474,-2.4971,-2.275,-2.1133,0.0,0.0,0.0,0.0,0.0,0.0,0.0,0.0,0.0,0.0,0.0,0.0,0.0,0.0,0.0,0.0,0.0,0.0,0.0,0.0,0.0,0.0,0.0,0.0,0.0,0.0,0.0,0.0,0.0,0.0,0.0,0.0,0.0,0.0,0.0,0.0,0.0,0.0,0.0,0.0,0.0,0.0,0.0,0.0,0.0,0.0,0.0,0.0,0.0,0.0,0.0,0.0,0.0,0.0,0.0,0.0,0.0,0.0,0.0,0.0,0.0,0.0,0.0,0.0,0.0,0.0,0.0,0.0,0.0,0.0,0.0,0.0,0.0,0.0,0.0,0.0,0.0,0.0,0.0,0.0,0.0,0.0,0.0,0.0,0.0,0.0,0.0,0.0,0.0,0.0,0.0,0.0,0.0,0.0,0.0,0.0,0.0,0.0,0.0,0.0,0.0,0.0,0.0,0.0,0.0,0.0,0.0,0.0,-2.6408,-2.7616,-2.8329,-2.844,-2.7919,-2.4819,-2.2692,0.0,0.0,0.0,0.0,0.0,0.0,0.0,0.0,0.0,0.0,0.0,0.0,0.0,0.0,0.0,0.0,0.0,0.0,0.0,0.0,0.0,0.0,0.0,0.0,0.0,0.0,0.0,0.0,0.0,0.0,0.0,0.0,0.0,0.0,0.0,0.0,0.0,0.0,0.0,0.0,0.0,0.0,0.0,0.0,0.0,0.0,0.0,0.0,0.0,0.0,0.0,0.0,0.0,0.0,0.0,0.0,0.0,0.0,0.0,0.0,0.0,0.0,0.0,0.0,0.0,0.0,0.0,0.0,0.0,0.0,0.0,0.0,0.0,0.0,0.0,0.0,0.0,0.0,0.0,0.0,0.0,0.0,0.0,0.0,0.0,0.0,0.0,0.0,0.0,0.0,0.0,0.0,0.0,0.0,0.0,0.0,0.0,0.0,0.0,0.0,0.0,0.0,0.0,0.0,0.0,0.0,0.0,0.0,-2.7341,-2.7806,-2.9789,-3.0817,-3.0705,-2.6764,-2.3995,0.0,0.0,0.0,0.0,0.0,0.0,0.0,0.0,0.0,0.0,0.0,0.0,0.0,0.0,0.0,0.0,0.0,0.0,0.0,0.0,0.0,0.0,0.0,0.0,0.0,0.0,0.0,0.0,0.0,0.0,0.0,0.0,0.0,0.0,0.0,0.0,0.0,0.0,0.0,0.0,0.0,0.0,0.0,0.0,0.0,0.0,0.0,0.0,0.0,0.0,0.0,0.0,0.0,0.0,0.0,0.0,0.0,0.0,0.0,0.0,0.0,0.0,0.0,0.0,0.0,0.0,0.0,0.0,0.0,0.0,0.0,0.0,0.0,0.0,0.0,0.0,0.0,0.0,0.0,0.0,0.0,0.0,0.0,0.0,0.0,0.0,0.0,0.0,0.0,0.0,0.0,0.0,0.0,0.0,0.0,0.0,0.0,0.0,0.0,0.0,0.0,0.0,0.0,0.0,0.0,0.0,0.0,0.0,-2.7786,-2.9232,-3.0267,-3.0817,-3.0817,-2.826,-2.6015,0.0,0.0,0.0,0.0,0.0,0.0,0.0,0.0,0.0,0.0,0.0,0.0,0.0,0.0,0.0,0.0,0.0,0.0,0.0,0.0,0.0,0.0,0.0,0.0,0.0,0.0,0.0,0.0,0.0,0.0,0.0,0.0,0.0,0.0,0.0,0.0,0.0,0.0,0.0,0.0,0.0,0.0,0.0,0.0,0.0,0.0,0.0,0.0,-1.5792,0.0,0.0,0.0,0.0,0.0,0.0,0.0,0.0,0.0,0.0,0.0,0.0,0.0,0.0,0.0,0.0,0.0,0.0,0.0,0.0,0.0,0.0,0.0,0.0,0.0,0.0,0.0,0.0,0.0,0.0,0.0,0.0,0.0,0.0,0.0,0.0,0.0,0.0,0.0,0.0,0.0,0.0,0.0,0.0,0.0,0.0,0.0,0.0,0.0,0.0,0.0,0.0,0.0,0.0,0.0,0.0,0.0,0.0,0.0,-2.833,-2.9678,-3.0408,-3.0817,-3.0719,-2.9357,-2.7445,0.0,0.0,0.0,0.0,0.0,0.0,0.0,0.0,0.0,0.0,0.0,0.0,0.0,0.0,0.0,0.0,0.0,0.0,0.0,0.0,0.0,0.0,0.0,0.0,0.0,0.0,0.0,0.0,0.0,0.0,0.0,0.0,0.0,0.0,0.0,0.0,0.0,0.0,0.0,0.0,0.0,0.0,0.0,0.0,0.0,0.0,0.0,0.0,0.0,0.0,0.0,0.0,0.0,0.0,0.0,0.0,0.0,0.0,0.0,0.0,0.0,0.0,0.0,0.0,0.0,0.0,0.0,0.0,0.0,0.0,0.0,0.0,0.0,0.0,0.0,0.0,0.0,0.0,0.0,0.0,0.0,0.0,0.0,0.0,0.0,0.0,0.0,0.0,0.0,0.0,0.0,0.0,0.0,0.0,0.0,0.0,0.0,0.0,0.0,0.0,0.0,0.0,0.0,0.0,0.0,0.0,0.0,-2.7513,-2.8754,-2.9832,-3.0437,-3.0817,-3.0817,-3.0029,-2.826,-2.5448,0.0,0.0,0.0,0.0,0.0,0.0,0.0,0.0,0.0,0.0,0.0,0.0,0.0,0.0,0.0,0.0,0.0,0.0,0.0,0.0,0.0,0.0,0.0,0.0,0.0,0.0,0.0,0.0,0.0,0.0,0.0,0.0,0.0,0.0,0.0,0.0,0.0,0.0,-1.6759,-1.6386,0.0,0.0,0.0,0.0,0.0,0.0,0.0,0.0,-1.6934,0.0,0.0,0.0,0.0,0.0,0.0,0.0,0.0,0.0,0.0,0.0,0.0,0.0,0.0,0.0,0.0,0.0,0.0,0.0,0.0,0.0,0.0,0.0,0.0,0.0,0.0,0.0,0.0,0.0,0.0,0.0,0.0,0.0,0.0,0.0,0.0,0.0,0.0,0.0,0.0,0.0,0.0,0.0,0.0,0.0,0.0,0.0,0.0,0.0,0.0,0.0,0.0,0.0,0.0,0.0,0.0,-2.6936,-2.7769,-2.8934,-3.0549,-3.0719,-3.0817,-3.0734,-2.9767,-2.7934,-2.5461,0.0,0.0,0.0,0.0,0.0,0.0,0.0,0.0,0.0,0.0,0.0,0.0,0.0,0.0,0.0,0.0,0.0,0.0,0.0,0.0,0.0,0.0,0.0,0.0,0.0,0.0,0.0,0.0,0.0,0.0,0.0,0.0,0.0,0.0,0.0,0.0,0.0,0.0,0.0,-1.7339,-1.7096,0.0,0.0,0.0,0.0,0.0,0.0,0.0,0.0,-1.7644,0.0,0.0,0.0,0.0,0.0,0.0,0.0,0.0,0.0,0.0,0.0,0.0,0.0,0.0,0.0,0.0,0.0,0.0,0.0,0.0,0.0,0.0,0.0,0.0,0.0,0.0,0.0,0.0,0.0,0.0,0.0,0.0,0.0,0.0,0.0,0.0,0.0,0.0,0.0,0.0,0.0,0.0,0.0,0.0,0.0,0.0,0.0,0.0,0.0,0.0,0.0,0.0,0.0,0.0,0.0,-2.7302,-2.8428,-2.9535,-3.0705,-3.0817,-3.0484,-2.9802,-2.9353,-2.7513,0.0,0.0,0.0,0.0,0.0,0.0,0.0,0.0,0.0,0.0,0.0,0.0,0.0,0.0,0.0,0.0,0.0,0.0,0.0,0.0,0.0,0.0,0.0,0.0,0.0,0.0,0.0,0.0,0.0,0.0,0.0,0.0,0.0,0.0,0.0,0.0,0.0,0.0,0.0,0.0,-1.7793,-1.7836,-1.8377,0.0,0.0,0.0,0.0,0.0,0.0,-1.8427,-1.829,0.0,0.0,0.0,0.0,0.0,0.0,0.0,0.0,0.0,0.0,0.0,0.0,0.0,0.0,0.0,0.0,0.0,0.0,0.0,0.0,0.0,0.0,0.0,0.0,0.0,0.0,0.0,0.0,0.0,0.0,0.0,0.0,0.0,0.0,0.0,0.0,0.0,0.0,0.0,0.0,0.0,0.0,0.0,0.0,0.0,0.0,0.0,0.0,0.0,0.0,0.0,0.0,0.0,0.0,0.0,-2.7616,-2.897,-3.0015,-3.0719,-3.0817,-3.0317,-2.9202,-2.8786,-2.6875,0.0,0.0,0.0,0.0,0.0,0.0,0.0,0.0,0.0,0.0,0.0,0.0,0.0,0.0,0.0,0.0,0.0,0.0,0.0,0.0,0.0,0.0,0.0,0.0,0.0,0.0,0.0,0.0,0.0,0.0,0.0,0.0,0.0,0.0,0.0,0.0,0.0,0.0,0.0,0.0,0.0,-1.8406,-1.9194,-1.8416,0.0,0.0,0.0,0.0,-1.8471,-1.9054,0.0,0.0,0.0,0.0,0.0,0.0,0.0,0.0,0.0,0.0,0.0,0.0,0.0,0.0,0.0,0.0,0.0,0.0,0.0,0.0,0.0,0.0,0.0,0.0,0.0,0.0,0.0,0.0,0.0,0.0,0.0,0.0,0.0,0.0,0.0,0.0,0.0,0.0,0.0,0.0,0.0,0.0,0.0,0.0,0.0,0.0,0.0,0.0,0.0,0.0,0.0,0.0,0.0,0.0,0.0,0.0,-2.7616,-2.897,-3.0098,-3.0719,-3.0817,-3.0734,-3.0553,-2.8263,-2.619,0.0,0.0,0.0,0.0,0.0,0.0,0.0,0.0,0.0,0.0,0.0,0.0,0.0,0.0,0.0,0.0,0.0,0.0,0.0,0.0,0.0,0.0,0.0,0.0,0.0,0.0,0.0,0.0,0.0,0.0,0.0,0.0,0.0,0.0,0.0,0.0,0.0,0.0,0.0,0.0,0.0,-1.869,-1.9755,-1.9293,-1.8896,0.0,0.0,-1.9806,-1.9806,-2.0324,0.0,0.0,0.0,0.0,0.0,0.0,0.0,0.0,0.0,0.0,0.0,0.0,0.0,0.0,0.0,0.0,0.0,0.0,0.0,0.0,0.0,0.0,0.0,0.0,0.0,0.0,0.0,0.0,0.0,0.0,0.0,0.0,0.0,0.0,0.0,0.0,0.0,0.0,0.0,0.0,0.0,0.0,0.0,0.0,0.0,0.0,0.0,0.0,0.0,0.0,0.0,0.0,0.0,0.0,0.0,-2.7272,-2.82,-2.9553,-3.052,-3.0817,-3.0817,-3.0401,-2.9635,-2.7975,-2.5903,0.0,0.0,0.0,0.0,0.0,0.0,0.0,0.0,0.0,0.0,0.0,0.0,0.0,0.0,0.0,0.0,0.0,0.0,0.0,0.0,0.0,0.0,0.0,0.0,0.0,0.0,0.0,0.0,0.0,0.0,0.0,0.0,0.0,0.0,0.0,0.0,0.0,0.0,0.0,0.0,0.0,0.0,-2.0089,-1.9886,0.0,0.0,0.0,-2.0119,-1.9743,0.0,0.0,0.0,0.0,0.0,0.0,0.0,0.0,0.0,0.0,0.0,0.0,0.0,0.0,0.0,0.0,0.0,0.0,0.0,0.0,0.0,0.0,0.0,0.0,0.0,0.0,0.0,0.0,0.0,0.0,0.0,0.0,0.0,0.0,0.0,0.0,0.0,0.0,0.0,0.0,0.0,0.0,0.0,0.0,0.0,0.0,0.0,0.0,0.0,0.0,0.0,0.0,0.0,0.0,0.0,0.0,0.0,-2.8557,-3.0083,-3.0817,-3.0817,-3.0817,-3.0317,-2.93,-2.8125,0.0,0.0,0.0,0.0,0.0,0.0,0.0,0.0,0.0,0.0,0.0,0.0,0.0,0.0,0.0,0.0,0.0,0.0,0.0,0.0,0.0,0.0,0.0,0.0,0.0,0.0,0.0,-1.7168,0.0,0.0,0.0,0.0,0.0,0.0,0.0,0.0,0.0,0.0,0.0,0.0,0.0,0.0,-1.9968,-2.0414,-2.0323,-2.0292,0.0,0.0,-2.0352,-2.0003,-2.1116,-2.125,0.0,0.0,0.0,0.0,0.0,0.0,0.0,0.0,0.0,0.0,0.0,0.0,0.0,0.0,0.0,0.0,0.0,0.0,0.0,0.0,0.0,0.0,0.0,0.0,0.0,0.0,0.0,0.0,0.0,0.0,0.0,0.0,0.0,0.0,0.0,0.0,0.0,0.0,0.0,0.0,0.0,0.0,0.0,0.0,0.0,0.0,0.0,0.0,0.0,0.0,0.0,0.0,0.0,0.0,0.0,-2.8639,-3.0083,-3.0832,-3.0817,-3.0817,-3.0734,-3.0651,-2.9159,-2.7224,0.0,0.0,0.0,0.0,0.0,0.0,0.0,0.0,0.0,0.0,0.0,0.0,0.0,0.0,0.0,0.0,0.0,0.0,0.0,0.0,0.0,0.0,0.0,0.0,0.0,0.0,0.0,0.0,0.0,0.0,0.0,0.0,0.0,0.0,0.0,0.0,0.0,0.0,0.0,0.0,0.0,-2.0191,-2.0637,-2.0688,-2.0843,0.0,0.0,-2.0854,-2.1472,-2.2139,-2.1809,-1.9458,0.0,0.0,0.0,0.0,0.0,0.0,0.0,0.0,0.0,0.0,0.0,0.0,0.0,0.0,0.0,0.0,0.0,0.0,0.0,0.0,0.0,0.0,0.0,0.0,0.0,0.0,0.0,0.0,0.0,0.0,0.0,0.0,0.0,0.0,0.0,0.0,0.0,0.0,0.0,0.0,0.0,0.0,0.0,0.0,0.0,0.0,0.0,0.0,0.0,0.0,0.0,0.0,0.0,-2.8217,-2.8653,-3.0271,-3.1124,-3.1124,-3.1315,-3.0978,-3.0113,-2.8625,-2.6755,0.0,0.0,0.0,0.0,0.0,0.0,0.0,0.0,0.0,0.0,0.0,0.0,0.0,0.0,0.0,0.0,0.0,0.0,0.0,0.0,0.0,0.0,0.0,0.0,0.0,0.0,0.0,0.0,-1.9284,-1.9484,-1.8907,0.0,0.0,0.0,0.0,0.0,0.0,0.0,0.0,0.0,0.0,-2.0507,-2.1209,-2.1356,0.0,0.0,-2.1503,-2.125,-2.1114,-2.164,-2.1513,-1.9708,-1.8878,0.0,0.0,0.0,0.0,0.0,0.0,0.0,0.0,0.0,0.0,0.0,0.0,0.0,0.0,0.0,0.0,0.0,0.0,0.0,0.0,0.0,0.0,0.0,0.0,0.0,0.0,0.0,0.0,0.0,0.0,0.0,0.0,0.0,0.0,0.0,0.0,0.0,0.0,0.0,0.0,0.0,0.0,0.0,0.0,0.0,0.0,0.0,0.0,0.0,0.0,0.0,0.0,-2.8547,-2.9186,-3.0676,-3.1658,-3.1993,-3.2218,-3.1476,-2.9827,-2.8747,-2.6973,0.0,0.0,0.0,0.0,0.0,0.0,0.0,0.0,0.0,0.0,0.0,0.0,0.0,0.0,0.0,0.0,0.0,0.0,0.0,0.0,0.0,0.0,0.0,0.0,0.0,0.0,0.0,0.0,-1.9594,-1.9554,-1.8799,0.0,0.0,0.0,0.0,0.0,0.0,0.0,0.0,0.0,0.0,-2.0858,-2.1345,-2.1387,-2.1387,-2.1387,-2.124,-2.0989,-2.0561,-2.0935,-2.0851,-1.9786,0.0,0.0,0.0,0.0,0.0,0.0,0.0,0.0,0.0,0.0,0.0,0.0,0.0,0.0,0.0,0.0,0.0,0.0,0.0,0.0,0.0,0.0,0.0,0.0,0.0,0.0,0.0,0.0,0.0,0.0,-2.7978,0.0,0.0,0.0,0.0,0.0,0.0,0.0,0.0,0.0,0.0,0.0,0.0,0.0,0.0,0.0,0.0,0.0,0.0,0.0,0.0,0.0,0.0,-2.8887,-3.0372,-3.1482,-3.2572,-3.3394,-3.3476,-3.2422,-3.0234,-3.0024,-2.8214,-2.4446,0.0,0.0,0.0,0.0,0.0,0.0,0.0,0.0,0.0,0.0,0.0,0.0,0.0,0.0,0.0,0.0,0.0,0.0,0.0,0.0,0.0,0.0,0.0,0.0,0.0,0.0,-1.8522,-1.9027,-1.9241,0.0,0.0,0.0,0.0,0.0,0.0,0.0,0.0,0.0,0.0,-2.0375,-2.1212,-2.0803,-2.0729,-2.0729,-2.0739,-2.0213,-1.9801,-2.0007,-2.0036,-1.9868,0.0,0.0,0.0,0.0,0.0,0.0,0.0,0.0,0.0,0.0,0.0,0.0,0.0,0.0,0.0,0.0,0.0,0.0,0.0,0.0,0.0,0.0,0.0,0.0,0.0,0.0,0.0,-3.0869,-3.0531,0.0,0.0,0.0,0.0,0.0,0.0,0.0,0.0,0.0,0.0,0.0,-3.134,-3.0902,0.0,0.0,0.0,0.0,0.0,0.0,0.0,0.0,0.0,0.0,0.0,0.0,-2.9653,-3.0483,-3.2324,-3.3463,-3.3794,-3.4016,-3.3037,-3.0737,-2.9676,-2.7037,-2.2766,0.0,0.0,0.0,0.0,0.0,0.0,0.0,0.0,0.0,0.0,0.0,0.0,0.0,0.0,0.0,0.0,0.0,0.0,0.0,0.0,0.0,0.0,0.0,0.0,0.0,-1.9267,0.0,0.0,0.0,0.0,0.0,0.0,0.0,0.0,0.0,0.0,0.0,-1.9479,-2.0096,-2.0196,-2.0329,-2.0506,-2.0256,-2.0346,0.0,0.0,0.0,0.0,0.0,0.0,0.0,0.0,0.0,0.0,0.0,0.0,0.0,0.0,-1.5504,-1.5204,-1.5301,-1.548,-1.565,0.0,0.0,0.0,0.0,0.0,0.0,0.0,0.0,0.0,0.0,0.0,0.0,0.0,0.0,-3.2155,0.0,-3.1559,0.0,0.0,0.0,0.0,0.0,0.0,0.0,0.0,-3.2491,-3.3064,-3.3081,-3.2714,-3.2523,0.0,-3.1606,-3.0109,0.0,0.0,0.0,0.0,0.0,0.0,0.0,0.0,-3.0366,-3.1302,-3.3227,-3.4373,-3.462,-3.4084,-3.2754,-3.0453,-2.7859,-2.5139,-2.2129,-2.1788,-2.123,0.0,0.0,0.0,0.0,0.0,0.0,0.0,0.0,0.0,0.0,0.0,0.0,0.0,0.0,0.0,0.0,0.0,0.0,0.0,0.0,0.0,0.0,0.0,-1.9686,0.0,0.0,0.0,0.0,0.0,0.0,0.0,0.0,0.0,-1.9427,-1.9699,-1.995,-2.0326,-2.0356,-2.0256,-1.9791,0.0,0.0,0.0,0.0,0.0,0.0,0.0,-1.9212,-1.9119,-1.9363,-1.958,-1.992,-1.9231,-1.8662,-1.9173,0.0,0.0,-1.6199,-1.5949,-1.5845,-1.6016,-1.6056,-1.6073,-1.6121,-1.5937,-1.5779,0.0,0.0,0.0,0.0,0.0,0.0,0.0,0.0,-3.3773,-3.3103,0.0,-3.2759,0.0,0.0,0.0,0.0,0.0,-3.1952,0.0,0.0,-3.4886,-3.5473,-3.4399,-3.4067,-3.4067,-3.4286,-3.2837,-3.2126,-3.1999,-3.129,0.0,0.0,0.0,0.0,0.0,0.0,-3.089,-3.2839,-3.4131,-3.5271,-3.5935,-3.3919,-3.167,-2.9328,-2.5129,-2.2859,-2.2675,-2.2043,-2.1776,-2.1974,-2.0717,0.0,0.0,0.0,0.0,0.0,0.0,0.0,0.0,0.0,0.0,0.0,0.0,0.0,0.0,0.0,0.0,0.0,0.0,0.0,0.0,-1.9614,0.0,0.0,0.0,0.0,0.0,0.0,0.0,0.0,0.0,0.0,-1.9608,-2.0143,-2.049,-1.9874,0.0,0.0,0.0,0.0,-2.0637,-1.91,-1.9051,-1.9147,-1.8827,-1.9315,-1.9933,-2.0558,0.0,0.0,-2.1724,-2.1191,-2.0598,-2.0192,-1.9447,-1.8655,-1.7829,-1.6952,-1.6414,-1.6584,-1.6625,-1.6552,-1.6414,-1.6544,-1.6552,-3.3756,0.0,0.0,0.0,0.0,-3.3372,-3.3822,-3.4551,-3.4551,-3.4342,-3.4004,-3.3944,0.0,0.0,0.0,0.0,0.0,0.0,-3.3271,-3.3851,-3.4785,-3.5371,-3.5604,-3.5485,-3.5502,-3.5507,-3.5143,-3.4932,-3.4856,-3.4675,-3.2842,-2.9479,0.0,0.0,0.0,0.0,-3.2027,-3.3658,-3.5011,-3.5855,-3.6097,-3.418,-3.1324,-2.7551,-2.53,-2.3697,-2.2772,-2.2536,-2.2267,-2.1984,-2.1611,0.0,0.0,0.0,0.0,0.0,0.0,0.0,0.0,0.0,0.0,0.0,0.0,0.0,0.0,0.0,0.0,0.0,0.0,0.0,-1.9972,-2.0398,-2.0328,0.0,0.0,0.0,0.0,0.0,0.0,0.0,0.0,0.0,-2.1074,-2.0637,-2.0397,0.0,0.0,-1.9745,-1.8935,-1.9426,-2.0082,-2.0577,-2.0046,0.0,0.0,-2.0753,-2.0491,-2.0881,-2.1716,-2.2402,-2.2412,-2.1985,-2.159,-2.1412,-2.0135,-1.8927,-1.8654,-1.7878,-1.7274,-1.7323,-1.7339,-1.7323,-1.7274,-1.7307,-1.7299,-3.5122,-3.4568,-3.3951,-3.3839,-3.4209,-3.4209,-3.4664,-3.5337,-3.5417,-3.5173,-3.4878,-3.4949,-3.4332,-3.3046,-3.2666,0.0,0.0,0.0,-3.4107,-3.5033,-3.5257,-3.5634,-3.608,-3.6097,-3.6097,-3.6097,-3.6097,-3.6097,-3.6097,-3.5604,-3.4243,-3.1922,0.0,0.0,-3.1203,-3.2031,-3.3095,-3.4343,-3.5514,-3.6097,-3.6097,-3.3249,-3.0079,-2.6537,-2.4788,-2.3537,-2.2772,-2.2772,-2.2695,-2.2616,-2.2354,-2.1942,0.0,0.0,0.0,0.0,0.0,0.0,0.0,0.0,0.0,0.0,0.0,-1.9293,-1.8803,0.0,0.0,0.0,-2.0289,-2.0497,-2.0845,-2.0802,0.0,0.0,0.0,0.0,0.0,0.0,0.0,-2.015,-2.1072,-2.1714,-2.1714,-2.1299,-2.1034,-2.1084,-2.0769,-2.0292,-1.9564,0.0,-2.1042,-2.1312,-2.0995,-2.0969,-2.1888,-2.1807,-2.1767,-2.2168,-2.2771,-2.3226,-2.3226,-2.3035,-2.2674,-2.2132,-2.0953,-1.977,-1.9323,-1.8492,-1.7794,-1.7672,-1.764,-1.764,-1.764,-1.764,-1.764,-3.6183,-3.6033,-3.4618,-3.4342,-3.4991,-3.4991,-3.5434,-3.608,-3.6097,-3.5651,-3.5025,-3.5782,-3.5063,-3.3302,-3.2984,0.0,-3.4448,-3.4432,-3.5033,-3.6097,-3.6097,-3.6097,-3.6097,-3.6097,-3.6097,-3.6097,-3.6097,-3.6097,-3.608,-3.5016,-3.4614,-3.4848,-3.4195,-3.3452,-3.2563,-3.3291,-3.4114,-3.4946,-3.5693,-3.6016,-3.5727,-3.1632,-2.8376,-2.6103,-2.3914,-2.274,-2.2751,-2.2955,-2.3192,-2.3408,-2.2973,-2.2805,-2.2694,0.0,0.0,0.0,0.0,0.0,0.0,0.0,0.0,0.0,0.0,0.0,0.0,0.0,0.0,0.0,-2.1439,0.0,-2.1754,-2.1032,0.0,0.0,0.0,-2.067,-2.1312,-2.145,-2.1557,-2.145,0.0,0.0,-2.1764,-2.1957,-2.2018,-2.2002,-2.2205,-2.1869,-2.0562,-2.1879,-2.2699,-2.1767,-2.1924,-2.2199,-2.234,-2.2733,-2.3252,-2.3828,-2.4118,-2.4086,-2.4086,-2.4086,-2.3638,-2.2586,-2.1685,-2.0668,-1.9759,-1.871,-1.807,-1.7754,-1.7697,-1.7697,-1.7705,-1.7713,-1.7721,-3.6936,-3.6936,-3.6501,-3.6144,-3.5799,-3.5799,-3.5931,-3.6097,-3.6097,-3.5965,-3.5799,-3.5965,-3.5833,-3.5342,-3.5261,-3.5392,-3.5638,-3.5719,-3.585,-3.6097,-3.6097,-3.6097,-3.6097,-3.6097,-3.6097,-3.6097,-3.6097,-3.6097,-3.6097,-3.5833,-3.5672,-3.5757,-3.5591,-3.5056,-3.4246,-3.405,-3.4603,-3.5757,-3.6016,-3.5225,-3.3395,-3.1245,-2.8797,-2.625,-2.426,-2.3225,-2.3225,-2.3289,-2.3429,-2.3655,-2.3576,-2.3396,-2.3035,-2.2012,0.0,0.0,0.0,0.0,0.0,0.0,0.0,0.0,0.0,-1.9926,-1.9237,0.0,-2.0645,0.0,-2.1944,-2.2709,-2.2761,-2.2344,0.0,0.0,-2.1535,-2.1407,-2.1642,-2.2303,-2.2447,-2.1927,-2.2368,-2.2771,-2.2771,-2.2823,-2.2987,-2.3465,-2.274,-2.1917,-2.1598,-2.2447,-2.2976,-2.283,-2.3188,-2.3571,-2.3571,-2.3715,-2.3951,-2.4107,-2.4118,-2.4118,-2.4118,-2.4118,-2.3557,-2.1879,-2.1325,-2.0492,-1.8922,-1.8363,-1.8245,-1.807,-1.8046,-1.8046,-1.8046,-1.8046,-1.8046,-3.721,-3.721,-3.721,-3.697,-3.6594,-3.6594,-3.6594,-3.6594,-3.6594,-3.6594,-3.6594,-3.6594,-3.6594,-3.6594,-3.6594,-3.6594,-3.6594,-3.6594,-3.6594,-3.6594,-3.6594,-3.6594,-3.6594,-3.6594,-3.6594,-3.6594,-3.6594,-3.6594,-3.6594,-3.6594,-3.6594,-3.6594,-3.6594,-3.6348,-3.5839,-3.5408,-3.5738,-3.6833,-3.6679,-3.5427,-3.3152,-3.1237,-2.8944,-2.6088,-2.4007,-2.2751,-2.2469,-2.2564,-2.2757,-2.2894,-2.2909,-2.2872,-2.2591,-2.1727,-2.1034,0.0,0.0,0.0,0.0,0.0,0.0,0.0,0.0,0.0,0.0,0.0,-2.1253,-2.1253,-2.2388,-2.2987,-2.2612,-2.2499,-2.2406,-2.2286,-2.2286,-2.2406,-2.2699,-2.3209,-2.3406,-2.3007,-2.3283,-2.355,-2.355,-2.355,-2.3683,-2.4005,-2.3427,-2.2907,-2.3007,-2.3294,-2.355,-2.355,-2.3838,-2.4118,-2.4118,-2.4118,-2.4118,-2.4118,-2.4118,-2.4118,-2.4118,-2.374,-2.2903,-2.1417,-2.077,-2.0037,-1.8549,-1.8176,-1.8176,-1.8176,-1.8176,-1.8176,-1.8176,-1.8176,-1.8176,-3.7364,-3.7364,-3.7364,-3.7347,-3.7347,-3.7364,-3.7296,-3.721,-3.721,-3.721,-3.721,-3.721,-3.721,-3.721,-3.721,-3.721,-3.721,-3.721,-3.721,-3.721,-3.721,-3.721,-3.721,-3.721,-3.721,-3.721,-3.721,-3.7244,-3.7279,-3.7279,-3.7313,-3.7347,-3.7347,-3.7398,-3.7484,-3.7056,-3.7041,-3.7504,-3.7164,-3.5822,-3.3406,-3.1138,-2.8598,-2.5706,-2.3414,-2.2014,-2.1403,-2.1575,-2.1764,-2.1764,-2.1957,-2.2079,-2.2099,-2.1263,-2.0783,0.0,-2.0057,0.0,0.0,0.0,0.0,0.0,0.0,0.0,0.0,-2.1838,-2.2079,-2.2109,-2.2723,-2.2865,-2.234,-2.224,-2.2491,-2.3129,-2.3252,-2.3427,-2.3994,-2.4118,-2.4118,-2.4118,-2.4118,-2.4118,-2.4107,-2.4118,-2.4118,-2.4118,-2.4097,-2.3984,-2.4107,-2.4005,-2.4097,-2.4118,-2.4118,-2.4118,-2.4118,-2.4118,-2.4118,-2.4118,-2.3924,-2.3924,-2.3832,-2.3087,-2.2063,-2.1047,-2.0223,-1.9387,-1.8363,-1.8176,-1.8176,-1.8176,-1.8176,-1.8176,-1.8176,-1.8176,-1.8176,-3.8118,-3.8118,-3.8118,-3.8118,-3.8118,-3.8118,-3.7775,-3.721,-3.721,-3.721,-3.721,-3.721,-3.721,-3.721,-3.721,-3.721,-3.721,-3.721,-3.721,-3.721,-3.721,-3.721,-3.721,-3.721,-3.721,-3.721,-3.721,-3.7364,-3.7655,-3.7655,-3.7809,-3.8101,-3.8118,-3.8426,-3.8974,0.0,0.0,0.0,-3.6069,-3.4634,-3.1874,-2.965,-2.7511,-2.5368,-2.3151,0.0,-2.1848,-2.1888,-2.1998,-2.1909,-2.1949,0.0,0.0,0.0,0.0,0.0,0.0,0.0,0.0,0.0,0.0,0.0,-2.1848,-2.1699,-2.1734,-2.1927,-2.223,-2.2855,-2.2997,-2.3262,-2.3694,-2.3704,-2.3715,-2.3849,-2.386,-2.3973,-2.4107,-2.4118,-2.4118,-2.4118,-2.4118,-2.4118,-2.4118,-2.4118,-2.4118,-2.4118,-2.4118,-2.4118,-2.4118,-2.4118,-2.4118,-2.4118,-2.4118,-2.4118,-2.4118,-2.4118,-2.4118,-2.4026,-2.3362,-2.2995,-2.28,-2.2063,-2.1047,-2.0223,-1.986,-1.9387,-1.8363,-1.8176,-1.8176,-1.8176,-1.8176,-1.8176,-1.8176,-1.8176,-1.8176,-3.8323,0.0,-3.8323,-3.8323,0.0,-3.8323,-3.8118,-3.7758,-3.7758,-3.7758,-3.7758,-3.7758,-3.7758,-3.7758,-3.7758,-3.7758,-3.7758,-3.7775,-3.7758,-3.7758,-3.7758,-3.7758,-3.7775,-3.7964,-3.8049,-3.8066,-3.8238,-3.8426,-3.8597,-3.8597,-3.87,-3.8888,-3.8888,-3.9077,-3.9436,-3.8905,-3.7808,-3.6385,-3.6293,-3.4461,-3.0784,-2.9531,-2.7417,-2.4272,0.0,0.0,0.0,0.0,0.0,0.0,0.0,0.0,0.0,0.0,0.0,-2.2327,-2.2036,-2.2026,-2.2395,-2.2406,-2.2599,-2.3007,-2.3028,-2.2834,-2.2426,-2.2803,-2.3161,-2.355,-2.356,-2.3704,-2.4097,-2.4118,-2.4118,-2.4118,-2.4118,-2.4118,-2.4118,-2.4118,-2.4118,-2.4118,-2.4118,-2.4118,-2.4118,-2.4118,-2.4118,-2.4118,-2.4118,-2.4118,-2.4118,-2.4118,-2.4118,-2.4118,-2.4118,-2.4118,-2.4118,-2.4118,-2.3832,-2.3454,-2.2892,-2.2432,-2.1971,-2.1047,-2.0223,-1.9759,-1.9294,-1.8735,-1.8363,-1.8176,-1.8176,-1.8176,-1.8176,-1.8135,-1.8079,-1.8111,-1.8176,-3.8323,-3.8323,-3.8323,-3.8323,-3.8323,-3.8323,-3.8323,-3.8323,0.0,0.0,0.0,-3.8323,-3.8323,-3.8323,-3.8323,-3.8323,-3.8323,-3.8323,-3.8323,-3.834,-3.8409,-3.8443,-3.846,-3.882,-3.9008,-3.9025,-3.9316,-3.9505,-3.9573,-3.9556,-3.9607,-3.9659,-3.9659,-3.9625,-3.9556,-3.8808,-3.772,-3.6421,-3.6513,-3.4272,-2.9757,-2.9346,-2.7247,-2.3209,-2.2987,-2.2602,-2.2069,-2.1979,-2.1979,-2.1979,-2.1979,-2.2079,-2.2209,-2.2209,-2.223,-2.236,-2.236,-2.2612,-2.3252,-2.3273,-2.3539,-2.4107,-2.4118,-2.3849,-2.3273,-2.3817,-2.4118,-2.4118,-2.4118,-2.4118,-2.4118,-2.4118,-2.4118,-2.4118,-2.4118,-2.4118,-2.4118,-2.4118,-2.4118,-2.4118,-2.4118,-2.4118,-2.4118,-2.4118,-2.4118,-2.4118,-2.4118,-2.4118,-2.4118,-2.4118,-2.4118,-2.4118,-2.4118,-2.4026,-2.3832,-2.374,-2.3454,-2.2524,-2.2156,-2.1787,-2.0955,-2.0037,-1.9488,-1.9387,-1.8735,-1.8269,-1.8176,-1.8176,-1.8176,-1.8176,-1.8176,-1.8135,-1.8022,-1.8079,-1.8144,-3.8323,-3.8323,-3.8323,-3.8323,-3.8323,-3.8323,-3.8323,-3.8323,-3.8323,-3.8323,-3.8323,-3.8323,-3.8323,-3.8323,-3.8323,-3.8323,-3.8323,-3.8323,-3.8323,-3.834,-3.8666,-3.8837,-3.8854,-3.9214,-3.9402,-3.9402,-3.9436,-3.9642,-3.9933,-3.995,-4.0104,-4.0378,-4.0429,-4.0258,-3.9788,-3.7769,-3.5856,-3.4421,-3.4865,-3.2955,-2.8694,-2.7658,-2.5823,-2.3289,-2.2481,-2.2099,-2.1979,-2.1979,-2.1979,-2.1979,-2.1979,-2.233,-2.2875,-2.2976,-2.3161,-2.3715,-2.3828,-2.3849,-2.3973,-2.3973,-2.3984,-2.4107,-2.4118,-2.4097,-2.3973,-2.4097,-2.4118,-2.4118,-2.4118,-2.4118,-2.4118,-2.4118,-2.4118,-2.4118,-2.4118,-2.4118,-2.4118,-2.4118,-2.4118,-2.4118,-2.4118,-2.4118,-2.4118,-2.4118,-2.4118,-2.4118,-2.4118,-2.4118,-2.4118,-2.4118,-2.4118,-2.4118,-2.4118,-2.374,-2.3271,-2.28,-2.2524,-2.1417,-2.0779,-2.0315,-2.0037,-1.9201,-1.8549,-1.8456,-1.8363,-1.8176,-1.8176,-1.8176,-1.8176,-1.8176,-1.8176,-1.816,-1.8103,-1.8127,-1.807,-3.8323,-3.8323,-3.8323,-3.8323,-3.8323,-3.8323,-3.8323,-3.8323,-3.8323,-3.8323,-3.8323,-3.8323,-3.8323,-3.8323,-3.8323,-3.8323,-3.834,-3.8546,-3.8648,-3.8683,-3.9042,-3.9214,-3.9248,-3.959,-3.9779,-3.9779,-3.9984,-4.0155,-4.0327,-4.0327,-4.0429,-4.0566,-4.0583,-4.0498,-4.0146,-3.7617,-3.5698,-3.4472,-3.3008,-3.0622,-2.7353,-2.678,-2.5558,-2.3673,-2.3294,-2.315,-2.315,-2.315,-2.315,-2.315,-2.315,-2.3294,-2.3571,-2.3673,-2.3817,-2.4107,-2.4118,-2.4118,-2.4118,-2.4118,-2.4118,-2.4118,-2.4118,-2.4118,-2.4118,-2.4118,-2.4118,-2.4118,-2.4118,-2.4118,-2.4118,-2.4118,-2.4118,-2.4118,-2.4118,-2.4118,-2.4118,-2.4118,-2.4118,-2.4118,-2.4118,-2.4118,-2.4118,-2.4118,-2.4118,-2.4118,-2.4118,-2.4118,-2.4118,-2.4118,-2.4118,-2.4118,-2.4118,-2.3924,-2.3454,-2.3454,-2.2995,-2.2063,-2.1047,-2.0315,-1.9851,-1.8828,-1.8269,-1.8176,-1.8176,-1.8176,-1.8176,-1.8176,-1.8176,-1.8176,-1.8176,-1.8152,-1.8062,-1.7965,-1.7892,-3.8323,-3.8323,-3.8323,-3.8323,-3.8323,-3.8323,-3.8323,-3.8323,-3.8323,-3.8323,-3.8323,-3.8323,-3.8323,-3.8323,-3.8323,-3.8375,-3.8494,-3.8785,-3.8957,-3.9077,-3.9419,-3.959,-3.9642,-3.9984,-4.0155,-4.019,-4.0446,-4.0583,-4.0583,-4.0583,-4.0583,-4.0583,-4.0583,-4.0294,-3.964,-3.6924,-3.4905,-3.3421,-3.053,-2.8153,-2.6462,-2.63,-2.5548,-2.421,-2.4118,-2.4118,-2.4118,-2.4118,-2.4118,-2.4118,-2.4118,-2.4118,-2.4118,-2.4118,-2.4118,-2.4118,-2.4118,-2.4118,-2.4118,-2.4118,-2.4118,-2.4118,-2.4118,-2.4118,-2.4118,-2.4118,-2.4118,-2.4118,-2.4118,-2.4118,-2.4118,-2.4118,-2.4118,-2.4118,-2.4118,-2.4118,-2.4118,-2.4118,-2.4118,-2.4118,-2.4118,-2.4118,-2.4118,-2.4118,-2.4118,-2.4118,-2.4118,-2.4118,-2.4118,-2.4118,-2.4118,-2.4118,-2.4118,-2.374,-2.3557,-2.3281,-2.2718,-2.1869,-2.0862,-2.0028,-1.9294,-1.8642,-1.8269,-1.8176,-1.8176,-1.8176,-1.8176,-1.8176,-1.8176,-1.8176,-1.8176,-1.8135,-1.803,-1.7916,-1.7811,-3.8323,-3.8323,-3.8323,-3.8323,-3.8323,-3.8323,-3.8323,-3.8323,-3.8323,-3.8323,-3.8323,-3.8323,-3.834,-3.8323,-3.834,-3.8529,-3.8837,-3.8905,-3.9111,-3.9436,-3.9813,-3.9984,-4.0018,-4.0344,-4.0532,-4.0515,-4.0566,-4.0583,-4.0583,-4.0583,-4.0583,-4.0583,-4.0583,-3.9366,-3.7191,-3.472,-3.2134,-2.9431,-2.6747,-2.5675,-2.6537,-2.6394,-2.5639,-2.4118,-2.4118,-2.4118,-2.4118,-2.4118,-2.4118,-2.4118,-2.4118,-2.4118,-2.4118,-2.4118,-2.4118,-2.4118,-2.4118,-2.4118,-2.4118,-2.4118,-2.4118,-2.4118,-2.4118,-2.4118,-2.4118,-2.4118,-2.4118,-2.4118,-2.4118,-2.4118,-2.4118,-2.4118,-2.4118,-2.4118,-2.4118,-2.4118,-2.4118,-2.4118,-2.4118,-2.4118,-2.4118,-2.4118,-2.4118,-2.4118,-2.4118,-2.4118,-2.4118,-2.4118,-2.4118,-2.4026,-2.3924,-2.4026,-2.4026,-2.3281,-2.2073,-2.1427,-2.1047,-1.9378,-1.8727,-1.8735,-1.8642,-1.8456,-1.8176,-1.8176,-1.8176,-1.8176,-1.8176,-1.8176,-1.8176,-1.8176,-1.8176,-1.8168,-1.8152,-1.8111,-1.803,-3.8323,-3.8323,-3.8323,-3.8323,-3.8323,-3.8323,-3.8323,-3.8323,-3.8323,-3.8323,-3.8357,-3.8563,-3.8666,-3.8666,-3.8683,-3.8888,-3.9248,-3.947,-3.9659,-3.983,-4.019,-4.0361,-4.0378,-4.0498,-4.0583,-4.0583,-4.0583,-4.0583,-4.0583,-4.0583,-4.0311,-3.9765,-3.9673,-3.8435,-3.5881,-3.3455,-3.1125,-2.9128,-2.6454,-2.5265,-2.5678,-2.5291,-2.4749,-2.421,-2.4118,-2.4118,-2.4118,-2.4118,-2.4118,-2.4118,-2.4118,-2.4118,-2.4118,-2.4118,-2.4118,-2.4118,-2.4118,-2.4118,-2.4118,-2.4118,-2.4118,-2.4118,-2.4118,-2.4118,-2.4118,-2.4118,-2.4118,-2.4118,-2.4118,-2.4118,-2.4118,-2.4118,-2.4118,-2.4118,-2.4118,-2.4118,-2.4118,-2.4118,-2.4118,-2.4118,-2.4118,-2.4118,-2.4118,-2.4118,-2.4118,-2.4118,-2.4118,-2.4118,-2.4118,-2.3649,-2.3271,-2.3087,-2.2718,-2.235,-2.1787,-2.1417,-2.077,-2.0028,-1.9387,-1.9108,-1.8922,-1.8456,-1.8176,-1.8176,-1.8176,-1.8176,-1.8176,-1.8176,-1.8176,-1.8176,-1.8176,-1.8176,-1.8176,-1.8176,-1.7808,-3.8323,-3.8323,-3.8323,-3.8323,-3.8323,-3.8323,-3.8323,-3.8323,-3.8323,-3.8392,-3.8512,-3.8785,-3.9042,-3.9196,-3.9111,-3.9265,-3.9625,-3.9916,-4.0087,-4.0207,-4.0464,-4.0583,-4.0583,-4.0583,-4.0583,-4.0583,-4.0583,-4.0583,-4.0583,-4.0311,-3.9839,-3.9109,-3.8834,-3.7223,-3.4406,-3.2434,-3.0458,-2.8248,-2.6145,-2.5184,-2.5098,-2.4603,-2.428,-2.4215,-2.4151,-2.4118,-2.4118,-2.4118,-2.4118,-2.4118,-2.4118,-2.4118,-2.4118,-2.4118,-2.4118,-2.4118,-2.4118,-2.4118,-2.4118,-2.4118,-2.4118,-2.4118,-2.4118,-2.4118,-2.4118,-2.4118,-2.4118,-2.4118,-2.4118,-2.4118,-2.4118,-2.4118,-2.4118,-2.4118,-2.4118,-2.4118,-2.4118,-2.4118,-2.4118,-2.4118,-2.4118,-2.4118,-2.4118,-2.4118,-2.4118,-2.4118,-2.4118,-2.3924,-2.3649,-2.3087,-2.2524,-2.2248,-2.1325,-2.1047,-2.1602,-2.114,-2.0779,-2.0214,-1.948,-1.9108,-1.9302,-1.8549,-1.8176,-1.8176,-1.8176,-1.8176,-1.8176,-1.8176,-1.8176,-1.8176,-1.8176,-1.8176,-1.8176,-1.8176,-1.7328,-3.8323,-3.8323,-3.8323,-3.8323,-3.8323,-3.8323,-3.8323,-3.8323,-3.8323,-3.8529,-3.8837,-3.8922,-3.9316,-3.9899,-3.9607,-3.9659,-3.9984,-4.0053,-4.0241,-4.0515,-4.0566,-4.0583,-4.0583,-4.0583,-4.0583,-4.0583,-4.0583,-4.0583,-4.0493,-3.9673,-3.9125,-3.9017,-3.8083,-3.5725,-3.2339,-3.1691,-2.96,-2.626,-2.5495,-2.5195,-2.5163,-2.4915,-2.4657,-2.4474,-2.4247,-2.4151,-2.4129,-2.4118,-2.4118,-2.4118,-2.4118,-2.4118,-2.4118,-2.4118,-2.4118,-2.4118,-2.4118,-2.4118,-2.4118,-2.4118,-2.4118,-2.4118,-2.4118,-2.4118,-2.4118,-2.4118,-2.4118,-2.4118,-2.4118,-2.4118,-2.4118,-2.4118,-2.4118,-2.4118,-2.4118,-2.4118,-2.4118,-2.4118,-2.4118,-2.4118,-2.4118,-2.4118,-2.4118,-2.4118,-2.4026,-2.4026,-2.4026,-2.374,-2.28,-2.2524,-2.2063,-2.1232,-2.0408,-1.9767,-1.986,-1.9851,-1.9387,-1.9015,-1.8828,-1.8363,-1.8269,-1.8176,-1.8176,-1.8176,-1.8176,-1.8176,-1.8176,-1.8176,-1.8176,-1.8176,-1.8176,-1.8176,-1.8176,-1.8176,-1.7141,-3.8323,-3.8323,-3.8323,-3.8323,-3.8323,-3.8323,-3.8323,-3.8323,-3.8323,-3.8546,-3.8922,-3.9162,-3.9556,-4.0036,-4.0138,-4.0258,-4.0378,-4.0395,-4.0464,-4.0583,-4.0583,-4.0583,-4.0583,-4.0583,-4.0583,-4.0583,-4.0583,-4.022,-3.9673,-3.9308,-3.8483,-3.7362,-3.69,-3.4636,-3.1326,-3.0661,-2.8943,-2.5895,-2.5432,-2.5399,-2.5367,-2.5163,-2.5001,-2.4915,-2.4689,-2.4484,-2.4334,-2.4334,-2.4269,-2.4129,-2.4118,-2.4118,-2.4118,-2.4118,-2.4118,-2.4118,-2.4118,-2.4118,-2.4118,-2.4118,-2.4118,-2.4118,-2.4118,-2.4118,-2.4118,-2.4118,-2.4118,-2.4118,-2.4118,-2.4118,-2.4118,-2.4118,-2.4118,-2.4118,-2.4118,-2.4129,-2.4118,-2.4118,-2.4118,-2.4118,-2.4118,-2.4118,-2.4129,-2.4118,-2.3832,-2.3271,-2.3179,-2.2718,-2.1787,-2.114,-2.0686,-2.0223,-1.9387,-1.8735,-1.8735,-1.8735,-1.8549,-1.8456,-1.8269,-1.8269,-1.8176,-1.8176,-1.8176,-1.8176,-1.8176,-1.8176,-1.8176,-1.8176,-1.8176,-1.8176,-1.8176,-1.8176,-1.8176,-1.8176,-1.6767,-3.8323,-3.8323,-3.8323,-3.8323,-3.8323,-3.8323,-3.8323,-3.834,-3.846,-3.8734,-3.9111,-3.9488,-3.9864,-4.0207,-4.0481,-4.0583,-4.0583,-4.0583,-4.0583,-4.0583,-4.0583,-4.0583,-4.0583,-4.0583,-4.0583,-4.0583,-4.0583,-4.0129,-3.9217,-3.9109,-3.8099,-3.6359,-3.6173,-3.4168,-3.0756,-3.009,-2.8572,-2.6089,-2.5518,-2.5518,-2.5496,-2.5367,-2.5292,-2.526,-2.512,-2.4883,-2.4592,-2.457,-2.4463,-2.4269,-2.4226,-2.4194,-2.4129,-2.4118,-2.4118,-2.4118,-2.4118,-2.4118,-2.4118,-2.4118,-2.4118,-2.4118,-2.4118,-2.4118,-2.4118,-2.4183,-2.4215,-2.4237,-2.4301,-2.4334,-2.4334,-2.4344,-2.4312,-2.4247,-2.4226,-2.4258,-2.4323,-2.4344,-2.4355,-2.4355,-2.429,-2.4247,-2.4123,-2.3783,-2.3373,-2.2616,-2.234,-2.1694,-2.077,-2.013,-1.9488,-1.9294,-1.8735,-1.8363,-1.8363,-1.8363,-1.8363,-1.8269,-1.8176,-1.8176,-1.8176,-1.8176,-1.8176,-1.8176,-1.8176,-1.8176,-1.8176,-1.8176,-1.8176,-1.8176,-1.8176,-1.8176,-1.8176,-1.8176,-1.658,-3.8323,-3.8323,-3.8323,-3.8323,-3.8323,-3.8323,-3.8323,-3.8392,-3.8717,-3.9059,-3.9419,-3.983,-4.0173,-4.0515,-4.0566,-4.0583,-4.0583,-4.0583,-4.0583,-4.0583,-4.0583,-4.0583,-4.0583,-4.0583,-4.0583,-4.0583,-4.0583,-4.0021,-3.9017,-3.8742,-3.7823,-3.6452,-3.608,-3.3995,-3.009,-2.9994,-2.8572,-2.6186,-2.5518,-2.5518,-2.5518,-2.5496,-2.5486,-2.5496,-2.5475,-2.526,-2.485,-2.4818,-2.47,-2.4495,-2.4441,-2.4344,-2.4183,-2.4172,-2.414,-2.4151,-2.414,-2.414,-2.414,-2.4161,-2.4194,-2.4194,-2.4161,-2.4194,-2.4237,-2.4355,-2.4463,-2.4495,-2.4624,-2.4753,-2.4743,-2.4732,-2.4667,-2.4506,-2.4463,-2.4538,-2.47,-2.4775,-2.4786,-2.4732,-2.4581,-2.4474,-2.4234,-2.3571,-2.282,-2.243,-2.1679,-2.0844,-1.9905,-1.9625,-1.9226,-1.8549,-1.8269,-1.8176,-1.8176,-1.8176,-1.8176,-1.8176,-1.8176,-1.8176,-1.8176,-1.8176,-1.8176,-1.8176,-1.8176,-1.8176,-1.8176,-1.8176,-1.8176,-1.8176,-1.8176,-1.8176,-1.8176,-1.7896,-1.6486,-3.8323,-3.8323,-3.8323,-3.8323,-3.8323,-3.8323,-3.8323,-3.8375,-3.8751,-3.9128,-3.9488,-3.9864,-4.0241,-4.0515,-4.0583,-4.0583,-4.0583,-4.0583,-4.0583,-4.0583,-4.0583,-4.0583,-4.0583,-4.0583,-4.0583,-4.0493,-3.9856,-3.9017,-3.8099,-3.7454,-3.6452,-3.535,-3.5163,-3.3431,-3.028,-2.9994,-2.8572,-2.5895,-2.5518,-2.5518,-2.5518,-2.5518,-2.5518,-2.5518,-2.5518,-2.5432,-2.5303,-2.5141,-2.4947,-2.47,-2.4549,-2.443,-2.4387,-2.4506,-2.4517,-2.4398,-2.4506,-2.4506,-2.4398,-2.4495,-2.457,-2.4581,-2.4581,-2.4592,-2.4592,-2.4646,-2.47,-2.47,-2.4764,-2.4797,-2.4797,-2.4797,-2.4786,-2.471,-2.47,-2.4721,-2.4829,-2.4829,-2.4797,-2.4797,-2.4743,-2.47,-2.4501,-2.3645,-2.2759,-2.2102,-2.1169,-2.0197,-1.9244,-1.9022,-1.8767,-1.8302,-1.82,-1.8208,-1.8217,-1.8225,-1.8208,-1.8192,-1.8176,-1.8176,-1.8176,-1.8176,-1.8176,-1.8176,-1.8176,-1.8176,-1.8176,-1.8176,-1.8176,-1.8176,-1.8176,-1.8176,-1.8176,-1.7421,-1.6205,-3.8323,-3.8323,-3.8323,-3.8323,-3.8323,-3.8323,-3.8426,-3.8597,-3.8957,-3.9316,-3.971,-4.007,-4.0361,-4.0549,-4.0583,-4.0583,-4.0583,-4.0583,-4.0583,-4.0583,-4.0583,-4.0583,-4.0583,-4.0583,-4.0311,-3.9947,-3.9399,-3.8375,-3.7177,-3.6807,-3.6065,-3.4976,-3.5069,-3.3525,-3.0471,-2.9994,-2.8572,-2.5992,-2.5518,-2.5518,-2.5518,-2.5518,-2.5518,-2.5518,-2.5518,-2.5475,-2.5399,-2.5249,-2.5066,-2.4797,-2.4506,-2.4344,-2.4344,-2.4452,-2.4484,-2.442,-2.4527,-2.4603,-2.4506,-2.4657,-2.4797,-2.4797,-2.4797,-2.4797,-2.4818,-2.4861,-2.4937,-2.4937,-2.5033,-2.5066,-2.5076,-2.5076,-2.5066,-2.5066,-2.499,-2.499,-2.5033,-2.5066,-2.5076,-2.5076,-2.5012,-2.4958,-2.4747,-2.3978,-2.2914,-2.1963,-2.0915,-1.9845,-1.8963,-1.8653,-1.846,-1.8403,-1.8436,-1.8403,-1.8306,-1.8273,-1.8249,-1.8217,-1.8176,-1.8176,-1.8176,-1.8176,-1.8176,-1.8176,-1.8176,-1.8176,-1.8176,-1.8176,-1.8176,-1.8176,-1.8176,-1.8176,-1.8083,-1.7328,-1.6104,-3.8323,-3.8323,-3.8323,-3.8323,-3.8323,-3.8323,-3.8529,-3.8922,-3.9282,-3.9642,-4.0018,-4.0361,-4.0549,-4.0583,-4.0583,-4.0583,-4.0583,-4.0583,-4.0583,-4.0583,-4.0583,-4.0583,-4.0583,-4.0402,-3.9947,-3.9308,-3.8942,-3.7915,-3.6436,-3.6807,-3.6529,-3.4882,-3.5148,-3.3981,-3.0661,-2.9994,-2.838,-2.5895,-2.5518,-2.5518,-2.5518,-2.5518,-2.5518,-2.5518,-2.5486,-2.5389,-2.5238,-2.512,-2.499,-2.4753,-2.4409,-2.4247,-2.4161,-2.414,-2.4247,-2.4215,-2.4366,-2.4474,-2.4517,-2.4678,-2.4797,-2.4797,-2.4797,-2.4797,-2.4818,-2.4958,-2.5087,-2.513,-2.5292,-2.5432,-2.5453,-2.5453,-2.5464,-2.5475,-2.5292,-2.5281,-2.5464,-2.5486,-2.5432,-2.5432,-2.5324,-2.5195,-2.5184,-2.4154,-2.3024,-2.2049,-2.1005,-1.9949,-1.9129,-1.8736,-1.8728,-1.8688,-1.8623,-1.8574,-1.8476,-1.846,-1.8444,-1.8412,-1.8338,-1.8282,-1.8217,-1.8192,-1.8176,-1.8176,-1.8208,-1.82,-1.8176,-1.8176,-1.8176,-1.8176,-1.8176,-1.8176,-1.7803,-1.7141,-1.5823,-3.8323,-3.8323,-3.8323,-3.8323,-3.8323,-3.8323,-3.8563,-3.894,-3.9316,-3.971,-4.007,-4.0412,-4.0583,-4.0583,-4.0583,-4.0583,-4.0583,-4.0583,-4.0583,-4.0583,-4.0583,-4.0583,-4.0402,-3.9856,-3.9308,-3.885,-3.7747,-3.673,-3.6173,-3.5801,-3.5241,-3.4695,-3.3916,-3.2475,-3.028,-2.9051,-2.743,-2.5809,-2.5518,-2.5518,-2.5518,-2.5518,-2.5518,-2.5507,-2.5356,-2.5249,-2.5141,-2.4829,-2.4635,-2.457,-2.4624,-2.4538,-2.4377,-2.4474,-2.4474,-2.4387,-2.4549,-2.4624,-2.4538,-2.4678,-2.4797,-2.4797,-2.4797,-2.4797,-2.4797,-2.4861,-2.499,-2.512,-2.5249,-2.5335,-2.5464,-2.5518,-2.5518,-2.5518,-2.5443,-2.5432,-2.5496,-2.5518,-2.5518,-2.5507,-2.5453,-2.5324,-2.5099,-2.438,-2.3255,-2.2189,-2.1208,-2.0208,-1.9336,-1.8915,-1.8907,-1.8777,-1.8704,-1.8688,-1.8671,-1.8655,-1.8647,-1.8639,-1.8558,-1.8452,-1.8338,-1.8217,-1.82,-1.8176,-1.8273,-1.8298,-1.8225,-1.8184,-1.8184,-1.8241,-1.8208,-1.8217,-1.7717,-1.7048,-1.5448,-3.8323,-3.8323,-3.8323,-3.8323,-3.8357,-3.8494,-3.8785,-3.9162,-3.9539,-3.9916,-4.0258,-4.0481,-4.0583,-4.0583,-4.0583,-4.0583,-4.0583,-4.0583,-4.0583,-4.0583,-4.0583,-4.0402,-3.9947,-3.9291,-3.8742,-3.7823,-3.673,-3.608,-3.5536,-3.4976,-3.471,-3.4414,-3.3149,-3.1623,-3.0102,-2.8572,-2.7044,-2.5809,-2.5518,-2.5518,-2.5518,-2.5518,-2.5453,-2.5389,-2.5227,-2.512,-2.4872,-2.4517,-2.4355,-2.4441,-2.4495,-2.4452,-2.4344,-2.443,-2.4452,-2.4323,-2.4527,-2.4592,-2.4538,-2.4678,-2.4797,-2.4797,-2.4797,-2.4797,-2.4797,-2.4807,-2.4893,-2.499,-2.5023,-2.5141,-2.5335,-2.5453,-2.5507,-2.5518,-2.5518,-2.5518,-2.5518,-2.5518,-2.5518,-2.5421,-2.5129,-2.4838,-2.4838,-2.3961,-2.2974,-2.1888,-2.1174,-2.0247,-1.9412,-1.92,-1.9069,-1.8948,-1.8891,-1.8907,-1.8866,-1.8834,-1.8785,-1.8777,-1.8761,-1.8655,-1.855,-1.8387,-1.8379,-1.8395,-1.8403,-1.8395,-1.8363,-1.8347,-1.8379,-1.8395,-1.8322,-1.7882,-1.7288,-1.6459,-1.4845,-3.8323,-3.8323,-3.8323,-3.8323,-3.8392,-3.8751,-3.9094,-3.9488,-3.983,-4.0207,-4.0498,-4.0566,-4.0583,-4.0583,-4.0583,-4.0583,-4.0583,-4.0583,-4.0583,-4.0583,-4.0402,-3.9856,-3.9017,-3.8834,-3.7915,-3.6637,-3.6173,-3.5536,-3.4976,-3.471,-3.4508,-3.393,-3.2772,-3.1339,-2.9625,-2.8188,-2.6851,-2.5809,-2.5518,-2.5518,-2.5496,-2.5464,-2.5367,-2.5227,-2.5066,-2.4829,-2.4517,-2.4258,-2.4215,-2.442,-2.4226,-2.4161,-2.4129,-2.4129,-2.4129,-2.4161,-2.4312,-2.442,-2.4441,-2.457,-2.47,-2.4667,-2.4689,-2.4732,-2.4678,-2.4657,-2.4689,-2.4764,-2.4775,-2.4915,-2.5184,-2.5389,-2.5496,-2.5518,-2.5518,-2.5518,-2.5518,-2.5518,-2.5518,-2.5324,-2.4546,-2.4048,-2.3658,-2.2974,-2.2093,-2.1514,-2.0826,-2.0307,-1.9593,-1.929,-1.9191,-1.9183,-1.9151,-1.9151,-1.9086,-1.9013,-1.8948,-1.8899,-1.8907,-1.8858,-1.8826,-1.872,-1.8696,-1.8671,-1.8582,-1.8582,-1.8623,-1.8615,-1.8606,-1.8558,-1.8485,-1.7537,-1.6517,-1.5425,-1.4013,-3.8323,-3.8323,-3.8323,-3.8323,-3.8392,-3.8751,-3.9128,-3.9488,-3.9881,-4.0258,-4.0515,-4.0583,-4.0583,-4.0583,-4.0583,-4.0583,-4.0583,-4.0583,-4.0583,-4.0493,-3.9765,-3.8926,-3.8083,-3.7899,-3.727,-3.6173,-3.535,-3.4882,-3.471,-3.4616,-3.4024,-3.2866,-3.1623,-2.9816,-2.838,-2.7044,-2.5895,-2.5518,-2.5518,-2.5507,-2.5453,-2.5346,-2.5227,-2.5109,-2.4807,-2.4495,-2.4258,-2.414,-2.414,-2.4161,-2.4151,-2.4118,-2.4118,-2.4118,-2.4118,-2.4129,-2.4151,-2.4204,-2.4204,-2.4269,-2.4269,-2.4312,-2.4323,-2.4269,-2.4269,-2.429,-2.4377,-2.4484,-2.4549,-2.4721,-2.5098,-2.5378,-2.5486,-2.5507,-2.5518,-2.5518,-2.5518,-2.5518,-2.5227,-2.4546,-2.4156,-2.3668,-2.2877,-2.2485,-2.1701,-2.1022,-2.053,-2.0243,-1.9849,-1.9363,-1.9264,-1.9264,-1.9248,-1.9224,-1.9191,-1.9134,-1.9094,-1.9037,-1.9037,-1.9037,-1.9013,-1.8948,-1.8883,-1.8801,-1.8712,-1.8753,-1.8834,-1.8785,-1.8753,-1.8704,-1.8559,-1.7436,-1.6237,-1.4911,-1.3153,-3.8323,-3.8323,-3.8323,-3.8323,-3.8426,-3.8922,-3.9282,-3.9556,-4.007,-4.0395,-4.0549,-4.0583,-4.0583,-4.0583,-4.0583,-4.0583,-4.0583,-4.0583,-4.0311,-3.9856,-3.9217,-3.8375,-3.7177,-3.69,-3.6436,-3.5521,-3.4976,-3.471,-3.471,-3.4522,-3.393,-3.238,-3.0851,-2.9421,-2.7815,-2.6282,-2.5615,-2.5518,-2.5518,-2.5475,-2.5346,-2.5249,-2.5012,-2.484,-2.4495,-2.4226,-2.4129,-2.4118,-2.4118,-2.4118,-2.4118,-2.4118,-2.4118,-2.4118,-2.4118,-2.4118,-2.4118,-2.4118,-2.4118,-2.4118,-2.4129,-2.4118,-2.4118,-2.4118,-2.4118,-2.4118,-2.4161,-2.4258,-2.4334,-2.4484,-2.4947,-2.5216,-2.5367,-2.5507,-2.5518,-2.5518,-2.5518,-2.5518,-2.5129,-2.4146,-2.3561,-2.2681,-2.2093,-2.1505,-2.0924,-2.0046,-1.9947,-1.975,-1.9651,-1.9264,-1.9264,-1.9264,-1.9264,-1.9256,-1.9256,-1.924,-1.9224,-1.9191,-1.9183,-1.9183,-1.9167,-1.9094,-1.9013,-1.8956,-1.8923,-1.8988,-1.9045,-1.8972,-1.8907,-1.8866,-1.8439,-1.7433,-1.6125,-1.4629,-1.2756,-3.8323,-3.8323,-3.8323,-3.8323,-3.8443,-3.9128,-3.9453,-3.9573,-4.0258,-4.0549,-4.0583,-4.0583,-4.0583,-4.0583,-4.0583,-4.0583,-4.0583,-4.0311,-3.9856,-3.9308,-3.8575,-3.7639,-3.6545,-3.5987,-3.5615,-3.4803,-3.471,-3.471,-3.4616,-3.4305,-3.3257,-3.1908,-3.0483,-2.8764,-2.7334,-2.6282,-2.5518,-2.5518,-2.5453,-2.5378,-2.5184,-2.5087,-2.4807,-2.4474,-2.428,-2.4151,-2.4118,-2.4118,-2.4118,-2.4118,-2.4118,-2.4118,-2.4118,-2.4118,-2.4118,-2.4118,-2.4118,-2.4118,-2.4118,-2.4118,-2.4118,-2.4118,-2.4118,-2.4118,-2.4118,-2.4118,-2.4129,-2.4172,-2.4247,-2.4452,-2.4775,-2.513,-2.5335,-2.5464,-2.5518,-2.5421,-2.5324,-2.5227,-2.4633,-2.3756,-2.2681,-2.1701,-2.0826,-2.0136,-1.9651,-1.9264,-1.9264,-1.9264,-1.9264,-1.9264,-1.9264,-1.9264,-1.9264,-1.9264,-1.9264,-1.9264,-1.9264,-1.9264,-1.9264,-1.9264,-1.9264,-1.9199,-1.9134,-1.9183,-1.9191,-1.9207,-1.9199,-1.9151,-1.9094,-1.9045,-1.8622,-1.7719,-1.6272,-1.4432,-1.2369,-3.8323,-3.8323,-3.8323,-3.8323,-3.8443,-3.9145,-3.947,-3.959,-4.0275,-4.0566,-4.0583,-4.0583,-4.0583,-4.0583,-4.0583,-4.0583,-4.0493,-3.9947,-3.9291,-3.8651,-3.7731,-3.6452,-3.608,-3.5443,-3.4882,-3.4803,-3.471,-3.471,-3.432,-3.3445,-3.2286,-3.0566,-2.9051,-2.7526,-2.6379,-2.5615,-2.5486,-2.5443,-2.5324,-2.5195,-2.5066,-2.4786,-2.4506,-2.4226,-2.414,-2.4118,-2.4118,-2.4118,-2.4118,-2.4118,-2.4118,-2.4118,-2.4118,-2.4118,-2.4118,-2.4118,-2.4118,-2.4118,-2.4118,-2.4118,-2.4118,-2.4118,-2.4118,-2.4118,-2.4118,-2.4118,-2.4118,-2.4204,-2.442,-2.47,-2.4797,-2.5152,-2.5421,-2.5507,-2.5324,-2.5129,-2.4546,-2.4048,-2.3756,-2.2779,-2.171,-2.0826,-2.0145,-1.9553,-1.9454,-1.9264,-1.9264,-1.9264,-1.9264,-1.9264,-1.9264,-1.9264,-1.9264,-1.9264,-1.9264,-1.9264,-1.9264,-1.9264,-1.9264,-1.9264,-1.9264,-1.9264,-1.9264,-1.9264,-1.9264,-1.9248,-1.9248,-1.9264,-1.9232,-1.9159,-1.8675,-1.8091,-1.6032,-1.3992,-1.2409,-3.8323,-3.8323,-3.8323,-3.8443,-3.8717,-3.9214,-3.959,-3.983,-4.0344,-4.0583,-4.0583,-4.0583,-4.0583,-4.0583,-4.0583,-4.0583,-4.0311,-3.9582,-3.8834,-3.8099,-3.69,-3.5894,-3.5521,-3.4882,-3.4803,-3.471,-3.471,-3.471,-3.4522,-3.3149,-3.1529,-3.009,-2.8572,-2.7044,-2.5765,-2.5389,-2.5356,-2.5303,-2.512,-2.4926,-2.4807,-2.4452,-2.4226,-2.4151,-2.4118,-2.4118,-2.4118,-2.4118,-2.4118,-2.4118,-2.4118,-2.4118,-2.4118,-2.4118,-2.4118,-2.4118,-2.4118,-2.4118,-2.4118,-2.4118,-2.4118,-2.4118,-2.4118,-2.4118,-2.4118,-2.4118,-2.4118,-2.4194,-2.4377,-2.4678,-2.4797,-2.5152,-2.5367,-2.5399,-2.5032,-2.4546,-2.3863,-2.2974,-2.2289,-2.171,-2.1219,-2.0432,-1.9651,-1.9355,-1.9264,-1.9264,-1.9264,-1.9264,-1.9264,-1.9264,-1.9264,-1.9264,-1.9264,-1.9264,-1.9264,-1.9264,-1.9264,-1.9264,-1.9264,-1.9264,-1.9264,-1.9264,-1.9264,-1.9264,-1.9264,-1.9264,-1.9264,-1.9264,-1.9264,-1.9157,-1.8244,-1.7133,-1.5353,-1.355,-1.2028,-3.8323,-3.8323,-3.8323,-3.8563,-3.894,-3.9316,-3.9676,-4.0053,-4.0412,-4.0583,-4.0583,-4.0583,-4.0583,-4.0583,-4.0583,-4.0493,-4.022,-3.92,-3.8191,-3.727,-3.6266,-3.5443,-3.4882,-3.471,-3.471,-3.471,-3.471,-3.4508,-3.3836,-3.2489,-3.1041,-2.9421,-2.7996,-2.6851,-2.5669,-2.5313,-2.5216,-2.5087,-2.4872,-2.4624,-2.4398,-2.4226,-2.4118,-2.4118,-2.4118,-2.4118,-2.4118,-2.4118,-2.4118,-2.4118,-2.4118,-2.4118,-2.4118,-2.4118,-2.4118,-2.4118,-2.4118,-2.4118,-2.4118,-2.4118,-2.4118,-2.4118,-2.4118,-2.4118,-2.4118,-2.4118,-2.4118,-2.4161,-2.4409,-2.4624,-2.4818,-2.4896,-2.5024,-2.4872,-2.4243,-2.3463,-2.2877,-2.2093,-2.1121,-2.0727,-2.053,-2.0136,-1.9454,-1.9264,-1.9264,-1.9264,-1.9264,-1.9264,-1.9264,-1.9264,-1.9264,-1.9264,-1.9264,-1.9264,-1.9264,-1.9264,-1.9264,-1.9264,-1.9264,-1.9264,-1.9264,-1.9264,-1.9264,-1.9264,-1.9264,-1.9264,-1.9264,-1.9157,-1.896,-1.8465,-1.7566,-1.6162,-1.4165,-1.2968,-1.1858,-3.8323,-3.8323,-3.8323,-3.8546,-3.8957,-3.9316,-3.9676,-4.0087,-4.0446,-4.0583,-4.0583,-4.0583,-4.0583,-4.0583,-4.0493,-4.0038,-3.9291,-3.8283,-3.7362,-3.6529,-3.5536,-3.4976,-3.471,-3.471,-3.471,-3.4616,-3.4616,-3.3836,-3.2677,-3.1231,-2.9708,-2.8284,-2.6851,-2.5701,-2.5539,-2.5227,-2.5184,-2.5087,-2.4721,-2.4398,-2.4204,-2.4129,-2.4118,-2.4118,-2.4118,-2.4118,-2.4118,-2.4118,-2.4118,-2.4118,-2.4118,-2.4118,-2.4118,-2.4118,-2.4118,-2.4118,-2.4118,-2.4118,-2.4118,-2.4118,-2.4118,-2.4118,-2.4118,-2.4118,-2.4118,-2.4118,-2.4118,-2.4129,-2.4484,-2.4732,-2.4672,-2.4438,-2.4258,-2.3843,-2.3365,-2.2289,-2.1505,-2.1219,-2.0333,-1.9947,-1.9947,-1.975,-1.9264,-1.9264,-1.9264,-1.9264,-1.9264,-1.9264,-1.9264,-1.9264,-1.9264,-1.9264,-1.9264,-1.9264,-1.9264,-1.9264,-1.9264,-1.9264,-1.9264,-1.9264,-1.9264,-1.9264,-1.9264,-1.9264,-1.9264,-1.9256,-1.9256,-1.9058,-1.8564,-1.7665,-1.6566,-1.4769,-1.2868,-1.1974,-1.1278,-3.8323,-3.8323,-3.8323,-3.8683,-3.9214,-3.9402,-3.9796,-4.0292,-4.0515,-4.0583,-4.0583,-4.0583,-4.0583,-4.0493,-4.0038,-3.9491,-3.8834,-3.7547,-3.6622,-3.608,-3.5256,-3.471,-3.471,-3.471,-3.471,-3.4414,-3.3728,-3.2489,-3.1244,-3.0375,-2.9338,-2.7719,-2.6368,-2.5529,-2.5335,-2.5087,-2.4904,-2.471,-2.4452,-2.4226,-2.414,-2.4118,-2.4118,-2.4118,-2.4118,-2.4118,-2.4118,-2.4118,-2.4118,-2.4118,-2.4118,-2.4118,-2.4118,-2.4118,-2.4118,-2.4118,-2.4118,-2.4118,-2.4118,-2.4118,-2.4118,-2.4118,-2.4118,-2.4118,-2.4118,-2.4118,-2.4118,-2.4118,-2.4538,-2.4775,-2.4704,-2.4276,-2.4064,-2.3561,-2.2495,-2.1612,-2.0727,-2.0136,-1.975,-1.9454,-1.9264,-1.9264,-1.9264,-1.9264,-1.9264,-1.9264,-1.9264,-1.9264,-1.9264,-1.9264,-1.9264,-1.9264,-1.9264,-1.9264,-1.9264,-1.9264,-1.9264,-1.9264,-1.9264,-1.9264,-1.9264,-1.9264,-1.9264,-1.9264,-1.9264,-1.9256,-1.9256,-1.8663,-1.7863,-1.6665,-1.5466,-1.3772,-1.2074,-1.0977,-1.038,-3.8323,-3.8323,-3.8323,-3.8768,-3.9453,-3.947,-3.9899,-4.0532,-4.0583,-4.0583,-4.0583,-4.0583,-4.0583,-4.0402,-3.9657,-3.9017,-3.8559,-3.7008,-3.6173,-3.563,-3.5163,-3.4803,-3.471,-3.471,-3.4414,-3.4118,-3.3149,-3.1434,-3.009,-2.923,-2.8572,-2.7226,-2.6001,-2.5442,-2.5152,-2.4883,-2.4635,-2.4398,-2.4237,-2.414,-2.4118,-2.4118,-2.4118,-2.4118,-2.4118,-2.4118,-2.4118,-2.4118,-2.4118,-2.4118,-2.4118,-2.4118,-2.4118,-2.4118,-2.4118,-2.4118,-2.4118,-2.4118,-2.4118,-2.4118,-2.4118,-2.4118,-2.4118,-2.4118,-2.4118,-2.4118,-2.4172,-2.4215,-2.456,-2.4797,-2.4779,-2.4425,-2.3793,-2.3072,-2.2004,-2.1121,-2.0432,-1.9849,-1.9553,-1.9355,-1.9264,-1.9264,-1.9264,-1.9264,-1.9264,-1.9264,-1.9264,-1.9264,-1.9264,-1.9264,-1.9264,-1.9264,-1.9264,-1.9264,-1.9264,-1.9264,-1.9264,-1.9264,-1.9264,-1.9264,-1.9264,-1.9264,-1.9264,-1.9264,-1.9264,-1.9264,-1.9256,-1.8259,-1.7162,-1.5963,-1.4669,-1.3073,-1.1573,-1.038,-0.9782,-3.8323,-3.8323,-3.8323,-3.8768,-3.947,-3.947,-3.9899,-4.0566,-4.0583,-4.0583,-4.0583,-4.0583,-4.0583,-4.0311,-3.9383,-3.8467,-3.7715,-3.6622,-3.5708,-3.5069,-3.471,-3.471,-3.471,-3.4508,-3.4024,-3.2866,-3.2097,-3.0471,-2.8668,-2.7996,-2.7044,-2.5787,-2.5528,-2.5323,-2.5023,-2.47,-2.4409,-2.4226,-2.4129,-2.4118,-2.4118,-2.4118,-2.4118,-2.4118,-2.4118,-2.4118,-2.4118,-2.4118,-2.4118,-2.4118,-2.4118,-2.4118,-2.4118,-2.4118,-2.4118,-2.4118,-2.4118,-2.4118,-2.4118,-2.4118,-2.4118,-2.4118,-2.4118,-2.4118,-2.4118,-2.4118,-2.4204,-2.4387,-2.4646,-2.4883,-2.4811,-2.4477,-2.3443,-2.2583,-2.1514,-2.053,-1.9947,-1.9651,-1.9363,-1.9264,-1.9264,-1.9264,-1.9264,-1.9264,-1.9264,-1.9264,-1.9264,-1.9264,-1.9264,-1.9264,-1.9264,-1.9264,-1.9264,-1.9264,-1.9264,-1.9264,-1.9264,-1.9264,-1.9264,-1.9264,-1.9264,-1.9264,-1.9264,-1.9264,-1.9264,-1.9264,-1.9058,-1.816,-1.6963,-1.536,-1.3766,-1.2074,-1.0977,-1.0079,-0.9782,-3.8323,-3.8323,-3.8323,-3.8768,-3.947,-3.947,-3.9899,-4.0515,-4.0583,-4.0583,-4.0583,-4.0583,-4.0583,-4.0112,-3.8909,-3.7991,-3.7346,-3.5894,-3.5163,-3.4803,-3.471,-3.471,-3.471,-3.4414,-3.393,-3.238,-3.1434,-3.0007,-2.7996,-2.7044,-2.6172,-2.541,-2.5206,-2.5076,-2.4861,-2.4527,-2.4247,-2.4161,-2.4118,-2.4118,-2.4118,-2.4118,-2.4118,-2.4118,-2.4118,-2.4118,-2.4118,-2.4118,-2.4118,-2.4118,-2.4118,-2.4118,-2.4118,-2.4118,-2.4118,-2.4118,-2.4118,-2.4118,-2.4118,-2.4118,-2.4118,-2.4118,-2.4118,-2.4118,-2.4118,-2.4118,-2.4237,-2.4441,-2.4689,-2.4937,-2.5056,-2.3916,-2.2681,-2.2103,-2.1219,-2.0145,-1.9553,-1.9363,-1.9264,-1.9264,-1.9264,-1.9264,-1.9264,-1.9264,-1.9264,-1.9264,-1.9264,-1.9264,-1.9264,-1.9264,-1.9264,-1.9264,-1.9264,-1.9264,-1.9264,-1.9264,-1.9264,-1.9264,-1.9264,-1.9264,-1.9264,-1.9264,-1.9264,-1.9264,-1.9058,-1.8663,-1.8366,-1.7962,-1.6665,-1.4763,-1.2868,-1.0877,-1.0179,-0.9782,-0.9681,-3.8323,-3.8323,-3.8323,-3.8768,-3.9419,-3.947,-3.9899,-4.0498,-4.0583,-4.0583,-4.0583,-4.0583,-4.0402,-3.9748,-3.8451,-3.7346,-3.6807,-3.5615,-3.4976,-3.471,-3.471,-3.471,-3.4508,-3.4024,-3.296,-3.1718,-3.0198,-2.8572,-2.6948,-2.5992,-2.5582,-2.5334,-2.5087,-2.4915,-2.4667,-2.4344,-2.4118,-2.4118,-2.4118,-2.4118,-2.4118,-2.4118,-2.4118,-2.4118,-2.4118,-2.4118,-2.4118,-2.4118,-2.4118,-2.4118,-2.4118,-2.4118,-2.4118,-2.4118,-2.4118,-2.4118,-2.4118,-2.4118,-2.4118,-2.4118,-2.4118,-2.4118,-2.4118,-2.4118,-2.4129,-2.4172,-2.4355,-2.457,-2.4786,-2.5012,-2.5142,-2.4074,-2.2877,-2.2387,-2.1121,-2.0145,-1.9553,-1.9264,-1.9264,-1.9264,-1.9264,-1.9264,-1.9264,-1.9264,-1.9264,-1.9264,-1.9264,-1.9264,-1.9264,-1.9264,-1.9264,-1.9264,-1.9264,-1.9264,-1.9264,-1.9264,-1.9264,-1.9264,-1.9264,-1.9264,-1.9264,-1.9264,-1.9256,-1.9256,-1.8861,-1.8061,-1.7169,-1.6367,-1.5167,-1.3966,-1.1974,-1.0079,-0.9978,-0.9681,-0.9681,-3.8323,-3.8323,-3.8323,-3.8768,-3.9402,-3.947,-3.9881,-4.0481,-4.0566,-4.0493,-4.0402,-4.0493,-3.993,-3.9017,-3.7899,-3.7085,-3.6344,-3.5256,-3.471,-3.471,-3.471,-3.471,-3.4118,-3.3243,-3.2002,-3.0198,-2.886,-2.743,-2.5809,-2.5615,-2.5389,-2.5109,-2.4883,-2.4667,-2.4463,-2.4237,-2.4118,-2.4118,-2.4118,-2.4118,-2.4118,-2.4118,-2.4118,-2.4118,-2.4118,-2.4118,-2.4118,-2.4118,-2.4118,-2.4118,-2.4118,-2.4118,-2.4118,-2.4118,-2.4118,-2.4118,-2.4118,-2.4118,-2.4118,-2.4118,-2.4118,-2.4118,-2.4118,-2.4118,-2.4161,-2.4301,-2.4506,-2.4689,-2.4969,-2.5227,-2.5013,-2.4438,-2.3268,-2.2093,-2.0924,-2.0038,-1.9553,-1.9264,-1.9264,-1.9264,-1.9264,-1.9264,-1.9264,-1.9264,-1.9264,-1.9264,-1.9264,-1.9264,-1.9264,-1.9264,-1.9264,-1.9264,-1.9264,-1.9264,-1.9264,-1.9264,-1.9264,-1.9264,-1.9264,-1.9264,-1.9264,-1.9264,-1.9256,-1.9157,-1.8358,-1.7367,-1.587,-1.437,-1.3273,-1.2074,-1.1077,-0.9782,-0.9681,-0.9681,-0.9681,-3.8323,-3.8323,-3.8323,-3.8631,-3.9111,-3.9368,-3.9762,-4.0207,-4.0464,-4.022,-3.9673,-3.9582,-3.9017,-3.8083,-3.7177,-3.6529,-3.608,-3.5163,-3.471,-3.471,-3.471,-3.393,-3.3243,-3.2475,-3.0959,-2.9051,-2.7815,-2.6948,-2.5615,-2.5496,-2.526,-2.4958,-2.4603,-2.4323,-2.4237,-2.4129,-2.4118,-2.4118,-2.4118,-2.4118,-2.4118,-2.4118,-2.4118,-2.4118,-2.4118,-2.4118,-2.4118,-2.4118,-2.4118,-2.4118,-2.4118,-2.4118,-2.4118,-2.4118,-2.4118,-2.4118,-2.4118,-2.4118,-2.4118,-2.4118,-2.4118,-2.4118,-2.4118,-2.4118,-2.414,-2.4334,-2.456,-2.4797,-2.497,-2.5003,-2.4386,-2.3453,-2.2387,-2.1308,-2.0333,-1.975,-1.9355,-1.9256,-1.9264,-1.9264,-1.9264,-1.9264,-1.9264,-1.9264,-1.9264,-1.9264,-1.9264,-1.9264,-1.9264,-1.9264,-1.9264,-1.9264,-1.9264,-1.9264,-1.9264,-1.9264,-1.9264,-1.9264,-1.9264,-1.9264,-1.9264,-1.9264,-1.9058,-1.896,-1.7764,-1.6566,-1.4669,-1.2774,-1.1378,-1.0179,-0.9882,-0.9681,-0.9681,-0.9681,-0.9681,-3.8323,-3.8323,-3.8323,-3.8477,-3.8768,-3.9248,-3.9744,-4.0207,-4.0481,-4.0038,-3.9308,-3.9125,-3.8375,-3.727,-3.6529,-3.5894,-3.5615,-3.5069,-3.471,-3.471,-3.471,-3.3836,-3.2772,-3.1718,-3.0102,-2.8284,-2.7141,-2.6282,-2.5507,-2.5432,-2.513,-2.47,-2.4312,-2.4194,-2.4129,-2.4118,-2.4118,-2.4118,-2.4118,-2.4118,-2.4118,-2.4118,-2.4118,-2.4118,-2.4118,-2.4118,-2.4118,-2.4118,-2.4118,-2.4118,-2.4118,-2.4118,-2.4118,-2.4118,-2.4118,-2.4118,-2.4118,-2.4118,-2.4118,-2.4118,-2.4118,-2.4118,-2.4118,-2.4161,-2.4247,-2.4474,-2.47,-2.4937,-2.4854,-2.4445,-2.392,-2.2779,-2.1603,-2.0629,-2.0038,-1.9454,-1.9256,-1.9264,-1.9264,-1.9264,-1.9264,-1.9264,-1.9264,-1.9264,-1.9264,-1.9264,-1.9264,-1.9264,-1.9264,-1.9264,-1.9264,-1.9264,-1.9264,-1.9264,-1.9264,-1.9264,-1.9264,-1.9264,-1.9264,-1.9264,-1.9264,-1.9264,-1.896,-1.8366,-1.6864,-1.5068,-1.3073,-1.1278,-1.038,-0.9978,-0.9782,-0.9681,-0.9681,-0.9681,-0.9681,-3.8323,-3.8323,-3.8323,-3.8323,-3.846,-3.9145,-3.9881,-4.0549,-4.0493,-3.993,-3.9017,-3.8834,-3.7731,-3.6359,-3.608,-3.563,-3.4789,-3.4601,-3.4414,-3.4226,-3.3836,-3.296,-3.1813,-3.0483,-2.8955,-2.7611,-2.6561,-2.5895,-2.5486,-2.526,-2.4915,-2.4549,-2.4258,-2.414,-2.4118,-2.4118,-2.4118,-2.4118,-2.4118,-2.4118,-2.4118,-2.4118,-2.4118,-2.4118,-2.4118,-2.4118,-2.4118,-2.4118,-2.4118,-2.4118,-2.4118,-2.4118,-2.4118,-2.4118,-2.4118,-2.4118,-2.4118,-2.4118,-2.4118,-2.4118,-2.4161,-2.4183,-2.4161,-2.4269,-2.443,-2.4646,-2.4799,-2.462,-2.4521,-2.4044,-2.3561,-2.2191,-2.0915,-2.0333,-1.975,-1.9454,-1.9355,-1.9264,-1.9264,-1.9264,-1.9264,-1.9264,-1.9264,-1.9264,-1.9264,-1.9264,-1.9264,-1.9264,-1.9264,-1.9264,-1.9264,-1.9264,-1.9264,-1.9264,-1.9264,-1.9264,-1.9264,-1.9264,-1.9264,-1.9264,-1.9264,-1.896,-1.8366,-1.736,-1.5559,-1.3667,-1.1673,-1.0576,-0.9978,-0.9681,-0.9681,-0.9681,-0.9681,-0.9681,-0.9681,-3.8323,-3.8323,-3.8323,-3.8323,-3.8443,-3.9145,-3.9899,-4.0441,-3.9856,-3.8926,-3.7991,-3.727,-3.6452,-3.5163,-3.5163,-3.4976,-3.4414,-3.3728,-3.3149,-3.2866,-3.23,-3.0674,-2.9529,-2.8764,-2.7526,-2.6561,-2.5809,-2.5496,-2.541,-2.5141,-2.4786,-2.4474,-2.4226,-2.414,-2.4118,-2.4118,-2.4118,-2.4118,-2.4118,-2.4118,-2.4118,-2.4118,-2.4118,-2.4118,-2.4118,-2.4118,-2.4118,-2.4118,-2.4118,-2.4118,-2.4118,-2.4118,-2.4118,-2.4118,-2.4118,-2.4118,-2.4118,-2.4118,-2.4118,-2.4118,-2.4183,-2.4312,-2.4366,-2.4377,-2.4549,-2.4713,-2.4695,-2.4479,-2.3926,-2.3531,-2.2583,-2.1308,-2.0333,-1.9849,-1.9454,-1.9355,-1.9264,-1.9264,-1.9264,-1.9264,-1.9264,-1.9264,-1.9264,-1.9264,-1.9264,-1.9264,-1.9264,-1.9264,-1.9264,-1.9264,-1.9264,-1.9264,-1.9264,-1.9264,-1.9264,-1.9264,-1.9264,-1.9264,-1.9264,-1.9157,-1.8861,-1.8366,-1.7566,-1.6162,-1.4165,-1.2274,-1.038,-0.9782,-0.9681,-0.9681,-0.9681,-0.9681,-0.9681,-0.9681,-0.9681,-3.8323,-3.8323,-3.8323,-3.8409,-3.8631,-3.9042,-3.9498,-3.966,-3.9242,-3.8375,-3.7069,-3.6529,-3.5615,-3.4897,-3.4803,-3.471,-3.4601,-3.3257,-3.2569,-3.2191,-3.0661,-2.9517,-2.838,-2.7623,-2.6948,-2.5992,-2.5496,-2.5464,-2.5292,-2.4926,-2.4549,-2.4323,-2.4151,-2.414,-2.4118,-2.4118,-2.4118,-2.4118,-2.4118,-2.4118,-2.4118,-2.4118,-2.4118,-2.4118,-2.4118,-2.4118,-2.4118,-2.4118,-2.4118,-2.4118,-2.4118,-2.4118,-2.4118,-2.4118,-2.4118,-2.4118,-2.4118,-2.4118,-2.4129,-2.4226,-2.4323,-2.4474,-2.4635,-2.4471,-2.4535,-2.4631,-2.4417,-2.4079,-2.3491,-2.2788,-2.1514,-2.0432,-1.9947,-1.9355,-1.9355,-1.9264,-1.9264,-1.9264,-1.9264,-1.9264,-1.9264,-1.9264,-1.9264,-1.9264,-1.9264,-1.9264,-1.9264,-1.9264,-1.9264,-1.9264,-1.9264,-1.9264,-1.9264,-1.9264,-1.9264,-1.9264,-1.9264,-1.9264,-1.9264,-1.9058,-1.8564,-1.7566,-1.6467,-1.4669,-1.2674,-1.1077,-0.9782,-0.9782,-0.9681,-0.9681,-0.9681,-0.9681,-0.9681,-0.9681,-0.9681,-3.8323,-3.8323,-3.8323,-3.8512,-3.8837,-3.8731,-3.8595,-3.8408,-3.8497,-3.7883,-3.6436,-3.608,-3.5536,-3.4803,-3.471,-3.4508,-3.3836,-3.2583,-3.1529,-3.1908,-2.9816,-2.8284,-2.7623,-2.743,-2.6476,-2.5798,-2.5443,-2.5292,-2.5033,-2.4721,-2.4409,-2.4129,-2.4118,-2.4118,-2.4118,-2.4118,-2.4118,-2.4118,-2.4118,-2.4118,-2.4118,-2.4118,-2.4118,-2.4118,-2.4118,-2.4118,-2.4118,-2.4118,-2.4118,-2.4118,-2.4118,-2.4118,-2.4118,-2.4118,-2.4118,-2.4151,-2.4161,-2.4194,-2.4258,-2.4377,-2.4506,-2.4689,-2.482,-2.4493,-2.4385,-2.4427,-2.4273,-2.3169,-2.2378,-2.171,-2.0629,-2.0046,-1.9553,-1.9355,-1.9256,-1.9264,-1.9264,-1.9264,-1.9264,-1.9264,-1.9264,-1.9264,-1.9264,-1.9264,-1.9264,-1.9264,-1.9264,-1.9264,-1.9264,-1.9264,-1.9264,-1.9264,-1.9264,-1.9264,-1.9264,-1.9264,-1.9264,-1.9264,-1.9264,-1.8564,-1.7764,-1.6566,-1.5267,-1.3273,-1.1278,-1.058,-0.9681,-0.9681,-0.9681,-0.9681,-0.9681,-0.9681,-0.9681,-0.9681,-0.9681,-3.8323,-3.8323,-3.8323,-3.8392,-3.8425,-3.7986,-3.7397,-3.6635,-3.6534,-3.6467,-3.605,-3.5428,-3.4991,-3.4803,-3.4508,-3.4118,-3.2866,-3.1434,-3.0102,-2.9051,-2.7719,-2.7141,-2.6282,-2.6282,-2.5906,-2.5647,-2.5324,-2.5055,-2.4743,-2.4506,-2.4344,-2.414,-2.4118,-2.4118,-2.4118,-2.4118,-2.4118,-2.4118,-2.4118,-2.4118,-2.4118,-2.4118,-2.4118,-2.4118,-2.4118,-2.4118,-2.4118,-2.4118,-2.4118,-2.4118,-2.4118,-2.4118,-2.4118,-2.4118,-2.4118,-2.414,-2.428,-2.4334,-2.4441,-2.4592,-2.4764,-2.4641,-2.4556,-2.4201,-2.4003,-2.4151,-2.3598,-2.227,-2.1308,-2.0629,-2.0046,-1.9553,-1.9264,-1.9264,-1.9264,-1.9264,-1.9264,-1.9264,-1.9264,-1.9264,-1.9264,-1.9264,-1.9264,-1.9264,-1.9264,-1.9264,-1.9264,-1.9264,-1.9264,-1.9264,-1.9264,-1.9264,-1.9264,-1.9264,-1.9264,-1.9264,-1.9264,-1.9157,-1.9058,-1.816,-1.6963,-1.4968,-1.3073,-1.1478,-0.9978,-0.9782,-0.9681,-0.9681,-0.9681,-0.9681,-0.9681,-0.9681,-0.9681,-0.9681,-0.9681,-3.8323,-3.8323,-3.8323,-3.8323,-3.8186,-3.7508,-3.6785,-3.6025,-3.5419,-3.5228,-3.5296,-3.4902,-3.471,-3.4414,-3.4024,-3.3445,-3.2002,-2.9994,-2.8955,-2.7623,-2.6379,-2.5906,-2.5518,-2.5518,-2.5615,-2.5453,-2.5141,-2.4829,-2.4484,-2.4323,-2.4204,-2.4129,-2.4118,-2.4118,-2.4118,-2.4118,-2.4118,-2.4118,-2.4118,-2.4118,-2.4118,-2.4118,-2.4118,-2.4118,-2.4118,-2.4118,-2.4118,-2.4118,-2.4118,-2.4118,-2.4118,-2.4118,-2.4118,-2.4118,-2.4183,-2.4269,-2.4398,-2.4506,-2.4646,-2.4829,-2.5023,-2.4769,-2.4339,-2.3967,-2.3004,-2.2945,-2.2359,-2.1121,-2.1121,-2.053,-1.9849,-1.9363,-1.9264,-1.9264,-1.9264,-1.9264,-1.9264,-1.9264,-1.9264,-1.9264,-1.9264,-1.9264,-1.9264,-1.9264,-1.9264,-1.9264,-1.9264,-1.9264,-1.9264,-1.9264,-1.9264,-1.9264,-1.9264,-1.9264,-1.9264,-1.9264,-1.9264,-1.9157,-1.8861,-1.6765,-1.4968,-1.2674,-1.0676,-1.0079,-0.9782,-0.9681,-0.9681,-0.9681,-0.9681,-0.9681,-0.9681,-0.9681,-0.9681,-0.9681,-0.9681,-3.8323,-3.8323,-3.8323,-3.8237,-3.798,-3.7119,-3.6312,-3.5618,-3.484,-3.4187,-3.3775,-3.4016,-3.4391,-3.4118,-3.3163,-3.2569,-3.1326,-2.9243,-2.8092,-2.7044,-2.6089,-2.5615,-2.5518,-2.5518,-2.5443,-2.5281,-2.5001,-2.4689,-2.4387,-2.4247,-2.4161,-2.4118,-2.4118,-2.4118,-2.4118,-2.4118,-2.4118,-2.4118,-2.4118,-2.4118,-2.4118,-2.4118,-2.4118,-2.4118,-2.4118,-2.4118,-2.4118,-2.4118,-2.4118,-2.4118,-2.4118,-2.4118,-2.4161,-2.4183,-2.429,-2.4398,-2.4592,-2.471,-2.4861,-2.5087,-2.5088,-2.48,-2.4269,-2.3355,-2.2289,-2.1505,-2.0826,-2.0629,-2.0629,-2.0333,-1.9651,-1.9264,-1.9264,-1.9264,-1.9264,-1.9264,-1.9264,-1.9264,-1.9264,-1.9264,-1.9264,-1.9264,-1.9264,-1.9264,-1.9264,-1.9264,-1.9264,-1.9264,-1.9264,-1.9264,-1.9264,-1.9264,-1.9264,-1.9264,-1.9264,-1.9264,-1.9264,-1.8861,-1.8259,-1.5466,-1.3073,-1.1478,-1.038,-0.9982,-0.9681,-0.9681,-0.9681,-0.9681,-0.9681,-0.9681,-0.9681,-0.9681,-0.9681,-0.9681,-0.9681,-3.8323,-3.8323,-3.8323,-3.7894,-3.7102,-3.6221,-3.5312,-3.4472,-3.3754,-3.2869,-3.2134,-3.2217,-3.2937,-3.4601,-3.3055,-3.1908,-3.0185,-2.838,-2.6948,-2.5906,-2.5712,-2.5615,-2.5496,-2.5464,-2.526,-2.5044,-2.4818,-2.4581,-2.4312,-2.4172,-2.4118,-2.4118,-2.4118,-2.4118,-2.4118,-2.4118,-2.4118,-2.4118,-2.4118,-2.4118,-2.4118,-2.4118,-2.4118,-2.4118,-2.4118,-2.4118,-2.4118,-2.4118,-2.4118,-2.4118,-2.4118,-2.4118,-2.4172,-2.4269,-2.4398,-2.456,-2.4753,-2.4969,-2.5141,-2.5099,-2.4992,-2.4335,-2.3463,-2.2289,-2.1308,-2.0432,-1.9947,-1.975,-1.975,-1.975,-1.9264,-1.9264,-1.9264,-1.9264,-1.9264,-1.9264,-1.9264,-1.9264,-1.9264,-1.9264,-1.9264,-1.9264,-1.9264,-1.9264,-1.9264,-1.9264,-1.9264,-1.9264,-1.9264,-1.9264,-1.9264,-1.9264,-1.9264,-1.9264,-1.9264,-1.9264,-1.9157,-1.8762,-1.7459,-1.4669,-1.2374,-1.0877,-0.9978,-0.9782,-0.9681,-0.9681,-0.9681,-0.9681,-0.9681,-0.9681,-0.9681,-0.9681,-0.9681,-0.9681,-0.9681]}]]